<?xml version="1.0" encoding="UTF-8"?><gpx xmlns="http://www.topografix.com/GPX/1/1" version="1.1" creator="iOrient"><trk><name>Квест "Код города"</name><trkseg><trkpt lat="56.8351898" lon="53.1268289"><time>2024-11-03T05:43:44.057</time></trkpt><trkpt lat="56.8351734" lon="53.1269388"><time>2024-11-03T05:43:46.070</time></trkpt><trkpt lat="56.8352252" lon="53.1269179"><time>2024-11-03T05:43:48.087</time></trkpt><trkpt lat="56.8352648" lon="53.1269592"><time>2024-11-03T05:44:03.220</time></trkpt><trkpt lat="56.8352527" lon="53.1270528"><time>2024-11-03T05:44:14.237</time></trkpt><trkpt lat="56.8352554" lon="53.1271544"><time>2024-11-03T05:44:19.237</time></trkpt><trkpt lat="56.8352369" lon="53.1272428"><time>2024-11-03T05:44:22.247</time></trkpt><trkpt lat="56.8352418" lon="53.1273510"><time>2024-11-03T05:44:26.240</time></trkpt><trkpt lat="56.8352654" lon="53.1274378"><time>2024-11-03T05:44:30.257</time></trkpt><trkpt lat="56.8352897" lon="53.1275205"><time>2024-11-03T05:44:34.240</time></trkpt><trkpt lat="56.8353309" lon="53.1275909"><time>2024-11-03T05:44:38.247</time></trkpt><trkpt lat="56.8352457" lon="53.1272642"><time>2024-11-03T05:44:40.280</time></trkpt><trkpt lat="56.8352467" lon="53.1272725"><time>2024-11-03T05:44:42.303</time></trkpt><trkpt lat="56.8350687" lon="53.1275831"><time>2024-11-03T05:44:43.323</time></trkpt><trkpt lat="56.8350627" lon="53.1278963"><time>2024-11-03T05:44:44.333</time></trkpt><trkpt lat="56.8352493" lon="53.1272827"><time>2024-11-03T05:44:46.357</time></trkpt><trkpt lat="56.8352500" lon="53.1272850"><time>2024-11-03T05:44:48.373</time></trkpt><trkpt lat="56.8354066" lon="53.1274509"><time>2024-11-03T05:44:50.403</time></trkpt><trkpt lat="56.8352512" lon="53.1272921"><time>2024-11-03T05:44:53.323</time></trkpt><trkpt lat="56.8352527" lon="53.1272993"><time>2024-11-03T05:44:55.350</time></trkpt><trkpt lat="56.8351158" lon="53.1274872"><time>2024-11-03T05:44:56.357</time></trkpt><trkpt lat="56.8351019" lon="53.1275661"><time>2024-11-03T05:44:57.247</time></trkpt><trkpt lat="56.8351096" lon="53.1276487"><time>2024-11-03T05:44:58.200</time></trkpt><trkpt lat="56.8351557" lon="53.1277439"><time>2024-11-03T05:44:59.223</time></trkpt><trkpt lat="56.8352576" lon="53.1272996"><time>2024-11-03T05:45:01.237</time></trkpt><trkpt lat="56.8352570" lon="53.1273054"><time>2024-11-03T05:45:03.243</time></trkpt><trkpt lat="56.8353600" lon="53.1282164"><time>2024-11-03T05:45:05.213</time></trkpt><trkpt lat="56.8352436" lon="53.1272529"><time>2024-11-03T05:45:08.200</time></trkpt><trkpt lat="56.8352468" lon="53.1272578"><time>2024-11-03T05:45:11.197</time></trkpt><trkpt lat="56.8351977" lon="53.1274298"><time>2024-11-03T05:45:12.197</time></trkpt><trkpt lat="56.8351645" lon="53.1275789"><time>2024-11-03T05:45:13.187</time></trkpt><trkpt lat="56.8351317" lon="53.1277485"><time>2024-11-03T05:45:14.210</time></trkpt><trkpt lat="56.8352485" lon="53.1272715"><time>2024-11-03T05:45:16.247</time></trkpt><trkpt lat="56.8352498" lon="53.1272961"><time>2024-11-03T05:45:18.270</time></trkpt><trkpt lat="56.8351747" lon="53.1277071"><time>2024-11-03T05:45:19.293</time></trkpt><trkpt lat="56.8351372" lon="53.1279617"><time>2024-11-03T05:45:20.293</time></trkpt><trkpt lat="56.8352566" lon="53.1273203"><time>2024-11-03T05:45:22.317</time></trkpt><trkpt lat="56.8352425" lon="53.1273471"><time>2024-11-03T05:45:24.340</time></trkpt><trkpt lat="56.8352087" lon="53.1275558"><time>2024-11-03T05:45:25.353</time></trkpt><trkpt lat="56.8351394" lon="53.1277003"><time>2024-11-03T05:45:27.247</time></trkpt><trkpt lat="56.8351088" lon="53.1277668"><time>2024-11-03T05:45:28.223</time></trkpt><trkpt lat="56.8352448" lon="53.1273547"><time>2024-11-03T05:45:30.250</time></trkpt><trkpt lat="56.8351553" lon="53.1274574"><time>2024-11-03T05:45:33.207</time></trkpt><trkpt lat="56.8351359" lon="53.1275530"><time>2024-11-03T05:45:34.217</time></trkpt><trkpt lat="56.8351075" lon="53.1276347"><time>2024-11-03T05:45:35.217</time></trkpt><trkpt lat="56.8350703" lon="53.1277314"><time>2024-11-03T05:45:37.210</time></trkpt><trkpt lat="56.8350211" lon="53.1278315"><time>2024-11-03T05:45:38.243</time></trkpt><trkpt lat="56.8351572" lon="53.1274739"><time>2024-11-03T05:45:40.290</time></trkpt><trkpt lat="56.8351558" lon="53.1274950"><time>2024-11-03T05:45:42.323</time></trkpt><trkpt lat="56.8350515" lon="53.1276975"><time>2024-11-03T05:45:43.343</time></trkpt><trkpt lat="56.8347701" lon="53.1279506"><time>2024-11-03T05:45:44.353</time></trkpt><trkpt lat="56.8351317" lon="53.1275359"><time>2024-11-03T05:45:46.397</time></trkpt><trkpt lat="56.8351273" lon="53.1275448"><time>2024-11-03T05:45:48.420</time></trkpt><trkpt lat="56.8349867" lon="53.1275925"><time>2024-11-03T05:45:49.437</time></trkpt><trkpt lat="56.8348513" lon="53.1276088"><time>2024-11-03T05:45:50.437</time></trkpt><trkpt lat="56.8347794" lon="53.1277594"><time>2024-11-03T05:45:51.440</time></trkpt><trkpt lat="56.8351270" lon="53.1275521"><time>2024-11-03T05:45:53.467</time></trkpt><trkpt lat="56.8351225" lon="53.1275801"><time>2024-11-03T05:45:55.490</time></trkpt><trkpt lat="56.8349094" lon="53.1280005"><time>2024-11-03T05:45:56.520</time></trkpt><trkpt lat="56.8351178" lon="53.1276070"><time>2024-11-03T05:45:58.557</time></trkpt><trkpt lat="56.8351142" lon="53.1276211"><time>2024-11-03T05:46:00.583</time></trkpt><trkpt lat="56.8349148" lon="53.1282487"><time>2024-11-03T05:46:01.617</time></trkpt><trkpt lat="56.8351109" lon="53.1276306"><time>2024-11-03T05:46:03.647</time></trkpt><trkpt lat="56.8351114" lon="53.1276335"><time>2024-11-03T05:46:05.667</time></trkpt><trkpt lat="56.8347079" lon="53.1281959"><time>2024-11-03T05:46:06.693</time></trkpt><trkpt lat="56.8351076" lon="53.1276121"><time>2024-11-03T05:46:08.720</time></trkpt><trkpt lat="56.8351041" lon="53.1276261"><time>2024-11-03T05:46:10.753</time></trkpt><trkpt lat="56.8348743" lon="53.1279947"><time>2024-11-03T05:46:11.780</time></trkpt><trkpt lat="56.8352361" lon="53.1272621"><time>2024-11-03T05:46:14.707</time></trkpt><trkpt lat="56.8352383" lon="53.1272801"><time>2024-11-03T05:46:16.723</time></trkpt><trkpt lat="56.8350464" lon="53.1274847"><time>2024-11-03T05:46:17.743</time></trkpt><trkpt lat="56.8347436" lon="53.1277606"><time>2024-11-03T05:46:18.760</time></trkpt><trkpt lat="56.8352387" lon="53.1272825"><time>2024-11-03T05:46:20.783</time></trkpt><trkpt lat="56.8352373" lon="53.1273017"><time>2024-11-03T05:46:22.807</time></trkpt><trkpt lat="56.8350753" lon="53.1275942"><time>2024-11-03T05:46:24.720</time></trkpt><trkpt lat="56.8350112" lon="53.1279537"><time>2024-11-03T05:46:25.747</time></trkpt><trkpt lat="56.8352366" lon="53.1273079"><time>2024-11-03T05:46:27.787</time></trkpt><trkpt lat="56.8352351" lon="53.1273090"><time>2024-11-03T05:46:29.803</time></trkpt><trkpt lat="56.8351048" lon="53.1273470"><time>2024-11-03T05:46:30.720</time></trkpt><trkpt lat="56.8349623" lon="53.1273898"><time>2024-11-03T05:46:31.727</time></trkpt><trkpt lat="56.8346194" lon="53.1283754"><time>2024-11-03T05:46:32.753</time></trkpt><trkpt lat="56.8352316" lon="53.1272525"><time>2024-11-03T05:46:35.687</time></trkpt><trkpt lat="56.8352280" lon="53.1272596"><time>2024-11-03T05:46:37.713</time></trkpt><trkpt lat="56.8349561" lon="53.1274706"><time>2024-11-03T05:46:38.730</time></trkpt><trkpt lat="56.8346008" lon="53.1278024"><time>2024-11-03T05:46:39.637</time></trkpt><trkpt lat="56.8352210" lon="53.1272797"><time>2024-11-03T05:46:41.673</time></trkpt><trkpt lat="56.8352193" lon="53.1272877"><time>2024-11-03T05:46:43.687</time></trkpt><trkpt lat="56.8348887" lon="53.1279177"><time>2024-11-03T05:46:44.727</time></trkpt><trkpt lat="56.8352192" lon="53.1273005"><time>2024-11-03T05:46:46.757</time></trkpt><trkpt lat="56.8352202" lon="53.1273161"><time>2024-11-03T05:46:49.683</time></trkpt><trkpt lat="56.8352172" lon="53.1275699"><time>2024-11-03T05:46:50.703</time></trkpt><trkpt lat="56.8350052" lon="53.1280543"><time>2024-11-03T05:46:51.710</time></trkpt><trkpt lat="56.8352174" lon="53.1273260"><time>2024-11-03T05:46:53.737</time></trkpt><trkpt lat="56.8352147" lon="53.1273331"><time>2024-11-03T05:46:55.760</time></trkpt><trkpt lat="56.8350057" lon="53.1275418"><time>2024-11-03T05:46:56.787</time></trkpt><trkpt lat="56.8346975" lon="53.1283026"><time>2024-11-03T05:46:57.807</time></trkpt><trkpt lat="56.8352336" lon="53.1272606"><time>2024-11-03T05:47:00.747</time></trkpt><trkpt lat="56.8352351" lon="53.1272790"><time>2024-11-03T05:47:02.777</time></trkpt><trkpt lat="56.8353569" lon="53.1279751"><time>2024-11-03T05:47:03.810</time></trkpt><trkpt lat="56.8352338" lon="53.1272786"><time>2024-11-03T05:47:05.847</time></trkpt><trkpt lat="56.8352353" lon="53.1272841"><time>2024-11-03T05:47:07.877</time></trkpt><trkpt lat="56.8347661" lon="53.1279860"><time>2024-11-03T05:47:08.903</time></trkpt><trkpt lat="56.8352324" lon="53.1273137"><time>2024-11-03T05:47:10.937</time></trkpt><trkpt lat="56.8352315" lon="53.1273203"><time>2024-11-03T05:47:12.953</time></trkpt><trkpt lat="56.8351318" lon="53.1281788"><time>2024-11-03T05:47:14.007</time></trkpt><trkpt lat="56.8352289" lon="53.1273377"><time>2024-11-03T05:47:16.107</time></trkpt><trkpt lat="56.8352281" lon="53.1273416"><time>2024-11-03T05:47:18.117</time></trkpt><trkpt lat="56.8349080" lon="53.1280101"><time>2024-11-03T05:47:19.150</time></trkpt><trkpt lat="56.8352282" lon="53.1273433"><time>2024-11-03T05:47:21.170</time></trkpt><trkpt lat="56.8352315" lon="53.1273853"><time>2024-11-03T05:47:23.187</time></trkpt><trkpt lat="56.8351603" lon="53.1276079"><time>2024-11-03T05:47:24.207</time></trkpt><trkpt lat="56.8351603" lon="53.1276079"><time>2024-11-03T05:47:24.880</time></trkpt><trkpt lat="56.8349789" lon="53.1279795"><time>2024-11-03T05:47:25.217</time></trkpt><trkpt lat="56.8352375" lon="53.1272549"><time>2024-11-03T05:47:28.207</time></trkpt><trkpt lat="56.8352399" lon="53.1272789"><time>2024-11-03T05:47:30.217</time></trkpt><trkpt lat="56.8350890" lon="53.1277433"><time>2024-11-03T05:47:31.250</time></trkpt><trkpt lat="56.8352372" lon="53.1272933"><time>2024-11-03T05:47:33.290</time></trkpt><trkpt lat="56.8352412" lon="53.1273128"><time>2024-11-03T05:47:35.503</time></trkpt><trkpt lat="56.8352569" lon="53.1274323"><time>2024-11-03T05:47:36.307</time></trkpt><trkpt lat="56.8353024" lon="53.1275026"><time>2024-11-03T05:47:37.300</time></trkpt><trkpt lat="56.8352341" lon="53.1279742"><time>2024-11-03T05:47:38.317</time></trkpt><trkpt lat="56.8352412" lon="53.1273223"><time>2024-11-03T05:47:40.327</time></trkpt><trkpt lat="56.8352395" lon="53.1273261"><time>2024-11-03T05:47:42.337</time></trkpt><trkpt lat="56.8349593" lon="53.1277910"><time>2024-11-03T05:47:43.367</time></trkpt><trkpt lat="56.8352388" lon="53.1272517"><time>2024-11-03T05:47:46.297</time></trkpt><trkpt lat="56.8352388" lon="53.1272548"><time>2024-11-03T05:47:48.307</time></trkpt><trkpt lat="56.8350672" lon="53.1275668"><time>2024-11-03T05:47:49.330</time></trkpt><trkpt lat="56.8349482" lon="53.1287890"><time>2024-11-03T05:47:50.353</time></trkpt><trkpt lat="56.8352306" lon="53.1272634"><time>2024-11-03T05:47:52.390</time></trkpt><trkpt lat="56.8352316" lon="53.1272702"><time>2024-11-03T05:47:54.413</time></trkpt><trkpt lat="56.8352266" lon="53.1273613"><time>2024-11-03T05:47:55.440</time></trkpt><trkpt lat="56.8350946" lon="53.1277852"><time>2024-11-03T05:47:56.450</time></trkpt><trkpt lat="56.8352316" lon="53.1272899"><time>2024-11-03T05:47:58.490</time></trkpt><trkpt lat="56.8352287" lon="53.1272805"><time>2024-11-03T05:48:00.517</time></trkpt><trkpt lat="56.8350240" lon="53.1275340"><time>2024-11-03T05:48:01.547</time></trkpt><trkpt lat="56.8349906" lon="53.1278556"><time>2024-11-03T05:48:03.560</time></trkpt><trkpt lat="56.8352288" lon="53.1272843"><time>2024-11-03T05:48:05.593</time></trkpt><trkpt lat="56.8352282" lon="53.1273040"><time>2024-11-03T05:48:07.620</time></trkpt><trkpt lat="56.8352801" lon="53.1273448"><time>2024-11-03T05:48:08.623</time></trkpt><trkpt lat="56.8353340" lon="53.1274204"><time>2024-11-03T05:48:09.530</time></trkpt><trkpt lat="56.8353616" lon="53.1274854"><time>2024-11-03T05:48:10.547</time></trkpt><trkpt lat="56.8353849" lon="53.1276401"><time>2024-11-03T05:48:13.450</time></trkpt><trkpt lat="56.8352279" lon="53.1273039"><time>2024-11-03T05:48:15.477</time></trkpt><trkpt lat="56.8352223" lon="53.1273167"><time>2024-11-03T05:48:17.487</time></trkpt><trkpt lat="56.8357791" lon="53.1276975"><time>2024-11-03T05:48:18.427</time></trkpt><trkpt lat="56.8352230" lon="53.1273217"><time>2024-11-03T05:48:20.457</time></trkpt><trkpt lat="56.8352288" lon="53.1273333"><time>2024-11-03T05:48:22.480</time></trkpt><trkpt lat="56.8351385" lon="53.1282090"><time>2024-11-03T05:48:23.513</time></trkpt><trkpt lat="56.8352298" lon="53.1273433"><time>2024-11-03T05:48:25.547</time></trkpt><trkpt lat="56.8352321" lon="53.1273563"><time>2024-11-03T05:48:27.563</time></trkpt><trkpt lat="56.8352235" lon="53.1282228"><time>2024-11-03T05:48:28.603</time></trkpt><trkpt lat="56.8352344" lon="53.1273832"><time>2024-11-03T05:48:30.630</time></trkpt><trkpt lat="56.8352396" lon="53.1274020"><time>2024-11-03T05:48:32.660</time></trkpt><trkpt lat="56.8351708" lon="53.1278299"><time>2024-11-03T05:48:33.683</time></trkpt><trkpt lat="56.8352432" lon="53.1274327"><time>2024-11-03T05:48:35.723</time></trkpt><trkpt lat="56.8352466" lon="53.1274418"><time>2024-11-03T05:48:37.747</time></trkpt><trkpt lat="56.8351813" lon="53.1282500"><time>2024-11-03T05:48:38.787</time></trkpt><trkpt lat="56.8352480" lon="53.1274478"><time>2024-11-03T05:48:40.803</time></trkpt><trkpt lat="56.8352481" lon="53.1274492"><time>2024-11-03T05:48:42.817</time></trkpt><trkpt lat="56.8360030" lon="53.1278638"><time>2024-11-03T05:48:43.750</time></trkpt><trkpt lat="56.8352484" lon="53.1274497"><time>2024-11-03T05:48:45.773</time></trkpt><trkpt lat="56.8352558" lon="53.1274634"><time>2024-11-03T05:48:48.700</time></trkpt><trkpt lat="56.8353555" lon="53.1274684"><time>2024-11-03T05:48:49.717</time></trkpt><trkpt lat="56.8355916" lon="53.1274498"><time>2024-11-03T05:48:50.727</time></trkpt><trkpt lat="56.8352564" lon="53.1274695"><time>2024-11-03T05:48:52.757</time></trkpt><trkpt lat="56.8352567" lon="53.1274708"><time>2024-11-03T05:48:54.767</time></trkpt><trkpt lat="56.8355474" lon="53.1276220"><time>2024-11-03T05:48:55.700</time></trkpt><trkpt lat="56.8352587" lon="53.1274744"><time>2024-11-03T05:48:57.727</time></trkpt><trkpt lat="56.8352615" lon="53.1274830"><time>2024-11-03T05:48:59.740</time></trkpt><trkpt lat="56.8353968" lon="53.1277116"><time>2024-11-03T05:49:00.773</time></trkpt><trkpt lat="56.8352633" lon="53.1274882"><time>2024-11-03T05:49:03.703</time></trkpt><trkpt lat="56.8352680" lon="53.1274961"><time>2024-11-03T05:49:05.730</time></trkpt><trkpt lat="56.8354860" lon="53.1283782"><time>2024-11-03T05:49:06.757</time></trkpt><trkpt lat="56.8352735" lon="53.1275095"><time>2024-11-03T05:49:08.783</time></trkpt><trkpt lat="56.8352809" lon="53.1275213"><time>2024-11-03T05:49:10.807</time></trkpt><trkpt lat="56.8352743" lon="53.1279840"><time>2024-11-03T05:49:11.837</time></trkpt><trkpt lat="56.8352817" lon="53.1275239"><time>2024-11-03T05:49:13.870</time></trkpt><trkpt lat="56.8352971" lon="53.1275466"><time>2024-11-03T05:49:15.903</time></trkpt><trkpt lat="56.8353875" lon="53.1276203"><time>2024-11-03T05:49:16.937</time></trkpt><trkpt lat="56.8353034" lon="53.1275460"><time>2024-11-03T05:49:18.967</time></trkpt><trkpt lat="56.8353043" lon="53.1275526"><time>2024-11-03T05:49:20.990</time></trkpt><trkpt lat="56.8353752" lon="53.1276232"><time>2024-11-03T05:49:22.017</time></trkpt><trkpt lat="56.8352375" lon="53.1272430"><time>2024-11-03T05:49:24.950</time></trkpt><trkpt lat="56.8352376" lon="53.1272438"><time>2024-11-03T05:49:26.977</time></trkpt><trkpt lat="56.8362635" lon="53.1279489"><time>2024-11-03T05:49:28.017</time></trkpt><trkpt lat="56.8352426" lon="53.1272535"><time>2024-11-03T05:49:30.957</time></trkpt><trkpt lat="56.8352383" lon="53.1272502"><time>2024-11-03T05:49:33.883</time></trkpt><trkpt lat="56.8353854" lon="53.1275380"><time>2024-11-03T05:49:34.913</time></trkpt><trkpt lat="56.8352397" lon="53.1272609"><time>2024-11-03T05:49:38.750</time></trkpt><trkpt lat="56.8352371" lon="53.1272829"><time>2024-11-03T05:49:40.767</time></trkpt><trkpt lat="56.8353994" lon="53.1276107"><time>2024-11-03T05:49:41.800</time></trkpt><trkpt lat="56.8352386" lon="53.1272930"><time>2024-11-03T05:49:43.837</time></trkpt><trkpt lat="56.8352398" lon="53.1273004"><time>2024-11-03T05:49:45.860</time></trkpt><trkpt lat="56.8353030" lon="53.1273055"><time>2024-11-03T05:49:46.860</time></trkpt><trkpt lat="56.8357247" lon="53.1276271"><time>2024-11-03T05:49:47.780</time></trkpt><trkpt lat="56.8352428" lon="53.1273076"><time>2024-11-03T05:49:49.820</time></trkpt><trkpt lat="56.8352433" lon="53.1273016"><time>2024-11-03T05:49:51.840</time></trkpt><trkpt lat="56.8351252" lon="53.1274012"><time>2024-11-03T05:49:52.753</time></trkpt><trkpt lat="56.8352296" lon="53.1275246"><time>2024-11-03T05:49:54.663</time></trkpt><trkpt lat="56.8352529" lon="53.1277508"><time>2024-11-03T05:49:55.680</time></trkpt><trkpt lat="56.8352463" lon="53.1273130"><time>2024-11-03T05:49:57.713</time></trkpt><trkpt lat="56.8352555" lon="53.1272696"><time>2024-11-03T05:50:01.547</time></trkpt><trkpt lat="56.8354044" lon="53.1272766"><time>2024-11-03T05:50:02.567</time></trkpt><trkpt lat="56.8355113" lon="53.1273117"><time>2024-11-03T05:50:03.573</time></trkpt><trkpt lat="56.8352377" lon="53.1272432"><time>2024-11-03T05:50:07.420</time></trkpt><trkpt lat="56.8370156" lon="53.1305864"><time>2024-11-03T05:50:10.363</time></trkpt><trkpt lat="56.8370224" lon="53.1306354"><time>2024-11-03T05:50:12.393</time></trkpt><trkpt lat="56.8369564" lon="53.1308105"><time>2024-11-03T05:50:13.420</time></trkpt><trkpt lat="56.8369357" lon="53.1309218"><time>2024-11-03T05:50:15.423</time></trkpt><trkpt lat="56.8369829" lon="53.1309757"><time>2024-11-03T05:50:18.427</time></trkpt><trkpt lat="56.8370264" lon="53.1310458"><time>2024-11-03T05:50:21.430</time></trkpt><trkpt lat="56.8370519" lon="53.1311231"><time>2024-11-03T05:50:23.437</time></trkpt><trkpt lat="56.8370687" lon="53.1312330"><time>2024-11-03T05:50:26.437</time></trkpt><trkpt lat="56.8370712" lon="53.1313310"><time>2024-11-03T05:50:28.430</time></trkpt><trkpt lat="56.8370729" lon="53.1314225"><time>2024-11-03T05:50:31.333</time></trkpt><trkpt lat="56.8370765" lon="53.1315088"><time>2024-11-03T05:50:33.247</time></trkpt><trkpt lat="56.8370867" lon="53.1316055"><time>2024-11-03T05:50:35.247</time></trkpt><trkpt lat="56.8371064" lon="53.1317079"><time>2024-11-03T05:50:38.247</time></trkpt><trkpt lat="56.8371261" lon="53.1317996"><time>2024-11-03T05:50:42.287</time></trkpt><trkpt lat="56.8370886" lon="53.1316085"><time>2024-11-03T05:50:44.317</time></trkpt><trkpt lat="56.8371015" lon="53.1316167"><time>2024-11-03T05:50:46.337</time></trkpt><trkpt lat="56.8372540" lon="53.1318701"><time>2024-11-03T05:50:47.377</time></trkpt><trkpt lat="56.8371124" lon="53.1316558"><time>2024-11-03T05:50:49.407</time></trkpt><trkpt lat="56.8371162" lon="53.1316833"><time>2024-11-03T05:50:51.433</time></trkpt><trkpt lat="56.8371411" lon="53.1318660"><time>2024-11-03T05:50:52.460</time></trkpt><trkpt lat="56.8371212" lon="53.1316991"><time>2024-11-03T05:50:54.493</time></trkpt><trkpt lat="56.8371254" lon="53.1317238"><time>2024-11-03T05:50:56.517</time></trkpt><trkpt lat="56.8370846" lon="53.1321503"><time>2024-11-03T05:50:57.550</time></trkpt><trkpt lat="56.8371286" lon="53.1317285"><time>2024-11-03T05:50:59.577</time></trkpt><trkpt lat="56.8371332" lon="53.1317357"><time>2024-11-03T05:51:01.597</time></trkpt><trkpt lat="56.8371332" lon="53.1317493"><time>2024-11-03T05:51:03.620</time></trkpt><trkpt lat="56.8372673" lon="53.1320880"><time>2024-11-03T05:51:04.637</time></trkpt><trkpt lat="56.8372864" lon="53.1322140"><time>2024-11-03T05:51:05.637</time></trkpt><trkpt lat="56.8373034" lon="53.1323040"><time>2024-11-03T05:51:06.637</time></trkpt><trkpt lat="56.8373382" lon="53.1323638"><time>2024-11-03T05:51:07.633</time></trkpt><trkpt lat="56.8373619" lon="53.1324676"><time>2024-11-03T05:51:08.630</time></trkpt><trkpt lat="56.8373772" lon="53.1325745"><time>2024-11-03T05:51:10.550</time></trkpt><trkpt lat="56.8371415" lon="53.1318088"><time>2024-11-03T05:51:12.580</time></trkpt><trkpt lat="56.8371478" lon="53.1318359"><time>2024-11-03T05:51:14.600</time></trkpt><trkpt lat="56.8372748" lon="53.1320216"><time>2024-11-03T05:51:15.617</time></trkpt><trkpt lat="56.8373801" lon="53.1322306"><time>2024-11-03T05:51:16.623</time></trkpt><trkpt lat="56.8373554" lon="53.1326302"><time>2024-11-03T05:51:17.633</time></trkpt><trkpt lat="56.8372956" lon="53.1327979"><time>2024-11-03T05:51:18.630</time></trkpt><trkpt lat="56.8372773" lon="53.1329362"><time>2024-11-03T05:51:19.633</time></trkpt><trkpt lat="56.8372653" lon="53.1330507"><time>2024-11-03T05:51:21.637</time></trkpt><trkpt lat="56.8373148" lon="53.1330882"><time>2024-11-03T05:51:24.640</time></trkpt><trkpt lat="56.8373647" lon="53.1331023"><time>2024-11-03T05:51:27.640</time></trkpt><trkpt lat="56.8374159" lon="53.1330969"><time>2024-11-03T05:51:30.650</time></trkpt><trkpt lat="56.8371486" lon="53.1318396"><time>2024-11-03T05:51:32.680</time></trkpt><trkpt lat="56.8371420" lon="53.1318591"><time>2024-11-03T05:51:36.483</time></trkpt><trkpt lat="56.8373039" lon="53.1323591"><time>2024-11-03T05:51:38.297</time></trkpt><trkpt lat="56.8373880" lon="53.1325743"><time>2024-11-03T05:51:39.317</time></trkpt><trkpt lat="56.8373880" lon="53.1325743"><time>2024-11-03T05:51:40.320</time></trkpt><trkpt lat="56.8371311" lon="53.1318778"><time>2024-11-03T05:51:43.197</time></trkpt><trkpt lat="56.8371377" lon="53.1318879"><time>2024-11-03T05:51:46.197</time></trkpt><trkpt lat="56.8369115" lon="53.1320039"><time>2024-11-03T05:51:47.213</time></trkpt><trkpt lat="56.8367643" lon="53.1320556"><time>2024-11-03T05:51:48.217</time></trkpt><trkpt lat="56.8368727" lon="53.1321624"><time>2024-11-03T05:51:49.213</time></trkpt><trkpt lat="56.8367274" lon="53.1322847"><time>2024-11-03T05:51:50.210</time></trkpt><trkpt lat="56.8365838" lon="53.1323917"><time>2024-11-03T05:51:51.217</time></trkpt><trkpt lat="56.8364320" lon="53.1325175"><time>2024-11-03T05:51:53.210</time></trkpt><trkpt lat="56.8362625" lon="53.1326243"><time>2024-11-03T05:51:54.207</time></trkpt><trkpt lat="56.8361969" lon="53.1329300"><time>2024-11-03T05:51:55.200</time></trkpt><trkpt lat="56.8360176" lon="53.1330512"><time>2024-11-03T05:51:56.217</time></trkpt><trkpt lat="56.8358386" lon="53.1331358"><time>2024-11-03T05:51:57.223</time></trkpt><trkpt lat="56.8356734" lon="53.1332202"><time>2024-11-03T05:51:58.217</time></trkpt><trkpt lat="56.8355237" lon="53.1332875"><time>2024-11-03T05:51:59.213</time></trkpt><trkpt lat="56.8353750" lon="53.1333392"><time>2024-11-03T05:52:00.220</time></trkpt><trkpt lat="56.8352500" lon="53.1333812"><time>2024-11-03T05:52:01.217</time></trkpt><trkpt lat="56.8351285" lon="53.1334226"><time>2024-11-03T05:52:02.213</time></trkpt><trkpt lat="56.8351913" lon="53.1334028"><time>2024-11-03T05:52:04.227</time></trkpt><trkpt lat="56.8351366" lon="53.1334145"><time>2024-11-03T05:52:05.220</time></trkpt><trkpt lat="56.8350962" lon="53.1334533"><time>2024-11-03T05:52:07.233</time></trkpt><trkpt lat="56.8351393" lon="53.1335433"><time>2024-11-03T05:52:10.243</time></trkpt><trkpt lat="56.8351482" lon="53.1336506"><time>2024-11-03T05:52:13.233</time></trkpt><trkpt lat="56.8351779" lon="53.1337192"><time>2024-11-03T05:52:16.223</time></trkpt><trkpt lat="56.8352380" lon="53.1337820"><time>2024-11-03T05:52:18.233</time></trkpt><trkpt lat="56.8353056" lon="53.1338425"><time>2024-11-03T05:52:20.227</time></trkpt><trkpt lat="56.8353679" lon="53.1339221"><time>2024-11-03T05:52:22.223</time></trkpt><trkpt lat="56.8354289" lon="53.1339545"><time>2024-11-03T05:52:23.223</time></trkpt><trkpt lat="56.8355331" lon="53.1340272"><time>2024-11-03T05:52:25.233</time></trkpt><trkpt lat="56.8356274" lon="53.1341044"><time>2024-11-03T05:52:27.240</time></trkpt><trkpt lat="56.8357237" lon="53.1341800"><time>2024-11-03T05:52:29.243</time></trkpt><trkpt lat="56.8358222" lon="53.1342612"><time>2024-11-03T05:52:31.240</time></trkpt><trkpt lat="56.8359161" lon="53.1343527"><time>2024-11-03T05:52:33.243</time></trkpt><trkpt lat="56.8371402" lon="53.1319003"><time>2024-11-03T05:52:35.283</time></trkpt><trkpt lat="56.8371406" lon="53.1319125"><time>2024-11-03T05:52:37.303</time></trkpt><trkpt lat="56.8373076" lon="53.1314702"><time>2024-11-03T05:52:38.207</time></trkpt><trkpt lat="56.8373086" lon="53.1326119"><time>2024-11-03T05:52:39.223</time></trkpt><trkpt lat="56.8373019" lon="53.1332869"><time>2024-11-03T05:52:40.227</time></trkpt><trkpt lat="56.8372922" lon="53.1337405"><time>2024-11-03T05:52:41.220</time></trkpt><trkpt lat="56.8372941" lon="53.1340526"><time>2024-11-03T05:52:42.220</time></trkpt><trkpt lat="56.8373051" lon="53.1343620"><time>2024-11-03T05:52:43.233</time></trkpt><trkpt lat="56.8373121" lon="53.1345436"><time>2024-11-03T05:52:44.237</time></trkpt><trkpt lat="56.8373223" lon="53.1346324"><time>2024-11-03T05:52:45.237</time></trkpt><trkpt lat="56.8373214" lon="53.1347506"><time>2024-11-03T05:52:47.233</time></trkpt><trkpt lat="56.8372985" lon="53.1348525"><time>2024-11-03T05:52:50.237</time></trkpt><trkpt lat="56.8372566" lon="53.1349064"><time>2024-11-03T05:52:52.240</time></trkpt><trkpt lat="56.8372225" lon="53.1349947"><time>2024-11-03T05:52:54.233</time></trkpt><trkpt lat="56.8371723" lon="53.1350875"><time>2024-11-03T05:52:56.233</time></trkpt><trkpt lat="56.8371416" lon="53.1351827"><time>2024-11-03T05:52:58.247</time></trkpt><trkpt lat="56.8371098" lon="53.1352425"><time>2024-11-03T05:53:00.253</time></trkpt><trkpt lat="56.8370652" lon="53.1352516"><time>2024-11-03T05:53:02.233</time></trkpt><trkpt lat="56.8370068" lon="53.1352483"><time>2024-11-03T05:53:05.237</time></trkpt><trkpt lat="56.8369608" lon="53.1352532"><time>2024-11-03T05:53:07.233</time></trkpt><trkpt lat="56.8369013" lon="53.1352466"><time>2024-11-03T05:53:10.243</time></trkpt><trkpt lat="56.8368520" lon="53.1352417"><time>2024-11-03T05:53:13.243</time></trkpt><trkpt lat="56.8367977" lon="53.1352360"><time>2024-11-03T05:53:16.250</time></trkpt><trkpt lat="56.8369035" lon="53.1351458"><time>2024-11-03T05:53:19.213</time></trkpt><trkpt lat="56.8369014" lon="53.1351394"><time>2024-11-03T05:53:21.233</time></trkpt><trkpt lat="56.8367550" lon="53.1351658"><time>2024-11-03T05:53:22.267</time></trkpt><trkpt lat="56.8368962" lon="53.1351357"><time>2024-11-03T05:53:24.307</time></trkpt><trkpt lat="56.8368940" lon="53.1351382"><time>2024-11-03T05:53:26.327</time></trkpt><trkpt lat="56.8366741" lon="53.1351409"><time>2024-11-03T05:53:27.363</time></trkpt><trkpt lat="56.8368926" lon="53.1351524"><time>2024-11-03T05:53:29.400</time></trkpt><trkpt lat="56.8368921" lon="53.1351493"><time>2024-11-03T05:53:31.430</time></trkpt><trkpt lat="56.8366619" lon="53.1353258"><time>2024-11-03T05:53:32.457</time></trkpt><trkpt lat="56.8368904" lon="53.1351538"><time>2024-11-03T05:53:34.490</time></trkpt><trkpt lat="56.8368821" lon="53.1351596"><time>2024-11-03T05:53:36.520</time></trkpt><trkpt lat="56.8366935" lon="53.1355196"><time>2024-11-03T05:53:37.550</time></trkpt><trkpt lat="56.8368792" lon="53.1352276"><time>2024-11-03T05:53:39.597</time></trkpt><trkpt lat="56.8368364" lon="53.1353317"><time>2024-11-03T05:53:42.543</time></trkpt><trkpt lat="56.8368365" lon="53.1353327"><time>2024-11-03T05:53:44.563</time></trkpt><trkpt lat="56.8365715" lon="53.1357978"><time>2024-11-03T05:53:45.583</time></trkpt><trkpt lat="56.8365177" lon="53.1360362"><time>2024-11-03T05:53:46.587</time></trkpt><trkpt lat="56.8365469" lon="53.1361058"><time>2024-11-03T05:53:51.397</time></trkpt><trkpt lat="56.8365638" lon="53.1361906"><time>2024-11-03T05:53:57.237</time></trkpt><trkpt lat="56.8365646" lon="53.1362830"><time>2024-11-03T05:54:00.243</time></trkpt><trkpt lat="56.8365595" lon="53.1363715"><time>2024-11-03T05:54:02.247</time></trkpt><trkpt lat="56.8365490" lon="53.1364743"><time>2024-11-03T05:54:04.247</time></trkpt><trkpt lat="56.8365440" lon="53.1365809"><time>2024-11-03T05:54:06.257</time></trkpt><trkpt lat="56.8365308" lon="53.1366792"><time>2024-11-03T05:54:08.240</time></trkpt><trkpt lat="56.8365129" lon="53.1367636"><time>2024-11-03T05:54:11.247</time></trkpt><trkpt lat="56.8364854" lon="53.1368357"><time>2024-11-03T05:54:15.243</time></trkpt><trkpt lat="56.8364448" lon="53.1368857"><time>2024-11-03T05:54:18.237</time></trkpt><trkpt lat="56.8364307" lon="53.1369757"><time>2024-11-03T05:54:25.240</time></trkpt><trkpt lat="56.8363913" lon="53.1370222"><time>2024-11-03T05:54:28.253</time></trkpt><trkpt lat="56.8364841" lon="53.1368338"><time>2024-11-03T05:54:30.283</time></trkpt><trkpt lat="56.8364862" lon="53.1368361"><time>2024-11-03T05:54:32.303</time></trkpt><trkpt lat="56.8361397" lon="53.1368977"><time>2024-11-03T05:54:33.330</time></trkpt><trkpt lat="56.8364792" lon="53.1368205"><time>2024-11-03T05:54:36.263</time></trkpt><trkpt lat="56.8364603" lon="53.1368424"><time>2024-11-03T05:54:39.213</time></trkpt><trkpt lat="56.8363347" lon="53.1368403"><time>2024-11-03T05:54:40.233</time></trkpt><trkpt lat="56.8364598" lon="53.1368428"><time>2024-11-03T05:54:42.257</time></trkpt><trkpt lat="56.8364565" lon="53.1368462"><time>2024-11-03T05:54:44.270</time></trkpt><trkpt lat="56.8362444" lon="53.1370359"><time>2024-11-03T05:54:45.307</time></trkpt><trkpt lat="56.8364507" lon="53.1368504"><time>2024-11-03T05:54:47.340</time></trkpt><trkpt lat="56.8364459" lon="53.1368471"><time>2024-11-03T05:54:49.363</time></trkpt><trkpt lat="56.8361620" lon="53.1369542"><time>2024-11-03T05:54:50.397</time></trkpt><trkpt lat="56.8364443" lon="53.1368381"><time>2024-11-03T05:54:52.427</time></trkpt><trkpt lat="56.8364354" lon="53.1368200"><time>2024-11-03T05:54:54.457</time></trkpt><trkpt lat="56.8360262" lon="53.1370378"><time>2024-11-03T05:54:55.490</time></trkpt><trkpt lat="56.8364287" lon="53.1367726"><time>2024-11-03T05:54:57.530</time></trkpt><trkpt lat="56.8364292" lon="53.1367837"><time>2024-11-03T05:54:59.547</time></trkpt><trkpt lat="56.8360285" lon="53.1369265"><time>2024-11-03T05:55:00.583</time></trkpt><trkpt lat="56.8364108" lon="53.1367947"><time>2024-11-03T05:55:02.623</time></trkpt><trkpt lat="56.8364096" lon="53.1368146"><time>2024-11-03T05:55:04.647</time></trkpt><trkpt lat="56.8363170" lon="53.1369864"><time>2024-11-03T05:55:06.677</time></trkpt><trkpt lat="56.8364032" lon="53.1368131"><time>2024-11-03T05:55:08.710</time></trkpt><trkpt lat="56.8363927" lon="53.1368067"><time>2024-11-03T05:55:10.733</time></trkpt><trkpt lat="56.8362371" lon="53.1369238"><time>2024-11-03T05:55:11.763</time></trkpt><trkpt lat="56.8363794" lon="53.1368142"><time>2024-11-03T05:55:13.807</time></trkpt><trkpt lat="56.8363791" lon="53.1368145"><time>2024-11-03T05:55:15.840</time></trkpt><trkpt lat="56.8361931" lon="53.1370561"><time>2024-11-03T05:55:16.870</time></trkpt><trkpt lat="56.8363747" lon="53.1368371"><time>2024-11-03T05:55:18.907</time></trkpt><trkpt lat="56.8363666" lon="53.1368387"><time>2024-11-03T05:55:20.950</time></trkpt><trkpt lat="56.8363495" lon="53.1368569"><time>2024-11-03T05:55:22.977</time></trkpt><trkpt lat="56.8362468" lon="53.1369521"><time>2024-11-03T05:55:23.997</time></trkpt><trkpt lat="56.8360927" lon="53.1371220"><time>2024-11-03T05:55:24.993</time></trkpt><trkpt lat="56.8359023" lon="53.1373089"><time>2024-11-03T05:55:26.060</time></trkpt><trkpt lat="56.8363492" lon="53.1368576"><time>2024-11-03T05:55:28.093</time></trkpt><trkpt lat="56.8363492" lon="53.1368576"><time>2024-11-03T05:55:29.747</time></trkpt><trkpt lat="56.8363457" lon="53.1368569"><time>2024-11-03T05:55:31.010</time></trkpt><trkpt lat="56.8363420" lon="53.1368628"><time>2024-11-03T05:55:33.930</time></trkpt><trkpt lat="56.8360068" lon="53.1369916"><time>2024-11-03T05:55:35.953</time></trkpt><trkpt lat="56.8358774" lon="53.1372618"><time>2024-11-03T05:55:37.957</time></trkpt><trkpt lat="56.8357951" lon="53.1374048"><time>2024-11-03T05:55:38.957</time></trkpt><trkpt lat="56.8357805" lon="53.1374937"><time>2024-11-03T05:55:40.957</time></trkpt><trkpt lat="56.8357531" lon="53.1376047"><time>2024-11-03T05:55:42.960</time></trkpt><trkpt lat="56.8357195" lon="53.1376639"><time>2024-11-03T05:55:44.763</time></trkpt><trkpt lat="56.8356743" lon="53.1376994"><time>2024-11-03T05:55:47.467</time></trkpt><trkpt lat="56.8357074" lon="53.1377767"><time>2024-11-03T05:55:56.233</time></trkpt><trkpt lat="56.8357588" lon="53.1377947"><time>2024-11-03T05:55:59.237</time></trkpt><trkpt lat="56.8357977" lon="53.1378586"><time>2024-11-03T05:56:02.247</time></trkpt><trkpt lat="56.8358448" lon="53.1379184"><time>2024-11-03T05:56:05.237</time></trkpt><trkpt lat="56.8358718" lon="53.1379987"><time>2024-11-03T05:56:08.227</time></trkpt><trkpt lat="56.8359263" lon="53.1380331"><time>2024-11-03T05:56:15.233</time></trkpt><trkpt lat="56.8359702" lon="53.1380708"><time>2024-11-03T05:56:18.247</time></trkpt><trkpt lat="56.8360153" lon="53.1381126"><time>2024-11-03T05:56:21.240</time></trkpt><trkpt lat="56.8360734" lon="53.1381738"><time>2024-11-03T05:56:36.233</time></trkpt><trkpt lat="56.8361288" lon="53.1381919"><time>2024-11-03T05:56:38.237</time></trkpt><trkpt lat="56.8361892" lon="53.1382022"><time>2024-11-03T05:56:40.233</time></trkpt><trkpt lat="56.8362433" lon="53.1382292"><time>2024-11-03T05:56:42.233</time></trkpt><trkpt lat="56.8363011" lon="53.1382562"><time>2024-11-03T05:56:44.233</time></trkpt><trkpt lat="56.8363462" lon="53.1382867"><time>2024-11-03T05:56:46.237</time></trkpt><trkpt lat="56.8364048" lon="53.1383315"><time>2024-11-03T05:56:49.247</time></trkpt><trkpt lat="56.8364523" lon="53.1384086"><time>2024-11-03T05:56:52.247</time></trkpt><trkpt lat="56.8364914" lon="53.1384584"><time>2024-11-03T05:56:54.237</time></trkpt><trkpt lat="56.8365606" lon="53.1384846"><time>2024-11-03T05:56:57.247</time></trkpt><trkpt lat="56.8366203" lon="53.1384789"><time>2024-11-03T05:56:59.250</time></trkpt><trkpt lat="56.8366905" lon="53.1384822"><time>2024-11-03T05:57:01.253</time></trkpt><trkpt lat="56.8367649" lon="53.1385027"><time>2024-11-03T05:57:03.240</time></trkpt><trkpt lat="56.8368138" lon="53.1385519"><time>2024-11-03T05:57:05.233</time></trkpt><trkpt lat="56.8368566" lon="53.1386108"><time>2024-11-03T05:57:07.237</time></trkpt><trkpt lat="56.8368919" lon="53.1386764"><time>2024-11-03T05:57:09.237</time></trkpt><trkpt lat="56.8369224" lon="53.1387763"><time>2024-11-03T05:57:11.250</time></trkpt><trkpt lat="56.8369458" lon="53.1388697"><time>2024-11-03T05:57:13.243</time></trkpt><trkpt lat="56.8369710" lon="53.1389754"><time>2024-11-03T05:57:15.240</time></trkpt><trkpt lat="56.8369904" lon="53.1390713"><time>2024-11-03T05:57:17.243</time></trkpt><trkpt lat="56.8369946" lon="53.1391851"><time>2024-11-03T05:57:19.247</time></trkpt><trkpt lat="56.8369948" lon="53.1393276"><time>2024-11-03T05:57:21.247</time></trkpt><trkpt lat="56.8369858" lon="53.1394169"><time>2024-11-03T05:57:22.243</time></trkpt><trkpt lat="56.8369659" lon="53.1395496"><time>2024-11-03T05:57:24.250</time></trkpt><trkpt lat="56.8369494" lon="53.1396585"><time>2024-11-03T05:57:26.243</time></trkpt><trkpt lat="56.8369520" lon="53.1397413"><time>2024-11-03T05:57:28.240</time></trkpt><trkpt lat="56.8369512" lon="53.1398347"><time>2024-11-03T05:57:31.253</time></trkpt><trkpt lat="56.8369563" lon="53.1399453"><time>2024-11-03T05:57:35.247</time></trkpt><trkpt lat="56.8369653" lon="53.1400403"><time>2024-11-03T05:57:38.247</time></trkpt><trkpt lat="56.8370068" lon="53.1400993"><time>2024-11-03T05:57:42.257</time></trkpt><trkpt lat="56.8369561" lon="53.1398948"><time>2024-11-03T05:57:44.310</time></trkpt><trkpt lat="56.8369563" lon="53.1398959"><time>2024-11-03T05:57:46.340</time></trkpt><trkpt lat="56.8370644" lon="53.1401866"><time>2024-11-03T05:57:47.377</time></trkpt><trkpt lat="56.8369576" lon="53.1398978"><time>2024-11-03T05:57:49.423</time></trkpt><trkpt lat="56.8369589" lon="53.1399067"><time>2024-11-03T05:57:51.467</time></trkpt><trkpt lat="56.8371741" lon="53.1401940"><time>2024-11-03T05:57:52.497</time></trkpt><trkpt lat="56.8369600" lon="53.1399071"><time>2024-11-03T05:57:54.540</time></trkpt><trkpt lat="56.8369612" lon="53.1399081"><time>2024-11-03T05:57:56.573</time></trkpt><trkpt lat="56.8371749" lon="53.1401851"><time>2024-11-03T05:57:57.610</time></trkpt><trkpt lat="56.8369616" lon="53.1399105"><time>2024-11-03T05:57:59.660</time></trkpt><trkpt lat="56.8369618" lon="53.1399105"><time>2024-11-03T05:58:01.697</time></trkpt><trkpt lat="56.8371719" lon="53.1407681"><time>2024-11-03T05:58:02.737</time></trkpt><trkpt lat="56.8369608" lon="53.1399152"><time>2024-11-03T05:58:04.777</time></trkpt><trkpt lat="56.8369600" lon="53.1399202"><time>2024-11-03T05:58:06.807</time></trkpt><trkpt lat="56.8368934" lon="53.1401427"><time>2024-11-03T05:58:07.830</time></trkpt><trkpt lat="56.8369773" lon="53.1402067"><time>2024-11-03T05:58:08.843</time></trkpt><trkpt lat="56.8369597" lon="53.1399229"><time>2024-11-03T05:58:10.893</time></trkpt><trkpt lat="56.8369598" lon="53.1399226"><time>2024-11-03T05:58:12.917</time></trkpt><trkpt lat="56.8373795" lon="53.1394805"><time>2024-11-03T05:58:13.837</time></trkpt><trkpt lat="56.8374648" lon="53.1393892"><time>2024-11-03T05:58:14.827</time></trkpt><trkpt lat="56.8375158" lon="53.1395020"><time>2024-11-03T05:58:15.727</time></trkpt><trkpt lat="56.8375449" lon="53.1395920"><time>2024-11-03T05:58:16.630</time></trkpt><trkpt lat="56.8376223" lon="53.1395924"><time>2024-11-03T05:58:19.450</time></trkpt><trkpt lat="56.8376753" lon="53.1396600"><time>2024-11-03T05:58:21.457</time></trkpt><trkpt lat="56.8377387" lon="53.1397609"><time>2024-11-03T05:58:23.473</time></trkpt><trkpt lat="56.8369614" lon="53.1399266"><time>2024-11-03T05:58:25.520</time></trkpt><trkpt lat="56.8369525" lon="53.1398857"><time>2024-11-03T05:58:28.463</time></trkpt><trkpt lat="56.8371409" lon="53.1403685"><time>2024-11-03T05:58:29.497</time></trkpt><trkpt lat="56.8369522" lon="53.1398886"><time>2024-11-03T05:58:31.543</time></trkpt><trkpt lat="56.8369545" lon="53.1398950"><time>2024-11-03T05:58:34.493</time></trkpt><trkpt lat="56.8369633" lon="53.1400134"><time>2024-11-03T05:58:35.493</time></trkpt><trkpt lat="56.8370215" lon="53.1403730"><time>2024-11-03T05:58:36.403</time></trkpt><trkpt lat="56.8369544" lon="53.1399017"><time>2024-11-03T05:58:38.457</time></trkpt><trkpt lat="56.8369539" lon="53.1399066"><time>2024-11-03T05:58:40.490</time></trkpt><trkpt lat="56.8373486" lon="53.1403060"><time>2024-11-03T05:58:41.513</time></trkpt><trkpt lat="56.8369528" lon="53.1399195"><time>2024-11-03T05:58:43.567</time></trkpt><trkpt lat="56.8369519" lon="53.1398985"><time>2024-11-03T05:58:46.517</time></trkpt><trkpt lat="56.8372864" lon="53.1403668"><time>2024-11-03T05:58:47.547</time></trkpt><trkpt lat="56.8369529" lon="53.1398998"><time>2024-11-03T05:58:49.587</time></trkpt><trkpt lat="56.8369543" lon="53.1399071"><time>2024-11-03T05:58:51.637</time></trkpt><trkpt lat="56.8373221" lon="53.1404418"><time>2024-11-03T05:58:52.663</time></trkpt><trkpt lat="56.8369544" lon="53.1399105"><time>2024-11-03T05:58:54.713</time></trkpt><trkpt lat="56.8369548" lon="53.1399140"><time>2024-11-03T05:58:56.760</time></trkpt><trkpt lat="56.8374187" lon="53.1402158"><time>2024-11-03T05:58:57.790</time></trkpt><trkpt lat="56.8369574" lon="53.1399429"><time>2024-11-03T05:59:00.750</time></trkpt><trkpt lat="56.8369581" lon="53.1399447"><time>2024-11-03T05:59:02.783</time></trkpt><trkpt lat="56.8371509" lon="53.1409138"><time>2024-11-03T05:59:03.823</time></trkpt><trkpt lat="56.8369588" lon="53.1399455"><time>2024-11-03T05:59:05.877</time></trkpt><trkpt lat="56.8369598" lon="53.1399477"><time>2024-11-03T05:59:07.920</time></trkpt><trkpt lat="56.8371047" lon="53.1405509"><time>2024-11-03T05:59:08.943</time></trkpt><trkpt lat="56.8369611" lon="53.1399537"><time>2024-11-03T05:59:10.993</time></trkpt><trkpt lat="56.8369611" lon="53.1399592"><time>2024-11-03T05:59:13.033</time></trkpt><trkpt lat="56.8372467" lon="53.1405010"><time>2024-11-03T05:59:14.060</time></trkpt><trkpt lat="56.8369610" lon="53.1399668"><time>2024-11-03T05:59:16.110</time></trkpt><trkpt lat="56.8369513" lon="53.1398898"><time>2024-11-03T05:59:19.053</time></trkpt><trkpt lat="56.8372989" lon="53.1402002"><time>2024-11-03T05:59:20.080</time></trkpt><trkpt lat="56.8369514" lon="53.1398901"><time>2024-11-03T05:59:22.130</time></trkpt><trkpt lat="56.8369584" lon="53.1399553"><time>2024-11-03T05:59:30.490</time></trkpt><trkpt lat="56.8368521" lon="53.1400790"><time>2024-11-03T05:59:31.510</time></trkpt><trkpt lat="56.8369455" lon="53.1401649"><time>2024-11-03T05:59:32.517</time></trkpt><trkpt lat="56.8369538" lon="53.1399656"><time>2024-11-03T05:59:34.563</time></trkpt><trkpt lat="56.8369538" lon="53.1398869"><time>2024-11-03T05:59:37.513</time></trkpt><trkpt lat="56.8371263" lon="53.1402729"><time>2024-11-03T05:59:38.533</time></trkpt><trkpt lat="56.8369538" lon="53.1398966"><time>2024-11-03T05:59:40.583</time></trkpt><trkpt lat="56.8369541" lon="53.1399025"><time>2024-11-03T05:59:42.630</time></trkpt><trkpt lat="56.8372179" lon="53.1407025"><time>2024-11-03T05:59:43.657</time></trkpt><trkpt lat="56.8369542" lon="53.1399057"><time>2024-11-03T05:59:45.710</time></trkpt><trkpt lat="56.8369545" lon="53.1399088"><time>2024-11-03T05:59:47.763</time></trkpt><trkpt lat="56.8370934" lon="53.1412921"><time>2024-11-03T05:59:48.790</time></trkpt><trkpt lat="56.8383709" lon="53.1426359"><time>2024-11-03T05:59:51.747</time></trkpt><trkpt lat="56.8383769" lon="53.1427039"><time>2024-11-03T05:59:53.800</time></trkpt><trkpt lat="56.8382737" lon="53.1428483"><time>2024-11-03T05:59:54.823</time></trkpt><trkpt lat="56.8381976" lon="53.1429059"><time>2024-11-03T05:59:55.830</time></trkpt><trkpt lat="56.8382670" lon="53.1428764"><time>2024-11-03T05:59:57.887</time></trkpt><trkpt lat="56.8382664" lon="53.1428792"><time>2024-11-03T05:59:59.920</time></trkpt><trkpt lat="56.8382019" lon="53.1429735"><time>2024-11-03T06:00:00.957</time></trkpt><trkpt lat="56.8382662" lon="53.1428788"><time>2024-11-03T06:00:02.997</time></trkpt><trkpt lat="56.8382694" lon="53.1428868"><time>2024-11-03T06:00:05.917</time></trkpt><trkpt lat="56.8382694" lon="53.1428868"><time>2024-11-03T06:00:06.523</time></trkpt><trkpt lat="56.8381788" lon="53.1430860"><time>2024-11-03T06:00:06.947</time></trkpt><trkpt lat="56.8382692" lon="53.1428860"><time>2024-11-03T06:00:08.960</time></trkpt><trkpt lat="56.8381184" lon="53.1427280"><time>2024-11-03T06:00:09.897</time></trkpt><trkpt lat="56.8380298" lon="53.1428607"><time>2024-11-03T06:00:11.903</time></trkpt><trkpt lat="56.8380951" lon="53.1428967"><time>2024-11-03T06:00:19.513</time></trkpt><trkpt lat="56.8381429" lon="53.1429035"><time>2024-11-03T06:00:22.310</time></trkpt><trkpt lat="56.8381588" lon="53.1429943"><time>2024-11-03T06:00:26.243</time></trkpt><trkpt lat="56.8381726" lon="53.1430789"><time>2024-11-03T06:00:32.240</time></trkpt><trkpt lat="56.8381374" lon="53.1431624"><time>2024-11-03T06:00:36.240</time></trkpt><trkpt lat="56.8381507" lon="53.1432550"><time>2024-11-03T06:00:39.250</time></trkpt><trkpt lat="56.8381566" lon="53.1433599"><time>2024-11-03T06:00:42.247</time></trkpt><trkpt lat="56.8381666" lon="53.1434426"><time>2024-11-03T06:00:44.250</time></trkpt><trkpt lat="56.8381647" lon="53.1435327"><time>2024-11-03T06:00:47.237</time></trkpt><trkpt lat="56.8381575" lon="53.1436359"><time>2024-11-03T06:00:50.243</time></trkpt><trkpt lat="56.8381503" lon="53.1437465"><time>2024-11-03T06:00:53.250</time></trkpt><trkpt lat="56.8381543" lon="53.1438621"><time>2024-11-03T06:00:56.250</time></trkpt><trkpt lat="56.8381454" lon="53.1439538"><time>2024-11-03T06:00:59.250</time></trkpt><trkpt lat="56.8381289" lon="53.1440447"><time>2024-11-03T06:01:03.250</time></trkpt><trkpt lat="56.8381240" lon="53.1441266"><time>2024-11-03T06:01:05.250</time></trkpt><trkpt lat="56.8381131" lon="53.1442184"><time>2024-11-03T06:01:07.250</time></trkpt><trkpt lat="56.8381053" lon="53.1443060"><time>2024-11-03T06:01:09.260</time></trkpt><trkpt lat="56.8380873" lon="53.1444043"><time>2024-11-03T06:01:11.267</time></trkpt><trkpt lat="56.8380650" lon="53.1445043"><time>2024-11-03T06:01:13.250</time></trkpt><trkpt lat="56.8380315" lon="53.1445993"><time>2024-11-03T06:01:15.247</time></trkpt><trkpt lat="56.8379926" lon="53.1446992"><time>2024-11-03T06:01:17.253</time></trkpt><trkpt lat="56.8379549" lon="53.1447885"><time>2024-11-03T06:01:19.260</time></trkpt><trkpt lat="56.8379252" lon="53.1448802"><time>2024-11-03T06:01:21.250</time></trkpt><trkpt lat="56.8378930" lon="53.1449793"><time>2024-11-03T06:01:23.257</time></trkpt><trkpt lat="56.8378563" lon="53.1450932"><time>2024-11-03T06:01:25.247</time></trkpt><trkpt lat="56.8377928" lon="53.1452250"><time>2024-11-03T06:01:27.253</time></trkpt><trkpt lat="56.8377604" lon="53.1452955"><time>2024-11-03T06:01:28.257</time></trkpt><trkpt lat="56.8377301" lon="53.1453585"><time>2024-11-03T06:01:29.250</time></trkpt><trkpt lat="56.8376748" lon="53.1454658"><time>2024-11-03T06:01:31.257</time></trkpt><trkpt lat="56.8376328" lon="53.1455502"><time>2024-11-03T06:01:33.253</time></trkpt><trkpt lat="56.8375987" lon="53.1456313"><time>2024-11-03T06:01:36.273</time></trkpt><trkpt lat="56.8375676" lon="53.1457132"><time>2024-11-03T06:01:38.267</time></trkpt><trkpt lat="56.8375315" lon="53.1458073"><time>2024-11-03T06:01:40.283</time></trkpt><trkpt lat="56.8374856" lon="53.1459204"><time>2024-11-03T06:01:42.267</time></trkpt><trkpt lat="56.8374344" lon="53.1460448"><time>2024-11-03T06:01:44.253</time></trkpt><trkpt lat="56.8373962" lon="53.1461390"><time>2024-11-03T06:01:46.253</time></trkpt><trkpt lat="56.8373663" lon="53.1462037"><time>2024-11-03T06:01:48.247</time></trkpt><trkpt lat="56.8373417" lon="53.1462914"><time>2024-11-03T06:01:51.247</time></trkpt><trkpt lat="56.8373184" lon="53.1463749"><time>2024-11-03T06:01:53.267</time></trkpt><trkpt lat="56.8372913" lon="53.1464544"><time>2024-11-03T06:01:55.263</time></trkpt><trkpt lat="56.8372623" lon="53.1465420"><time>2024-11-03T06:01:57.250</time></trkpt><trkpt lat="56.8372359" lon="53.1466305"><time>2024-11-03T06:01:59.253</time></trkpt><trkpt lat="56.8372099" lon="53.1467132"><time>2024-11-03T06:02:01.267</time></trkpt><trkpt lat="56.8371734" lon="53.1467926"><time>2024-11-03T06:02:04.267</time></trkpt><trkpt lat="56.8371329" lon="53.1468671"><time>2024-11-03T06:02:07.257</time></trkpt><trkpt lat="56.8370954" lon="53.1469646"><time>2024-11-03T06:02:10.260</time></trkpt><trkpt lat="56.8370623" lon="53.1470408"><time>2024-11-03T06:02:12.263</time></trkpt><trkpt lat="56.8370276" lon="53.1471194"><time>2024-11-03T06:02:14.260</time></trkpt><trkpt lat="56.8369945" lon="53.1471882"><time>2024-11-03T06:02:16.247</time></trkpt><trkpt lat="56.8369585" lon="53.1472758"><time>2024-11-03T06:02:18.260</time></trkpt><trkpt lat="56.8369248" lon="53.1473495"><time>2024-11-03T06:02:20.257</time></trkpt><trkpt lat="56.8368881" lon="53.1474355"><time>2024-11-03T06:02:23.253</time></trkpt><trkpt lat="56.8368566" lon="53.1475027"><time>2024-11-03T06:02:25.257</time></trkpt><trkpt lat="56.8368178" lon="53.1476034"><time>2024-11-03T06:02:28.270</time></trkpt><trkpt lat="56.8367836" lon="53.1476894"><time>2024-11-03T06:02:30.260</time></trkpt><trkpt lat="56.8367461" lon="53.1477795"><time>2024-11-03T06:02:32.260</time></trkpt><trkpt lat="56.8367078" lon="53.1478729"><time>2024-11-03T06:02:35.263</time></trkpt><trkpt lat="56.8366745" lon="53.1479409"><time>2024-11-03T06:02:38.267</time></trkpt><trkpt lat="56.8366473" lon="53.1480203"><time>2024-11-03T06:02:41.267</time></trkpt><trkpt lat="56.8366259" lon="53.1480957"><time>2024-11-03T06:02:44.253</time></trkpt><trkpt lat="56.8365981" lon="53.1481669"><time>2024-11-03T06:02:47.250</time></trkpt><trkpt lat="56.8365693" lon="53.1482349"><time>2024-11-03T06:02:50.253</time></trkpt><trkpt lat="56.8365486" lon="53.1483397"><time>2024-11-03T06:02:53.247</time></trkpt><trkpt lat="56.8365320" lon="53.1484429"><time>2024-11-03T06:02:57.253</time></trkpt><trkpt lat="56.8364943" lon="53.1485060"><time>2024-11-03T06:03:00.247</time></trkpt><trkpt lat="56.8364526" lon="53.1485788"><time>2024-11-03T06:03:03.257</time></trkpt><trkpt lat="56.8364268" lon="53.1486493"><time>2024-11-03T06:03:05.260</time></trkpt><trkpt lat="56.8363895" lon="53.1487681"><time>2024-11-03T06:03:08.267</time></trkpt><trkpt lat="56.8363533" lon="53.1488491"><time>2024-11-03T06:03:11.260</time></trkpt><trkpt lat="56.8363450" lon="53.1489491"><time>2024-11-03T06:03:15.257</time></trkpt><trkpt lat="56.8363613" lon="53.1490646"><time>2024-11-03T06:03:18.260</time></trkpt><trkpt lat="56.8363794" lon="53.1491506"><time>2024-11-03T06:03:20.260</time></trkpt><trkpt lat="56.8364019" lon="53.1492292"><time>2024-11-03T06:03:22.267</time></trkpt><trkpt lat="56.8364247" lon="53.1493218"><time>2024-11-03T06:03:24.283</time></trkpt><trkpt lat="56.8364416" lon="53.1494046"><time>2024-11-03T06:03:26.267</time></trkpt><trkpt lat="56.8364746" lon="53.1495062"><time>2024-11-03T06:03:29.267</time></trkpt><trkpt lat="56.8364999" lon="53.1495865"><time>2024-11-03T06:03:31.263</time></trkpt><trkpt lat="56.8365153" lon="53.1496791"><time>2024-11-03T06:03:33.260</time></trkpt><trkpt lat="56.8365230" lon="53.1497699"><time>2024-11-03T06:03:36.277</time></trkpt><trkpt lat="56.8365330" lon="53.1498601"><time>2024-11-03T06:03:38.270</time></trkpt><trkpt lat="56.8365364" lon="53.1499649"><time>2024-11-03T06:03:40.267</time></trkpt><trkpt lat="56.8365215" lon="53.1500853"><time>2024-11-03T06:03:42.273</time></trkpt><trkpt lat="56.8365088" lon="53.1502041"><time>2024-11-03T06:03:44.263</time></trkpt><trkpt lat="56.8364826" lon="53.1503048"><time>2024-11-03T06:03:46.267</time></trkpt><trkpt lat="56.8364438" lon="53.1503621"><time>2024-11-03T06:03:48.270</time></trkpt><trkpt lat="56.8364036" lon="53.1504252"><time>2024-11-03T06:03:52.280</time></trkpt><trkpt lat="56.8363539" lon="53.1505021"><time>2024-11-03T06:03:56.263</time></trkpt><trkpt lat="56.8363164" lon="53.1505587"><time>2024-11-03T06:03:58.297</time></trkpt><trkpt lat="56.8362689" lon="53.1506275"><time>2024-11-03T06:04:01.263</time></trkpt><trkpt lat="56.8362157" lon="53.1506995"><time>2024-11-03T06:04:04.267</time></trkpt><trkpt lat="56.8361765" lon="53.1507576"><time>2024-11-03T06:04:06.257</time></trkpt><trkpt lat="56.8361446" lon="53.1508223"><time>2024-11-03T06:04:08.280</time></trkpt><trkpt lat="56.8360990" lon="53.1508755"><time>2024-11-03T06:04:10.260</time></trkpt><trkpt lat="56.8360489" lon="53.1509361"><time>2024-11-03T06:04:12.263</time></trkpt><trkpt lat="56.8360015" lon="53.1509975"><time>2024-11-03T06:04:14.277</time></trkpt><trkpt lat="56.8359346" lon="53.1510835"><time>2024-11-03T06:04:16.263</time></trkpt><trkpt lat="56.8358690" lon="53.1511924"><time>2024-11-03T06:04:18.283</time></trkpt><trkpt lat="56.8358192" lon="53.1512595"><time>2024-11-03T06:04:20.270</time></trkpt><trkpt lat="56.8357817" lon="53.1513086"><time>2024-11-03T06:04:22.267</time></trkpt><trkpt lat="56.8357384" lon="53.1513553"><time>2024-11-03T06:04:25.270</time></trkpt><trkpt lat="56.8356917" lon="53.1514405"><time>2024-11-03T06:04:28.273</time></trkpt><trkpt lat="56.8356529" lon="53.1515133"><time>2024-11-03T06:04:30.277</time></trkpt><trkpt lat="56.8356200" lon="53.1515756"><time>2024-11-03T06:04:32.267</time></trkpt><trkpt lat="56.8355835" lon="53.1516345"><time>2024-11-03T06:04:34.277</time></trkpt><trkpt lat="56.8355428" lon="53.1517156"><time>2024-11-03T06:04:37.277</time></trkpt><trkpt lat="56.8355114" lon="53.1517754"><time>2024-11-03T06:04:40.273</time></trkpt><trkpt lat="56.8354756" lon="53.1518433"><time>2024-11-03T06:04:43.270</time></trkpt><trkpt lat="56.8354479" lon="53.1519146"><time>2024-11-03T06:04:46.267</time></trkpt><trkpt lat="56.8354053" lon="53.1519981"><time>2024-11-03T06:04:49.267</time></trkpt><trkpt lat="56.8353652" lon="53.1520890"><time>2024-11-03T06:04:52.263</time></trkpt><trkpt lat="56.8353299" lon="53.1521521"><time>2024-11-03T06:04:54.263</time></trkpt><trkpt lat="56.8352857" lon="53.1522167"><time>2024-11-03T06:04:58.270</time></trkpt><trkpt lat="56.8352449" lon="53.1522995"><time>2024-11-03T06:05:02.267</time></trkpt><trkpt lat="56.8356526" lon="53.1515159"><time>2024-11-03T06:05:04.330</time></trkpt><trkpt lat="56.8356525" lon="53.1515213"><time>2024-11-03T06:05:06.390</time></trkpt><trkpt lat="56.8355569" lon="53.1516886"><time>2024-11-03T06:05:07.413</time></trkpt><trkpt lat="56.8353070" lon="53.1520377"><time>2024-11-03T06:05:08.417</time></trkpt><trkpt lat="56.8351021" lon="53.1523356"><time>2024-11-03T06:05:09.427</time></trkpt><trkpt lat="56.8356492" lon="53.1515388"><time>2024-11-03T06:05:11.507</time></trkpt><trkpt lat="56.8356491" lon="53.1515388"><time>2024-11-03T06:05:13.567</time></trkpt><trkpt lat="56.8352071" lon="53.1526187"><time>2024-11-03T06:05:14.610</time></trkpt><trkpt lat="56.8356475" lon="53.1515511"><time>2024-11-03T06:05:16.687</time></trkpt><trkpt lat="56.8356492" lon="53.1515612"><time>2024-11-03T06:05:18.730</time></trkpt><trkpt lat="56.8352938" lon="53.1520255"><time>2024-11-03T06:05:19.770</time></trkpt><trkpt lat="56.8351447" lon="53.1522562"><time>2024-11-03T06:05:20.777</time></trkpt><trkpt lat="56.8356497" lon="53.1515825"><time>2024-11-03T06:05:22.843</time></trkpt><trkpt lat="56.8356498" lon="53.1515850"><time>2024-11-03T06:05:24.897</time></trkpt><trkpt lat="56.8351553" lon="53.1519358"><time>2024-11-03T06:05:25.937</time></trkpt><trkpt lat="56.8356487" lon="53.1515876"><time>2024-11-03T06:05:27.997</time></trkpt><trkpt lat="56.8356468" lon="53.1515857"><time>2024-11-03T06:05:30.957</time></trkpt><trkpt lat="56.8356059" lon="53.1516254"><time>2024-11-03T06:05:32.963</time></trkpt><trkpt lat="56.8355588" lon="53.1516638"><time>2024-11-03T06:05:34.970</time></trkpt><trkpt lat="56.8355037" lon="53.1517115"><time>2024-11-03T06:05:36.967</time></trkpt><trkpt lat="56.8354263" lon="53.1518080"><time>2024-11-03T06:05:38.973</time></trkpt><trkpt lat="56.8353800" lon="53.1518786"><time>2024-11-03T06:05:39.970</time></trkpt><trkpt lat="56.8353262" lon="53.1519435"><time>2024-11-03T06:05:40.870</time></trkpt><trkpt lat="56.8352779" lon="53.1520013"><time>2024-11-03T06:05:41.777</time></trkpt><trkpt lat="56.8352400" lon="53.1520584"><time>2024-11-03T06:05:42.687</time></trkpt><trkpt lat="56.8351734" lon="53.1521580"><time>2024-11-03T06:05:44.493</time></trkpt><trkpt lat="56.8356493" lon="53.1516227"><time>2024-11-03T06:05:46.557</time></trkpt><trkpt lat="56.8356418" lon="53.1516333"><time>2024-11-03T06:05:48.623</time></trkpt><trkpt lat="56.8354589" lon="53.1518052"><time>2024-11-03T06:05:49.640</time></trkpt><trkpt lat="56.8353155" lon="53.1519867"><time>2024-11-03T06:05:50.633</time></trkpt><trkpt lat="56.8352135" lon="53.1521380"><time>2024-11-03T06:05:51.647</time></trkpt><trkpt lat="56.8356366" lon="53.1516483"><time>2024-11-03T06:05:54.627</time></trkpt><trkpt lat="56.8356383" lon="53.1516586"><time>2024-11-03T06:05:56.687</time></trkpt><trkpt lat="56.8355907" lon="53.1517808"><time>2024-11-03T06:05:58.700</time></trkpt><trkpt lat="56.8350798" lon="53.1526175"><time>2024-11-03T06:05:59.730</time></trkpt><trkpt lat="56.8356311" lon="53.1516498"><time>2024-11-03T06:06:01.787</time></trkpt><trkpt lat="56.8356297" lon="53.1516512"><time>2024-11-03T06:06:03.837</time></trkpt><trkpt lat="56.8353607" lon="53.1519842"><time>2024-11-03T06:06:04.867</time></trkpt><trkpt lat="56.8353275" lon="53.1520601"><time>2024-11-03T06:06:05.853</time></trkpt><trkpt lat="56.8352548" lon="53.1524045"><time>2024-11-03T06:06:06.877</time></trkpt><trkpt lat="56.8356296" lon="53.1516549"><time>2024-11-03T06:06:08.953</time></trkpt><trkpt lat="56.8356274" lon="53.1516683"><time>2024-11-03T06:06:11.010</time></trkpt><trkpt lat="56.8354851" lon="53.1518958"><time>2024-11-03T06:06:12.037</time></trkpt><trkpt lat="56.8354026" lon="53.1521116"><time>2024-11-03T06:06:13.037</time></trkpt><trkpt lat="56.8353047" lon="53.1523079"><time>2024-11-03T06:06:14.037</time></trkpt><trkpt lat="56.8352314" lon="53.1523770"><time>2024-11-03T06:06:15.043</time></trkpt><trkpt lat="56.8356239" lon="53.1516750"><time>2024-11-03T06:06:17.110</time></trkpt><trkpt lat="56.8356239" lon="53.1516764"><time>2024-11-03T06:06:20.070</time></trkpt><trkpt lat="56.8354000" lon="53.1520490"><time>2024-11-03T06:06:21.097</time></trkpt><trkpt lat="56.8352235" lon="53.1521410"><time>2024-11-03T06:06:22.090</time></trkpt><trkpt lat="56.8350341" lon="53.1522565"><time>2024-11-03T06:06:23.093</time></trkpt><trkpt lat="56.8356232" lon="53.1516835"><time>2024-11-03T06:06:25.143</time></trkpt><trkpt lat="56.8356229" lon="53.1516835"><time>2024-11-03T06:06:27.187</time></trkpt><trkpt lat="56.8354807" lon="53.1523936"><time>2024-11-03T06:06:28.110</time></trkpt><trkpt lat="56.8354432" lon="53.1526978"><time>2024-11-03T06:06:30.113</time></trkpt><trkpt lat="56.8354045" lon="53.1527397"><time>2024-11-03T06:06:33.130</time></trkpt><trkpt lat="56.8352047" lon="53.1529133"><time>2024-11-03T06:06:35.147</time></trkpt><trkpt lat="56.8335743" lon="53.1535254"><time>2024-11-03T06:06:38.117</time></trkpt><trkpt lat="56.8335743" lon="53.1535254"><time>2024-11-03T06:06:38.143</time></trkpt><trkpt lat="56.8335496" lon="53.1534465"><time>2024-11-03T06:06:40.173</time></trkpt><trkpt lat="56.8335509" lon="53.1534435"><time>2024-11-03T06:06:42.233</time></trkpt><trkpt lat="56.8335359" lon="53.1533296"><time>2024-11-03T06:06:43.260</time></trkpt><trkpt lat="56.8334770" lon="53.1533486"><time>2024-11-03T06:06:46.263</time></trkpt><trkpt lat="56.8334298" lon="53.1534030"><time>2024-11-03T06:06:53.240</time></trkpt><trkpt lat="56.8334736" lon="53.1534386"><time>2024-11-03T06:07:13.247</time></trkpt><trkpt lat="56.8334275" lon="53.1534091"><time>2024-11-03T06:07:23.257</time></trkpt><trkpt lat="56.8333968" lon="53.1533271"><time>2024-11-03T06:07:27.260</time></trkpt><trkpt lat="56.8333796" lon="53.1532427"><time>2024-11-03T06:07:34.270</time></trkpt><trkpt lat="56.8333403" lon="53.1531772"><time>2024-11-03T06:07:39.273</time></trkpt><trkpt lat="56.8333017" lon="53.1531223"><time>2024-11-03T06:07:43.287</time></trkpt><trkpt lat="56.8332459" lon="53.1530862"><time>2024-11-03T06:07:47.277</time></trkpt><trkpt lat="56.8331927" lon="53.1530616"><time>2024-11-03T06:07:51.277</time></trkpt><trkpt lat="56.8331622" lon="53.1529953"><time>2024-11-03T06:07:54.263</time></trkpt><trkpt lat="56.8331046" lon="53.1529322"><time>2024-11-03T06:07:57.267</time></trkpt><trkpt lat="56.8330587" lon="53.1529092"><time>2024-11-03T06:07:59.267</time></trkpt><trkpt lat="56.8330107" lon="53.1529215"><time>2024-11-03T06:08:01.273</time></trkpt><trkpt lat="56.8329627" lon="53.1529132"><time>2024-11-03T06:08:03.267</time></trkpt><trkpt lat="56.8329140" lon="53.1529034"><time>2024-11-03T06:08:05.260</time></trkpt><trkpt lat="56.8328730" lon="53.1528673"><time>2024-11-03T06:08:07.267</time></trkpt><trkpt lat="56.8328276" lon="53.1528190"><time>2024-11-03T06:08:09.267</time></trkpt><trkpt lat="56.8327836" lon="53.1527747"><time>2024-11-03T06:08:11.287</time></trkpt><trkpt lat="56.8327416" lon="53.1527157"><time>2024-11-03T06:08:14.277</time></trkpt><trkpt lat="56.8327038" lon="53.1526477"><time>2024-11-03T06:08:17.277</time></trkpt><trkpt lat="56.8327679" lon="53.1527604"><time>2024-11-03T06:08:19.337</time></trkpt><trkpt lat="56.8327780" lon="53.1526472"><time>2024-11-03T06:08:21.400</time></trkpt><trkpt lat="56.8327360" lon="53.1525173"><time>2024-11-03T06:08:22.440</time></trkpt><trkpt lat="56.8327255" lon="53.1526405"><time>2024-11-03T06:08:24.517</time></trkpt><trkpt lat="56.8327137" lon="53.1526442"><time>2024-11-03T06:08:26.583</time></trkpt><trkpt lat="56.8325705" lon="53.1524767"><time>2024-11-03T06:08:27.610</time></trkpt><trkpt lat="56.8327102" lon="53.1526275"><time>2024-11-03T06:08:29.657</time></trkpt><trkpt lat="56.8327613" lon="53.1524388"><time>2024-11-03T06:08:30.680</time></trkpt><trkpt lat="56.8326749" lon="53.1522668"><time>2024-11-03T06:08:31.687</time></trkpt><trkpt lat="56.8325726" lon="53.1522385"><time>2024-11-03T06:08:32.690</time></trkpt><trkpt lat="56.8324907" lon="53.1522342"><time>2024-11-03T06:08:33.690</time></trkpt><trkpt lat="56.8324261" lon="53.1522439"><time>2024-11-03T06:08:34.697</time></trkpt><trkpt lat="56.8323816" lon="53.1522603"><time>2024-11-03T06:08:35.697</time></trkpt><trkpt lat="56.8323244" lon="53.1522941"><time>2024-11-03T06:08:37.693</time></trkpt><trkpt lat="56.8322752" lon="53.1523070"><time>2024-11-03T06:08:43.713</time></trkpt><trkpt lat="56.8322326" lon="53.1522805"><time>2024-11-03T06:08:57.257</time></trkpt><trkpt lat="56.8322496" lon="53.1521888"><time>2024-11-03T06:09:02.260</time></trkpt><trkpt lat="56.8322602" lon="53.1521069"><time>2024-11-03T06:09:06.267</time></trkpt><trkpt lat="56.8322572" lon="53.1520222"><time>2024-11-03T06:09:09.253</time></trkpt><trkpt lat="56.8322619" lon="53.1519403"><time>2024-11-03T06:09:13.257</time></trkpt><trkpt lat="56.8322631" lon="53.1518448"><time>2024-11-03T06:09:16.253</time></trkpt><trkpt lat="56.8322304" lon="53.1517439"><time>2024-11-03T06:09:20.253</time></trkpt><trkpt lat="56.8322200" lon="53.1516377"><time>2024-11-03T06:09:23.237</time></trkpt><trkpt lat="56.8321872" lon="53.1515347"><time>2024-11-03T06:09:26.250</time></trkpt><trkpt lat="56.8321594" lon="53.1514632"><time>2024-11-03T06:09:28.247</time></trkpt><trkpt lat="56.8321260" lon="53.1513771"><time>2024-11-03T06:09:31.263</time></trkpt><trkpt lat="56.8321534" lon="53.1514268"><time>2024-11-03T06:09:33.307</time></trkpt><trkpt lat="56.8321435" lon="53.1514304"><time>2024-11-03T06:09:36.250</time></trkpt><trkpt lat="56.8321430" lon="53.1510442"><time>2024-11-03T06:09:37.287</time></trkpt><trkpt lat="56.8321436" lon="53.1514301"><time>2024-11-03T06:09:39.340</time></trkpt><trkpt lat="56.8321521" lon="53.1513874"><time>2024-11-03T06:09:43.223</time></trkpt><trkpt lat="56.8322191" lon="53.1511837"><time>2024-11-03T06:09:44.253</time></trkpt><trkpt lat="56.8321492" lon="53.1513803"><time>2024-11-03T06:09:46.297</time></trkpt><trkpt lat="56.8321493" lon="53.1513697"><time>2024-11-03T06:09:48.347</time></trkpt><trkpt lat="56.8320278" lon="53.1507314"><time>2024-11-03T06:09:49.380</time></trkpt><trkpt lat="56.8321310" lon="53.1513663"><time>2024-11-03T06:09:51.430</time></trkpt><trkpt lat="56.8320645" lon="53.1512274"><time>2024-11-03T06:09:52.447</time></trkpt><trkpt lat="56.8319718" lon="53.1506632"><time>2024-11-03T06:09:53.463</time></trkpt><trkpt lat="56.8319311" lon="53.1504687"><time>2024-11-03T06:09:54.460</time></trkpt><trkpt lat="56.8318865" lon="53.1503209"><time>2024-11-03T06:09:55.477</time></trkpt><trkpt lat="56.8321392" lon="53.1513360"><time>2024-11-03T06:09:57.533</time></trkpt><trkpt lat="56.8321390" lon="53.1513358"><time>2024-11-03T06:09:59.577</time></trkpt><trkpt lat="56.8319384" lon="53.1507939"><time>2024-11-03T06:10:00.617</time></trkpt><trkpt lat="56.8318104" lon="53.1504531"><time>2024-11-03T06:10:01.620</time></trkpt><trkpt lat="56.8321360" lon="53.1513317"><time>2024-11-03T06:10:03.680</time></trkpt><trkpt lat="56.8321342" lon="53.1513287"><time>2024-11-03T06:10:05.737</time></trkpt><trkpt lat="56.8320897" lon="53.1510439"><time>2024-11-03T06:10:06.757</time></trkpt><trkpt lat="56.8320470" lon="53.1507892"><time>2024-11-03T06:10:07.743</time></trkpt><trkpt lat="56.8319828" lon="53.1506718"><time>2024-11-03T06:10:08.750</time></trkpt><trkpt lat="56.8317561" lon="53.1504896"><time>2024-11-03T06:10:09.770</time></trkpt><trkpt lat="56.8321330" lon="53.1513271"><time>2024-11-03T06:10:11.817</time></trkpt><trkpt lat="56.8321330" lon="53.1513261"><time>2024-11-03T06:10:13.873</time></trkpt><trkpt lat="56.8316366" lon="53.1505598"><time>2024-11-03T06:10:14.920</time></trkpt><trkpt lat="56.8321327" lon="53.1513267"><time>2024-11-03T06:10:17.120</time></trkpt><trkpt lat="56.8321322" lon="53.1513262"><time>2024-11-03T06:10:21.887</time></trkpt><trkpt lat="56.8320717" lon="53.1508882"><time>2024-11-03T06:10:22.887</time></trkpt><trkpt lat="56.8319344" lon="53.1507046"><time>2024-11-03T06:10:23.887</time></trkpt><trkpt lat="56.8316997" lon="53.1505060"><time>2024-11-03T06:10:24.903</time></trkpt><trkpt lat="56.8321314" lon="53.1513248"><time>2024-11-03T06:10:28.743</time></trkpt><trkpt lat="56.8321312" lon="53.1513254"><time>2024-11-03T06:10:30.947</time></trkpt><trkpt lat="56.8319284" lon="53.1510209"><time>2024-11-03T06:10:31.790</time></trkpt><trkpt lat="56.8318476" lon="53.1509161"><time>2024-11-03T06:10:32.790</time></trkpt><trkpt lat="56.8317331" lon="53.1506496"><time>2024-11-03T06:10:33.957</time></trkpt><trkpt lat="56.8321444" lon="53.1514231"><time>2024-11-03T06:10:38.707</time></trkpt><trkpt lat="56.8321442" lon="53.1514235"><time>2024-11-03T06:10:41.643</time></trkpt><trkpt lat="56.8320967" lon="53.1503686"><time>2024-11-03T06:10:42.633</time></trkpt><trkpt lat="56.8321436" lon="53.1514226"><time>2024-11-03T06:10:45.607</time></trkpt><trkpt lat="56.8321473" lon="53.1514363"><time>2024-11-03T06:10:49.437</time></trkpt><trkpt lat="56.8322114" lon="53.1502922"><time>2024-11-03T06:10:50.467</time></trkpt><trkpt lat="56.8321477" lon="53.1514345"><time>2024-11-03T06:10:57.220</time></trkpt><trkpt lat="56.8321427" lon="53.1514192"><time>2024-11-03T06:11:00.207</time></trkpt><trkpt lat="56.8321242" lon="53.1512724"><time>2024-11-03T06:11:01.247</time></trkpt><trkpt lat="56.8321421" lon="53.1514186"><time>2024-11-03T06:11:03.310</time></trkpt><trkpt lat="56.8321405" lon="53.1514161"><time>2024-11-03T06:11:05.363</time></trkpt><trkpt lat="56.8320866" lon="53.1509613"><time>2024-11-03T06:11:06.397</time></trkpt><trkpt lat="56.8321400" lon="53.1514116"><time>2024-11-03T06:11:09.367</time></trkpt><trkpt lat="56.8321396" lon="53.1514119"><time>2024-11-03T06:11:11.400</time></trkpt><trkpt lat="56.8319350" lon="53.1508960"><time>2024-11-03T06:11:12.437</time></trkpt><trkpt lat="56.8321381" lon="53.1514139"><time>2024-11-03T06:11:14.483</time></trkpt><trkpt lat="56.8321463" lon="53.1514324"><time>2024-11-03T06:11:17.447</time></trkpt><trkpt lat="56.8319144" lon="53.1511355"><time>2024-11-03T06:11:18.483</time></trkpt><trkpt lat="56.8321401" lon="53.1514268"><time>2024-11-03T06:11:20.543</time></trkpt><trkpt lat="56.8321373" lon="53.1514203"><time>2024-11-03T06:11:22.587</time></trkpt><trkpt lat="56.8320034" lon="53.1514544"><time>2024-11-03T06:11:23.617</time></trkpt><trkpt lat="56.8321371" lon="53.1514167"><time>2024-11-03T06:11:26.583</time></trkpt><trkpt lat="56.8321457" lon="53.1514341"><time>2024-11-03T06:11:29.527</time></trkpt><trkpt lat="56.8320825" lon="53.1514383"><time>2024-11-03T06:11:30.557</time></trkpt><trkpt lat="56.8321441" lon="53.1514336"><time>2024-11-03T06:11:32.610</time></trkpt><trkpt lat="56.8321433" lon="53.1514320"><time>2024-11-03T06:11:34.657</time></trkpt><trkpt lat="56.8312150" lon="53.1520235"><time>2024-11-03T06:11:35.680</time></trkpt><trkpt lat="56.8311353" lon="53.1520667"><time>2024-11-03T06:11:36.670</time></trkpt><trkpt lat="56.8310745" lon="53.1520544"><time>2024-11-03T06:11:38.570</time></trkpt><trkpt lat="56.8311167" lon="53.1518516"><time>2024-11-03T06:11:40.373</time></trkpt><trkpt lat="56.8312822" lon="53.1515042"><time>2024-11-03T06:11:41.390</time></trkpt><trkpt lat="56.8321475" lon="53.1514357"><time>2024-11-03T06:11:44.343</time></trkpt><trkpt lat="56.8321478" lon="53.1514313"><time>2024-11-03T06:11:46.390</time></trkpt><trkpt lat="56.8319442" lon="53.1512530"><time>2024-11-03T06:11:47.417</time></trkpt><trkpt lat="56.8321477" lon="53.1514311"><time>2024-11-03T06:11:49.473</time></trkpt><trkpt lat="56.8321490" lon="53.1514250"><time>2024-11-03T06:11:51.517</time></trkpt><trkpt lat="56.8318611" lon="53.1503759"><time>2024-11-03T06:11:52.557</time></trkpt><trkpt lat="56.8321505" lon="53.1514017"><time>2024-11-03T06:11:55.517</time></trkpt><trkpt lat="56.8321493" lon="53.1513993"><time>2024-11-03T06:11:57.547</time></trkpt><trkpt lat="56.8320672" lon="53.1513070"><time>2024-11-03T06:11:58.463</time></trkpt><trkpt lat="56.8321515" lon="53.1513955"><time>2024-11-03T06:12:01.413</time></trkpt><trkpt lat="56.8321516" lon="53.1513915"><time>2024-11-03T06:12:03.450</time></trkpt><trkpt lat="56.8317557" lon="53.1513009"><time>2024-11-03T06:12:04.377</time></trkpt><trkpt lat="56.8321537" lon="53.1513600"><time>2024-11-03T06:12:07.327</time></trkpt><trkpt lat="56.8321476" lon="53.1513764"><time>2024-11-03T06:12:11.217</time></trkpt><trkpt lat="56.8321044" lon="53.1510573"><time>2024-11-03T06:12:12.253</time></trkpt><trkpt lat="56.8321473" lon="53.1513715"><time>2024-11-03T06:12:14.310</time></trkpt><trkpt lat="56.8321498" lon="53.1513644"><time>2024-11-03T06:12:16.363</time></trkpt><trkpt lat="56.8321824" lon="53.1513014"><time>2024-11-03T06:12:17.367</time></trkpt><trkpt lat="56.8321764" lon="53.1510129"><time>2024-11-03T06:12:18.280</time></trkpt><trkpt lat="56.8321504" lon="53.1513584"><time>2024-11-03T06:12:20.330</time></trkpt><trkpt lat="56.8321493" lon="53.1513451"><time>2024-11-03T06:12:22.390</time></trkpt><trkpt lat="56.8321500" lon="53.1513439"><time>2024-11-03T06:12:24.423</time></trkpt><trkpt lat="56.8320250" lon="53.1492365"><time>2024-11-03T06:12:25.357</time></trkpt><trkpt lat="56.8319709" lon="53.1491191"><time>2024-11-03T06:12:26.363</time></trkpt><trkpt lat="56.8319328" lon="53.1490582"><time>2024-11-03T06:12:28.377</time></trkpt><trkpt lat="56.8318950" lon="53.1489725"><time>2024-11-03T06:12:31.373</time></trkpt><trkpt lat="56.8318801" lon="53.1488853"><time>2024-11-03T06:12:34.373</time></trkpt><trkpt lat="56.8318749" lon="53.1487869"><time>2024-11-03T06:12:37.373</time></trkpt><trkpt lat="56.8318733" lon="53.1486713"><time>2024-11-03T06:12:41.387</time></trkpt><trkpt lat="56.8315945" lon="53.1478502"><time>2024-11-03T06:12:45.257</time></trkpt><trkpt lat="56.8316479" lon="53.1478797"><time>2024-11-03T06:12:55.267</time></trkpt><trkpt lat="56.8317055" lon="53.1478987"><time>2024-11-03T06:13:00.273</time></trkpt><trkpt lat="56.8317568" lon="53.1479188"><time>2024-11-03T06:13:03.260</time></trkpt><trkpt lat="56.8318061" lon="53.1479090"><time>2024-11-03T06:13:06.267</time></trkpt><trkpt lat="56.8318586" lon="53.1478893"><time>2024-11-03T06:13:09.257</time></trkpt><trkpt lat="56.8319022" lon="53.1478517"><time>2024-11-03T06:13:14.267</time></trkpt><trkpt lat="56.8319305" lon="53.1477649"><time>2024-11-03T06:13:18.250</time></trkpt><trkpt lat="56.8319327" lon="53.1476707"><time>2024-11-03T06:13:21.250</time></trkpt><trkpt lat="56.8319479" lon="53.1475872"><time>2024-11-03T06:13:25.250</time></trkpt><trkpt lat="56.8319568" lon="53.1474791"><time>2024-11-03T06:13:30.250</time></trkpt><trkpt lat="56.8319572" lon="53.1473915"><time>2024-11-03T06:13:33.250</time></trkpt><trkpt lat="56.8319602" lon="53.1472973"><time>2024-11-03T06:13:36.267</time></trkpt><trkpt lat="56.8319592" lon="53.1471974"><time>2024-11-03T06:13:39.260</time></trkpt><trkpt lat="56.8319556" lon="53.1470770"><time>2024-11-03T06:13:42.263</time></trkpt><trkpt lat="56.8319535" lon="53.1469942"><time>2024-11-03T06:13:46.263</time></trkpt><trkpt lat="56.8319547" lon="53.1471800"><time>2024-11-03T06:13:49.227</time></trkpt><trkpt lat="56.8319625" lon="53.1471717"><time>2024-11-03T06:13:52.210</time></trkpt><trkpt lat="56.8320307" lon="53.1469816"><time>2024-11-03T06:13:53.250</time></trkpt><trkpt lat="56.8319633" lon="53.1471330"><time>2024-11-03T06:13:56.230</time></trkpt><trkpt lat="56.8319634" lon="53.1471300"><time>2024-11-03T06:13:58.273</time></trkpt><trkpt lat="56.8319612" lon="53.1467814"><time>2024-11-03T06:13:59.233</time></trkpt><trkpt lat="56.8319628" lon="53.1471256"><time>2024-11-03T06:14:02.223</time></trkpt><trkpt lat="56.8319546" lon="53.1471085"><time>2024-11-03T06:14:05.217</time></trkpt><trkpt lat="56.8319465" lon="53.1468087"><time>2024-11-03T06:14:11.263</time></trkpt><trkpt lat="56.8319480" lon="53.1471023"><time>2024-11-03T06:14:13.317</time></trkpt><trkpt lat="56.8319516" lon="53.1470456"><time>2024-11-03T06:14:16.297</time></trkpt><trkpt lat="56.8319571" lon="53.1472339"><time>2024-11-03T06:14:19.257</time></trkpt><trkpt lat="56.8319637" lon="53.1472315"><time>2024-11-03T06:14:21.307</time></trkpt><trkpt lat="56.8320233" lon="53.1457503"><time>2024-11-03T06:14:22.337</time></trkpt><trkpt lat="56.8317977" lon="53.1453766"><time>2024-11-03T06:14:23.347</time></trkpt><trkpt lat="56.8317870" lon="53.1452850"><time>2024-11-03T06:14:24.350</time></trkpt><trkpt lat="56.8317487" lon="53.1452091"><time>2024-11-03T06:14:27.343</time></trkpt><trkpt lat="56.8317393" lon="53.1451248"><time>2024-11-03T06:14:33.273</time></trkpt><trkpt lat="56.8317465" lon="53.1450284"><time>2024-11-03T06:14:47.250</time></trkpt><trkpt lat="56.8317323" lon="53.1449416"><time>2024-11-03T06:14:51.257</time></trkpt><trkpt lat="56.8317208" lon="53.1448483"><time>2024-11-03T06:14:55.253</time></trkpt><trkpt lat="56.8317166" lon="53.1447623"><time>2024-11-03T06:15:00.257</time></trkpt><trkpt lat="56.8317399" lon="53.1446861"><time>2024-11-03T06:15:08.253</time></trkpt><trkpt lat="56.8317678" lon="53.1445821"><time>2024-11-03T06:15:12.270</time></trkpt><trkpt lat="56.8317780" lon="53.1444944"><time>2024-11-03T06:15:14.257</time></trkpt><trkpt lat="56.8317845" lon="53.1443995"><time>2024-11-03T06:15:16.257</time></trkpt><trkpt lat="56.8318029" lon="53.1443159"><time>2024-11-03T06:15:18.267</time></trkpt><trkpt lat="56.8318321" lon="53.1442160"><time>2024-11-03T06:15:21.280</time></trkpt><trkpt lat="56.8318479" lon="53.1441112"><time>2024-11-03T06:15:24.257</time></trkpt><trkpt lat="56.8318869" lon="53.1440522"><time>2024-11-03T06:15:28.250</time></trkpt><trkpt lat="56.8319364" lon="53.1440097"><time>2024-11-03T06:15:33.250</time></trkpt><trkpt lat="56.8319856" lon="53.1439581"><time>2024-11-03T06:15:38.247</time></trkpt><trkpt lat="56.8320421" lon="53.1439360"><time>2024-11-03T06:15:42.273</time></trkpt><trkpt lat="56.8320788" lon="53.1438779"><time>2024-11-03T06:15:46.260</time></trkpt><trkpt lat="56.8321224" lon="53.1438328"><time>2024-11-03T06:15:49.257</time></trkpt><trkpt lat="56.8321600" lon="53.1437378"><time>2024-11-03T06:15:52.273</time></trkpt><trkpt lat="56.8321984" lon="53.1436707"><time>2024-11-03T06:15:54.253</time></trkpt><trkpt lat="56.8322306" lon="53.1435921"><time>2024-11-03T06:15:56.267</time></trkpt><trkpt lat="56.8321451" lon="53.1437694"><time>2024-11-03T06:15:58.323</time></trkpt><trkpt lat="56.8321467" lon="53.1437668"><time>2024-11-03T06:16:00.393</time></trkpt><trkpt lat="56.8322984" lon="53.1436961"><time>2024-11-03T06:16:01.413</time></trkpt><trkpt lat="56.8321479" lon="53.1437661"><time>2024-11-03T06:16:03.480</time></trkpt><trkpt lat="56.8321491" lon="53.1437527"><time>2024-11-03T06:16:05.540</time></trkpt><trkpt lat="56.8323644" lon="53.1433779"><time>2024-11-03T06:16:06.583</time></trkpt><trkpt lat="56.8321541" lon="53.1437512"><time>2024-11-03T06:16:08.667</time></trkpt><trkpt lat="56.8321549" lon="53.1437521"><time>2024-11-03T06:16:10.720</time></trkpt><trkpt lat="56.8325438" lon="53.1433763"><time>2024-11-03T06:16:11.777</time></trkpt><trkpt lat="56.8321570" lon="53.1437186"><time>2024-11-03T06:16:13.840</time></trkpt><trkpt lat="56.8321604" lon="53.1437236"><time>2024-11-03T06:16:15.897</time></trkpt><trkpt lat="56.8323322" lon="53.1436889"><time>2024-11-03T06:16:16.930</time></trkpt><trkpt lat="56.8321607" lon="53.1437245"><time>2024-11-03T06:16:18.990</time></trkpt><trkpt lat="56.8321644" lon="53.1437172"><time>2024-11-03T06:16:21.057</time></trkpt><trkpt lat="56.8324105" lon="53.1436662"><time>2024-11-03T06:16:22.087</time></trkpt><trkpt lat="56.8321661" lon="53.1437194"><time>2024-11-03T06:16:24.150</time></trkpt><trkpt lat="56.8321660" lon="53.1437210"><time>2024-11-03T06:16:26.207</time></trkpt><trkpt lat="56.8327052" lon="53.1435894"><time>2024-11-03T06:16:27.247</time></trkpt><trkpt lat="56.8321671" lon="53.1437193"><time>2024-11-03T06:16:29.307</time></trkpt><trkpt lat="56.8321703" lon="53.1437212"><time>2024-11-03T06:16:31.367</time></trkpt><trkpt lat="56.8324624" lon="53.1435970"><time>2024-11-03T06:16:32.400</time></trkpt><trkpt lat="56.8321739" lon="53.1437190"><time>2024-11-03T06:16:34.460</time></trkpt><trkpt lat="56.8321833" lon="53.1437194"><time>2024-11-03T06:16:36.533</time></trkpt><trkpt lat="56.8323334" lon="53.1438383"><time>2024-11-03T06:16:37.553</time></trkpt><trkpt lat="56.8321844" lon="53.1437145"><time>2024-11-03T06:16:39.627</time></trkpt><trkpt lat="56.8321879" lon="53.1437132"><time>2024-11-03T06:16:41.687</time></trkpt><trkpt lat="56.8323255" lon="53.1436768"><time>2024-11-03T06:16:42.713</time></trkpt><trkpt lat="56.8321887" lon="53.1437125"><time>2024-11-03T06:16:44.773</time></trkpt><trkpt lat="56.8321891" lon="53.1437120"><time>2024-11-03T06:16:47.720</time></trkpt><trkpt lat="56.8324800" lon="53.1434422"><time>2024-11-03T06:16:48.653</time></trkpt><trkpt lat="56.8321892" lon="53.1437125"><time>2024-11-03T06:16:51.607</time></trkpt><trkpt lat="56.8321906" lon="53.1437073"><time>2024-11-03T06:16:53.657</time></trkpt><trkpt lat="56.8323001" lon="53.1437291"><time>2024-11-03T06:16:54.687</time></trkpt><trkpt lat="56.8321972" lon="53.1436924"><time>2024-11-03T06:16:57.653</time></trkpt><trkpt lat="56.8321984" lon="53.1436905"><time>2024-11-03T06:16:59.700</time></trkpt><trkpt lat="56.8326147" lon="53.1435582"><time>2024-11-03T06:17:00.650</time></trkpt><trkpt lat="56.8322069" lon="53.1436833"><time>2024-11-03T06:17:02.723</time></trkpt><trkpt lat="56.8322150" lon="53.1436903"><time>2024-11-03T06:17:06.557</time></trkpt><trkpt lat="56.8322150" lon="53.1436903"><time>2024-11-03T06:17:06.727</time></trkpt><trkpt lat="56.8322581" lon="53.1437259"><time>2024-11-03T06:17:07.577</time></trkpt><trkpt lat="56.8322183" lon="53.1436887"><time>2024-11-03T06:17:09.620</time></trkpt><trkpt lat="56.8326411" lon="53.1438881"><time>2024-11-03T06:17:10.643</time></trkpt><trkpt lat="56.8326242" lon="53.1437566"><time>2024-11-03T06:17:12.640</time></trkpt><trkpt lat="56.8326019" lon="53.1436819"><time>2024-11-03T06:17:13.640</time></trkpt><trkpt lat="56.8325646" lon="53.1435936"><time>2024-11-03T06:17:14.647</time></trkpt><trkpt lat="56.8326400" lon="53.1435931"><time>2024-11-03T06:17:17.643</time></trkpt><trkpt lat="56.8327166" lon="53.1435462"><time>2024-11-03T06:17:19.653</time></trkpt><trkpt lat="56.8327598" lon="53.1434346"><time>2024-11-03T06:17:20.557</time></trkpt><trkpt lat="56.8328034" lon="53.1433682"><time>2024-11-03T06:17:21.453</time></trkpt><trkpt lat="56.8328766" lon="53.1432960"><time>2024-11-03T06:17:23.247</time></trkpt><trkpt lat="56.8329503" lon="53.1432618"><time>2024-11-03T06:17:25.247</time></trkpt><trkpt lat="56.8329972" lon="53.1432631"><time>2024-11-03T06:17:28.257</time></trkpt><trkpt lat="56.8329514" lon="53.1432958"><time>2024-11-03T06:17:40.273</time></trkpt><trkpt lat="56.8328988" lon="53.1432736"><time>2024-11-03T06:17:43.257</time></trkpt><trkpt lat="56.8328444" lon="53.1432474"><time>2024-11-03T06:17:46.273</time></trkpt><trkpt lat="56.8327990" lon="53.1432195"><time>2024-11-03T06:17:49.263</time></trkpt><trkpt lat="56.8327532" lon="53.1431991"><time>2024-11-03T06:17:52.257</time></trkpt><trkpt lat="56.8327019" lon="53.1432040"><time>2024-11-03T06:17:55.270</time></trkpt><trkpt lat="56.8326567" lon="53.1432252"><time>2024-11-03T06:17:57.267</time></trkpt><trkpt lat="56.8325933" lon="53.1432285"><time>2024-11-03T06:18:00.277</time></trkpt><trkpt lat="56.8325475" lon="53.1432342"><time>2024-11-03T06:18:02.267</time></trkpt><trkpt lat="56.8324961" lon="53.1432162"><time>2024-11-03T06:18:05.267</time></trkpt><trkpt lat="56.8324389" lon="53.1431957"><time>2024-11-03T06:18:09.287</time></trkpt><trkpt lat="56.8324085" lon="53.1431171"><time>2024-11-03T06:18:15.267</time></trkpt><trkpt lat="56.8324059" lon="53.1430286"><time>2024-11-03T06:18:20.273</time></trkpt><trkpt lat="56.8324192" lon="53.1429311"><time>2024-11-03T06:18:26.270</time></trkpt><trkpt lat="56.8324239" lon="53.1428222"><time>2024-11-03T06:18:29.267</time></trkpt><trkpt lat="56.8324280" lon="53.1427108"><time>2024-11-03T06:18:32.263</time></trkpt><trkpt lat="56.8324281" lon="53.1426289"><time>2024-11-03T06:18:34.267</time></trkpt><trkpt lat="56.8324277" lon="53.1425396"><time>2024-11-03T06:18:36.280</time></trkpt><trkpt lat="56.8324312" lon="53.1424553"><time>2024-11-03T06:18:38.290</time></trkpt><trkpt lat="56.8324235" lon="53.1423568"><time>2024-11-03T06:18:40.287</time></trkpt><trkpt lat="56.8323952" lon="53.1422500"><time>2024-11-03T06:18:42.283</time></trkpt><trkpt lat="56.8323690" lon="53.1421343"><time>2024-11-03T06:18:44.267</time></trkpt><trkpt lat="56.8323433" lon="53.1420154"><time>2024-11-03T06:18:46.270</time></trkpt><trkpt lat="56.8323166" lon="53.1419138"><time>2024-11-03T06:18:48.273</time></trkpt><trkpt lat="56.8322931" lon="53.1418180"><time>2024-11-03T06:18:51.263</time></trkpt><trkpt lat="56.8322784" lon="53.1417213"><time>2024-11-03T06:18:56.260</time></trkpt><trkpt lat="56.8322805" lon="53.1416320"><time>2024-11-03T06:18:59.260</time></trkpt><trkpt lat="56.8322923" lon="53.1415444"><time>2024-11-03T06:19:02.253</time></trkpt><trkpt lat="56.8322930" lon="53.1414453"><time>2024-11-03T06:19:05.257</time></trkpt><trkpt lat="56.8322960" lon="53.1413249"><time>2024-11-03T06:19:08.267</time></trkpt><trkpt lat="56.8322991" lon="53.1412241"><time>2024-11-03T06:19:10.273</time></trkpt><trkpt lat="56.8323340" lon="53.1419495"><time>2024-11-03T06:19:12.347</time></trkpt><trkpt lat="56.8323343" lon="53.1419440"><time>2024-11-03T06:19:14.403</time></trkpt><trkpt lat="56.8324324" lon="53.1418989"><time>2024-11-03T06:19:15.420</time></trkpt><trkpt lat="56.8323844" lon="53.1416355"><time>2024-11-03T06:19:16.417</time></trkpt><trkpt lat="56.8323483" lon="53.1413968"><time>2024-11-03T06:19:17.420</time></trkpt><trkpt lat="56.8322844" lon="53.1410432"><time>2024-11-03T06:19:18.447</time></trkpt><trkpt lat="56.8323351" lon="53.1419421"><time>2024-11-03T06:19:20.497</time></trkpt><trkpt lat="56.8323350" lon="53.1419409"><time>2024-11-03T06:19:22.543</time></trkpt><trkpt lat="56.8322964" lon="53.1418469"><time>2024-11-03T06:19:23.553</time></trkpt><trkpt lat="56.8326577" lon="53.1405419"><time>2024-11-03T06:19:24.470</time></trkpt><trkpt lat="56.8325520" lon="53.1404093"><time>2024-11-03T06:19:25.497</time></trkpt><trkpt lat="56.8323360" lon="53.1419328"><time>2024-11-03T06:19:28.463</time></trkpt><trkpt lat="56.8323360" lon="53.1419309"><time>2024-11-03T06:19:31.410</time></trkpt><trkpt lat="56.8324180" lon="53.1415983"><time>2024-11-03T06:19:32.420</time></trkpt><trkpt lat="56.8323978" lon="53.1407602"><time>2024-11-03T06:19:33.350</time></trkpt><trkpt lat="56.8323378" lon="53.1419241"><time>2024-11-03T06:19:36.320</time></trkpt><trkpt lat="56.8323354" lon="53.1419222"><time>2024-11-03T06:19:38.367</time></trkpt><trkpt lat="56.8321840" lon="53.1410107"><time>2024-11-03T06:19:39.407</time></trkpt><trkpt lat="56.8323466" lon="53.1418947"><time>2024-11-03T06:19:42.377</time></trkpt><trkpt lat="56.8323480" lon="53.1418912"><time>2024-11-03T06:19:45.343</time></trkpt><trkpt lat="56.8321525" lon="53.1410306"><time>2024-11-03T06:19:46.377</time></trkpt><trkpt lat="56.8323319" lon="53.1419447"><time>2024-11-03T06:19:50.250</time></trkpt><trkpt lat="56.8323302" lon="53.1419600"><time>2024-11-03T06:19:53.217</time></trkpt><trkpt lat="56.8323650" lon="53.1415894"><time>2024-11-03T06:19:54.247</time></trkpt><trkpt lat="56.8323793" lon="53.1414438"><time>2024-11-03T06:19:55.250</time></trkpt><trkpt lat="56.8323878" lon="53.1413421"><time>2024-11-03T06:19:56.250</time></trkpt><trkpt lat="56.8323917" lon="53.1412123"><time>2024-11-03T06:19:58.250</time></trkpt><trkpt lat="56.8324093" lon="53.1410727"><time>2024-11-03T06:20:01.263</time></trkpt><trkpt lat="56.8323322" lon="53.1419535"><time>2024-11-03T06:20:03.313</time></trkpt><trkpt lat="56.8323342" lon="53.1419499"><time>2024-11-03T06:20:05.367</time></trkpt><trkpt lat="56.8323876" lon="53.1418176"><time>2024-11-03T06:20:07.287</time></trkpt><trkpt lat="56.8322254" lon="53.1411722"><time>2024-11-03T06:20:09.267</time></trkpt><trkpt lat="56.8323310" lon="53.1419500"><time>2024-11-03T06:20:12.247</time></trkpt><trkpt lat="56.8323312" lon="53.1419500"><time>2024-11-03T06:20:14.303</time></trkpt><trkpt lat="56.8318836" lon="53.1393237"><time>2024-11-03T06:20:15.347</time></trkpt><trkpt lat="56.8317739" lon="53.1385717"><time>2024-11-03T06:20:18.323</time></trkpt><trkpt lat="56.8317079" lon="53.1386168"><time>2024-11-03T06:20:21.357</time></trkpt><trkpt lat="56.8316632" lon="53.1386397"><time>2024-11-03T06:20:23.353</time></trkpt><trkpt lat="56.8315974" lon="53.1386540"><time>2024-11-03T06:20:26.357</time></trkpt><trkpt lat="56.8315469" lon="53.1386631"><time>2024-11-03T06:20:28.357</time></trkpt><trkpt lat="56.8314986" lon="53.1386738"><time>2024-11-03T06:20:30.370</time></trkpt><trkpt lat="56.8317077" lon="53.1386167"><time>2024-11-03T06:20:32.440</time></trkpt><trkpt lat="56.8317100" lon="53.1386226"><time>2024-11-03T06:20:34.503</time></trkpt><trkpt lat="56.8316108" lon="53.1388109"><time>2024-11-03T06:20:35.523</time></trkpt><trkpt lat="56.8315324" lon="53.1388543"><time>2024-11-03T06:20:36.527</time></trkpt><trkpt lat="56.8316988" lon="53.1386633"><time>2024-11-03T06:20:38.597</time></trkpt><trkpt lat="56.8316761" lon="53.1386872"><time>2024-11-03T06:20:40.667</time></trkpt><trkpt lat="56.8315484" lon="53.1386774"><time>2024-11-03T06:20:41.690</time></trkpt><trkpt lat="56.8314237" lon="53.1386967"><time>2024-11-03T06:20:42.700</time></trkpt><trkpt lat="56.8316734" lon="53.1386819"><time>2024-11-03T06:20:44.767</time></trkpt><trkpt lat="56.8316704" lon="53.1386754"><time>2024-11-03T06:20:46.843</time></trkpt><trkpt lat="56.8313884" lon="53.1387866"><time>2024-11-03T06:20:47.873</time></trkpt><trkpt lat="56.8316624" lon="53.1386802"><time>2024-11-03T06:20:49.963</time></trkpt><trkpt lat="56.8316607" lon="53.1386839"><time>2024-11-03T06:20:52.033</time></trkpt><trkpt lat="56.8314583" lon="53.1387482"><time>2024-11-03T06:20:53.067</time></trkpt><trkpt lat="56.8316562" lon="53.1386912"><time>2024-11-03T06:20:55.133</time></trkpt><trkpt lat="56.8316552" lon="53.1386897"><time>2024-11-03T06:20:57.183</time></trkpt><trkpt lat="56.8313305" lon="53.1388235"><time>2024-11-03T06:20:58.217</time></trkpt><trkpt lat="56.8316511" lon="53.1386934"><time>2024-11-03T06:21:00.273</time></trkpt><trkpt lat="56.8316465" lon="53.1386931"><time>2024-11-03T06:21:02.330</time></trkpt><trkpt lat="56.8315921" lon="53.1387872"><time>2024-11-03T06:21:04.353</time></trkpt><trkpt lat="56.8314199" lon="53.1387707"><time>2024-11-03T06:21:05.373</time></trkpt><trkpt lat="56.8316461" lon="53.1386918"><time>2024-11-03T06:21:07.437</time></trkpt><trkpt lat="56.8316446" lon="53.1386951"><time>2024-11-03T06:21:09.493</time></trkpt><trkpt lat="56.8316932" lon="53.1387261"><time>2024-11-03T06:21:10.510</time></trkpt><trkpt lat="56.8316882" lon="53.1388194"><time>2024-11-03T06:21:12.533</time></trkpt><trkpt lat="56.8316543" lon="53.1389216"><time>2024-11-03T06:21:14.527</time></trkpt><trkpt lat="56.8315869" lon="53.1389682"><time>2024-11-03T06:21:16.530</time></trkpt><trkpt lat="56.8315331" lon="53.1389562"><time>2024-11-03T06:21:18.537</time></trkpt><trkpt lat="56.8316424" lon="53.1386995"><time>2024-11-03T06:21:20.593</time></trkpt><trkpt lat="56.8316423" lon="53.1386998"><time>2024-11-03T06:21:22.627</time></trkpt><trkpt lat="56.8313102" lon="53.1393887"><time>2024-11-03T06:21:23.577</time></trkpt><trkpt lat="56.8313102" lon="53.1393887"><time>2024-11-03T06:21:25.343</time></trkpt><trkpt lat="56.8316405" lon="53.1387063"><time>2024-11-03T06:21:25.627</time></trkpt><trkpt lat="56.8316398" lon="53.1387039"><time>2024-11-03T06:21:28.577</time></trkpt><trkpt lat="56.8310892" lon="53.1388263"><time>2024-11-03T06:21:29.600</time></trkpt><trkpt lat="56.8308589" lon="53.1389710"><time>2024-11-03T06:21:30.613</time></trkpt><trkpt lat="56.8308211" lon="53.1388935"><time>2024-11-03T06:21:33.613</time></trkpt><trkpt lat="56.8308645" lon="53.1388391"><time>2024-11-03T06:21:35.630</time></trkpt><trkpt lat="56.8308191" lon="53.1388538"><time>2024-11-03T06:21:41.640</time></trkpt><trkpt lat="56.8307900" lon="53.1387847"><time>2024-11-03T06:21:52.437</time></trkpt><trkpt lat="56.8308176" lon="53.1387151"><time>2024-11-03T06:21:57.307</time></trkpt><trkpt lat="56.8308224" lon="53.1386299"><time>2024-11-03T06:22:02.270</time></trkpt><trkpt lat="56.8308172" lon="53.1385455"><time>2024-11-03T06:22:06.257</time></trkpt><trkpt lat="56.8308225" lon="53.1384300"><time>2024-11-03T06:22:09.257</time></trkpt><trkpt lat="56.8308461" lon="53.1383320"><time>2024-11-03T06:22:12.267</time></trkpt><trkpt lat="56.8308816" lon="53.1382663"><time>2024-11-03T06:22:15.253</time></trkpt><trkpt lat="56.8309201" lon="53.1382090"><time>2024-11-03T06:22:18.263</time></trkpt><trkpt lat="56.8309601" lon="53.1381550"><time>2024-11-03T06:22:21.257</time></trkpt><trkpt lat="56.8309894" lon="53.1380856"><time>2024-11-03T06:22:25.237</time></trkpt><trkpt lat="56.8310026" lon="53.1380042"><time>2024-11-03T06:22:28.260</time></trkpt><trkpt lat="56.8310002" lon="53.1379159"><time>2024-11-03T06:22:31.247</time></trkpt><trkpt lat="56.8309956" lon="53.1378091"><time>2024-11-03T06:22:35.257</time></trkpt><trkpt lat="56.8309991" lon="53.1377235"><time>2024-11-03T06:22:38.260</time></trkpt><trkpt lat="56.8310099" lon="53.1376374"><time>2024-11-03T06:22:41.260</time></trkpt><trkpt lat="56.8310255" lon="53.1375462"><time>2024-11-03T06:22:45.257</time></trkpt><trkpt lat="56.8310313" lon="53.1374458"><time>2024-11-03T06:22:48.267</time></trkpt><trkpt lat="56.8310428" lon="53.1373377"><time>2024-11-03T06:22:51.273</time></trkpt><trkpt lat="56.8310296" lon="53.1372302"><time>2024-11-03T06:22:54.277</time></trkpt><trkpt lat="56.8310375" lon="53.1371447"><time>2024-11-03T06:22:56.267</time></trkpt><trkpt lat="56.8310330" lon="53.1370528"><time>2024-11-03T06:22:58.270</time></trkpt><trkpt lat="56.8310104" lon="53.1369494"><time>2024-11-03T06:23:01.263</time></trkpt><trkpt lat="56.8309842" lon="53.1368760"><time>2024-11-03T06:23:03.267</time></trkpt><trkpt lat="56.8309494" lon="53.1368123"><time>2024-11-03T06:23:05.273</time></trkpt><trkpt lat="56.8309110" lon="53.1367454"><time>2024-11-03T06:23:07.260</time></trkpt><trkpt lat="56.8308812" lon="53.1366685"><time>2024-11-03T06:23:09.263</time></trkpt><trkpt lat="56.8308530" lon="53.1365952"><time>2024-11-03T06:23:11.267</time></trkpt><trkpt lat="56.8308236" lon="53.1364862"><time>2024-11-03T06:23:14.263</time></trkpt><trkpt lat="56.8308035" lon="53.1363914"><time>2024-11-03T06:23:17.267</time></trkpt><trkpt lat="56.8307996" lon="53.1362895"><time>2024-11-03T06:23:20.287</time></trkpt><trkpt lat="56.8307978" lon="53.1361819"><time>2024-11-03T06:23:23.283</time></trkpt><trkpt lat="56.8308050" lon="53.1360741"><time>2024-11-03T06:23:27.307</time></trkpt><trkpt lat="56.8308093" lon="53.1359772"><time>2024-11-03T06:23:30.300</time></trkpt><trkpt lat="56.8308059" lon="53.1358765"><time>2024-11-03T06:23:33.277</time></trkpt><trkpt lat="56.8308003" lon="53.1357805"><time>2024-11-03T06:23:36.270</time></trkpt><trkpt lat="56.8308072" lon="53.1356929"><time>2024-11-03T06:23:39.270</time></trkpt><trkpt lat="56.8308135" lon="53.1355731"><time>2024-11-03T06:23:42.277</time></trkpt><trkpt lat="56.8308097" lon="53.1354748"><time>2024-11-03T06:23:44.267</time></trkpt><trkpt lat="56.8308034" lon="53.1353465"><time>2024-11-03T06:23:46.270</time></trkpt><trkpt lat="56.8307952" lon="53.1352303"><time>2024-11-03T06:23:48.270</time></trkpt><trkpt lat="56.8307805" lon="53.1351156"><time>2024-11-03T06:23:51.267</time></trkpt><trkpt lat="56.8307623" lon="53.1350287"><time>2024-11-03T06:23:53.270</time></trkpt><trkpt lat="56.8307447" lon="53.1349230"><time>2024-11-03T06:23:55.277</time></trkpt><trkpt lat="56.8307548" lon="53.1348416"><time>2024-11-03T06:23:58.277</time></trkpt><trkpt lat="56.8307641" lon="53.1347567"><time>2024-11-03T06:24:03.267</time></trkpt><trkpt lat="56.8307366" lon="53.1346528"><time>2024-11-03T06:24:06.280</time></trkpt><trkpt lat="56.8307244" lon="53.1345693"><time>2024-11-03T06:24:09.283</time></trkpt><trkpt lat="56.8307169" lon="53.1344792"><time>2024-11-03T06:24:12.303</time></trkpt><trkpt lat="56.8307201" lon="53.1343784"><time>2024-11-03T06:24:15.290</time></trkpt><trkpt lat="56.8307271" lon="53.1342818"><time>2024-11-03T06:24:18.290</time></trkpt><trkpt lat="56.8307255" lon="53.1341941"><time>2024-11-03T06:24:21.293</time></trkpt><trkpt lat="56.8307110" lon="53.1340967"><time>2024-11-03T06:24:24.290</time></trkpt><trkpt lat="56.8307077" lon="53.1340033"><time>2024-11-03T06:24:29.297</time></trkpt><trkpt lat="56.8307380" lon="53.1339068"><time>2024-11-03T06:24:32.283</time></trkpt><trkpt lat="56.8306868" lon="53.1337765"><time>2024-11-03T06:24:34.317</time></trkpt><trkpt lat="56.8307026" lon="53.1336976"><time>2024-11-03T06:24:46.270</time></trkpt><trkpt lat="56.8307045" lon="53.1336068"><time>2024-11-03T06:24:50.267</time></trkpt><trkpt lat="56.8307204" lon="53.1335135"><time>2024-11-03T06:24:54.277</time></trkpt><trkpt lat="56.8307271" lon="53.1334325"><time>2024-11-03T06:24:57.297</time></trkpt><trkpt lat="56.8307391" lon="53.1333383"><time>2024-11-03T06:24:59.290</time></trkpt><trkpt lat="56.8307481" lon="53.1332285"><time>2024-11-03T06:25:01.287</time></trkpt><trkpt lat="56.8307543" lon="53.1330966"><time>2024-11-03T06:25:03.297</time></trkpt><trkpt lat="56.8307597" lon="53.1329689"><time>2024-11-03T06:25:05.300</time></trkpt><trkpt lat="56.8307603" lon="53.1328616"><time>2024-11-03T06:25:07.290</time></trkpt><trkpt lat="56.8307629" lon="53.1327674"><time>2024-11-03T06:25:09.297</time></trkpt><trkpt lat="56.8307664" lon="53.1326831"><time>2024-11-03T06:25:11.290</time></trkpt><trkpt lat="56.8307702" lon="53.1325922"><time>2024-11-03T06:25:13.293</time></trkpt><trkpt lat="56.8307746" lon="53.1325102"><time>2024-11-03T06:25:15.287</time></trkpt><trkpt lat="56.8307776" lon="53.1324030"><time>2024-11-03T06:25:17.303</time></trkpt><trkpt lat="56.8307771" lon="53.1324014"><time>2024-11-03T06:25:19.360</time></trkpt><trkpt lat="56.8307339" lon="53.1322489"><time>2024-11-03T06:25:21.247</time></trkpt><trkpt lat="56.8306647" lon="53.1318752"><time>2024-11-03T06:25:22.250</time></trkpt><trkpt lat="56.8306596" lon="53.1317058"><time>2024-11-03T06:25:25.270</time></trkpt><trkpt lat="56.8306537" lon="53.1316106"><time>2024-11-03T06:25:27.273</time></trkpt><trkpt lat="56.8306540" lon="53.1314804"><time>2024-11-03T06:25:30.293</time></trkpt><trkpt lat="56.8307753" lon="53.1323980"><time>2024-11-03T06:25:33.273</time></trkpt><trkpt lat="56.8307738" lon="53.1323903"><time>2024-11-03T06:25:35.340</time></trkpt><trkpt lat="56.8307292" lon="53.1324122"><time>2024-11-03T06:25:36.370</time></trkpt><trkpt lat="56.8307737" lon="53.1323892"><time>2024-11-03T06:25:38.440</time></trkpt><trkpt lat="56.8307732" lon="53.1323809"><time>2024-11-03T06:25:40.503</time></trkpt><trkpt lat="56.8308026" lon="53.1323099"><time>2024-11-03T06:25:41.527</time></trkpt><trkpt lat="56.8307280" lon="53.1321652"><time>2024-11-03T06:25:42.527</time></trkpt><trkpt lat="56.8306206" lon="53.1315884"><time>2024-11-03T06:25:43.530</time></trkpt><trkpt lat="56.8306393" lon="53.1313491"><time>2024-11-03T06:25:45.560</time></trkpt><trkpt lat="56.8307739" lon="53.1323795"><time>2024-11-03T06:25:48.543</time></trkpt><trkpt lat="56.8307736" lon="53.1323790"><time>2024-11-03T06:25:50.607</time></trkpt><trkpt lat="56.8308562" lon="53.1321292"><time>2024-11-03T06:25:51.543</time></trkpt><trkpt lat="56.8309104" lon="53.1319764"><time>2024-11-03T06:25:52.543</time></trkpt><trkpt lat="56.8309475" lon="53.1319260"><time>2024-11-03T06:25:54.543</time></trkpt><trkpt lat="56.8309164" lon="53.1318516"><time>2024-11-03T06:25:56.547</time></trkpt><trkpt lat="56.8308931" lon="53.1317573"><time>2024-11-03T06:25:58.553</time></trkpt><trkpt lat="56.8308609" lon="53.1316238"><time>2024-11-03T06:26:00.550</time></trkpt><trkpt lat="56.8308220" lon="53.1314586"><time>2024-11-03T06:26:01.577</time></trkpt><trkpt lat="56.8307731" lon="53.1323738"><time>2024-11-03T06:26:03.677</time></trkpt><trkpt lat="56.8307797" lon="53.1323761"><time>2024-11-03T06:26:06.657</time></trkpt><trkpt lat="56.8308217" lon="53.1321212"><time>2024-11-03T06:26:07.673</time></trkpt><trkpt lat="56.8306920" lon="53.1316693"><time>2024-11-03T06:26:09.680</time></trkpt><trkpt lat="56.8306839" lon="53.1315047"><time>2024-11-03T06:26:11.693</time></trkpt><trkpt lat="56.8307813" lon="53.1323697"><time>2024-11-03T06:26:13.780</time></trkpt><trkpt lat="56.8307779" lon="53.1323895"><time>2024-11-03T06:26:16.767</time></trkpt><trkpt lat="56.8306876" lon="53.1321416"><time>2024-11-03T06:26:17.790</time></trkpt><trkpt lat="56.8306365" lon="53.1318977"><time>2024-11-03T06:26:18.793</time></trkpt><trkpt lat="56.8306014" lon="53.1318169"><time>2024-11-03T06:26:19.787</time></trkpt><trkpt lat="56.8305397" lon="53.1317904"><time>2024-11-03T06:26:20.783</time></trkpt><trkpt lat="56.8305487" lon="53.1314985"><time>2024-11-03T06:26:23.710</time></trkpt><trkpt lat="56.8307801" lon="53.1323891"><time>2024-11-03T06:26:25.780</time></trkpt><trkpt lat="56.8307795" lon="53.1323873"><time>2024-11-03T06:26:27.847</time></trkpt><trkpt lat="56.8307759" lon="53.1313514"><time>2024-11-03T06:26:28.897</time></trkpt><trkpt lat="56.8307784" lon="53.1323874"><time>2024-11-03T06:26:30.987</time></trkpt><trkpt lat="56.8307780" lon="53.1323870"><time>2024-11-03T06:26:33.047</time></trkpt><trkpt lat="56.8307758" lon="53.1317161"><time>2024-11-03T06:26:34.073</time></trkpt><trkpt lat="56.8308235" lon="53.1313189"><time>2024-11-03T06:26:35.090</time></trkpt><trkpt lat="56.8307770" lon="53.1323854"><time>2024-11-03T06:26:37.173</time></trkpt><trkpt lat="56.8307766" lon="53.1323844"><time>2024-11-03T06:26:39.257</time></trkpt><trkpt lat="56.8308699" lon="53.1322164"><time>2024-11-03T06:26:40.267</time></trkpt><trkpt lat="56.8309504" lon="53.1320011"><time>2024-11-03T06:26:41.277</time></trkpt><trkpt lat="56.8310002" lon="53.1318281"><time>2024-11-03T06:26:42.273</time></trkpt><trkpt lat="56.8309849" lon="53.1316601"><time>2024-11-03T06:26:43.287</time></trkpt><trkpt lat="56.8309142" lon="53.1315127"><time>2024-11-03T06:26:44.300</time></trkpt><trkpt lat="56.8307763" lon="53.1323812"><time>2024-11-03T06:26:46.373</time></trkpt><trkpt lat="56.8307755" lon="53.1323800"><time>2024-11-03T06:26:48.423</time></trkpt><trkpt lat="56.8306763" lon="53.1322910"><time>2024-11-03T06:26:49.443</time></trkpt><trkpt lat="56.8306515" lon="53.1320050"><time>2024-11-03T06:26:50.447</time></trkpt><trkpt lat="56.8306515" lon="53.1320050"><time>2024-11-03T06:26:50.587</time></trkpt><trkpt lat="56.8307035" lon="53.1316318"><time>2024-11-03T06:26:51.370</time></trkpt><trkpt lat="56.8307752" lon="53.1323779"><time>2024-11-03T06:26:53.443</time></trkpt><trkpt lat="56.8309707" lon="53.1316875"><time>2024-11-03T06:26:54.473</time></trkpt><trkpt lat="56.8307107" lon="53.1318135"><time>2024-11-03T06:26:57.480</time></trkpt><trkpt lat="56.8306703" lon="53.1317569"><time>2024-11-03T06:26:58.483</time></trkpt><trkpt lat="56.8306685" lon="53.1316409"><time>2024-11-03T06:27:00.480</time></trkpt><trkpt lat="56.8306143" lon="53.1315386"><time>2024-11-03T06:27:02.487</time></trkpt><trkpt lat="56.8306450" lon="53.1313794"><time>2024-11-03T06:27:03.487</time></trkpt><trkpt lat="56.8307055" lon="53.1311111"><time>2024-11-03T06:27:04.497</time></trkpt><trkpt lat="56.8307400" lon="53.1309808"><time>2024-11-03T06:27:05.487</time></trkpt><trkpt lat="56.8307586" lon="53.1308821"><time>2024-11-03T06:27:07.497</time></trkpt><trkpt lat="56.8307123" lon="53.1309091"><time>2024-11-03T06:27:17.273</time></trkpt><trkpt lat="56.8306756" lon="53.1309672"><time>2024-11-03T06:27:21.270</time></trkpt><trkpt lat="56.8306271" lon="53.1310254"><time>2024-11-03T06:27:24.267</time></trkpt><trkpt lat="56.8305787" lon="53.1310639"><time>2024-11-03T06:27:26.263</time></trkpt><trkpt lat="56.8305308" lon="53.1311097"><time>2024-11-03T06:27:28.250</time></trkpt><trkpt lat="56.8304818" lon="53.1311531"><time>2024-11-03T06:27:30.257</time></trkpt><trkpt lat="56.8304314" lon="53.1311859"><time>2024-11-03T06:27:32.257</time></trkpt><trkpt lat="56.8303849" lon="53.1312031"><time>2024-11-03T06:27:34.253</time></trkpt><trkpt lat="56.8303186" lon="53.1312326"><time>2024-11-03T06:27:37.247</time></trkpt><trkpt lat="56.8302581" lon="53.1312719"><time>2024-11-03T06:27:40.260</time></trkpt><trkpt lat="56.8302136" lon="53.1312891"><time>2024-11-03T06:27:42.253</time></trkpt><trkpt lat="56.8301618" lon="53.1312784"><time>2024-11-03T06:27:44.263</time></trkpt><trkpt lat="56.8301124" lon="53.1312678"><time>2024-11-03T06:27:46.270</time></trkpt><trkpt lat="56.8300663" lon="53.1312661"><time>2024-11-03T06:27:48.287</time></trkpt><trkpt lat="56.8300162" lon="53.1312596"><time>2024-11-03T06:27:51.273</time></trkpt><trkpt lat="56.8299516" lon="53.1312858"><time>2024-11-03T06:27:54.297</time></trkpt><trkpt lat="56.8298993" lon="53.1312989"><time>2024-11-03T06:27:57.287</time></trkpt><trkpt lat="56.8298427" lon="53.1313202"><time>2024-11-03T06:28:00.290</time></trkpt><trkpt lat="56.8297980" lon="53.1312915"><time>2024-11-03T06:28:07.283</time></trkpt><trkpt lat="56.8297697" lon="53.1312276"><time>2024-11-03T06:28:18.293</time></trkpt><trkpt lat="56.8297265" lon="53.1311851"><time>2024-11-03T06:28:31.283</time></trkpt><trkpt lat="56.8296707" lon="53.1312031"><time>2024-11-03T06:28:37.280</time></trkpt><trkpt lat="56.8296212" lon="53.1312047"><time>2024-11-03T06:28:39.277</time></trkpt><trkpt lat="56.8295725" lon="53.1311949"><time>2024-11-03T06:28:41.277</time></trkpt><trkpt lat="56.8295211" lon="53.1311433"><time>2024-11-03T06:28:44.280</time></trkpt><trkpt lat="56.8294631" lon="53.1310655"><time>2024-11-03T06:28:47.287</time></trkpt><trkpt lat="56.8294093" lon="53.1310401"><time>2024-11-03T06:28:49.277</time></trkpt><trkpt lat="56.8293499" lon="53.1310393"><time>2024-11-03T06:28:51.283</time></trkpt><trkpt lat="56.8293033" lon="53.1309983"><time>2024-11-03T06:28:53.283</time></trkpt><trkpt lat="56.8292475" lon="53.1309934"><time>2024-11-03T06:28:55.283</time></trkpt><trkpt lat="56.8291871" lon="53.1309901"><time>2024-11-03T06:28:57.283</time></trkpt><trkpt lat="56.8291425" lon="53.1309991"><time>2024-11-03T06:28:59.277</time></trkpt><trkpt lat="56.8290969" lon="53.1310057"><time>2024-11-03T06:29:02.273</time></trkpt><trkpt lat="56.8290459" lon="53.1310098"><time>2024-11-03T06:29:07.270</time></trkpt><trkpt lat="56.8289918" lon="53.1310130"><time>2024-11-03T06:29:10.277</time></trkpt><trkpt lat="56.8289454" lon="53.1309844"><time>2024-11-03T06:29:13.273</time></trkpt><trkpt lat="56.8289017" lon="53.1309566"><time>2024-11-03T06:29:16.273</time></trkpt><trkpt lat="56.8288555" lon="53.1309418"><time>2024-11-03T06:29:19.247</time></trkpt><trkpt lat="56.8288087" lon="53.1309246"><time>2024-11-03T06:29:21.260</time></trkpt><trkpt lat="56.8287620" lon="53.1309205"><time>2024-11-03T06:29:23.263</time></trkpt><trkpt lat="56.8287024" lon="53.1309205"><time>2024-11-03T06:29:26.257</time></trkpt><trkpt lat="56.8286560" lon="53.1308697"><time>2024-11-03T06:29:29.267</time></trkpt><trkpt lat="56.8286107" lon="53.1308419"><time>2024-11-03T06:29:31.280</time></trkpt><trkpt lat="56.8285525" lon="53.1308116"><time>2024-11-03T06:29:33.263</time></trkpt><trkpt lat="56.8284895" lon="53.1307870"><time>2024-11-03T06:29:35.267</time></trkpt><trkpt lat="56.8284377" lon="53.1308026"><time>2024-11-03T06:29:37.270</time></trkpt><trkpt lat="56.8283865" lon="53.1308263"><time>2024-11-03T06:29:39.263</time></trkpt><trkpt lat="56.8283419" lon="53.1308689"><time>2024-11-03T06:29:41.263</time></trkpt><trkpt lat="56.8282975" lon="53.1309049"><time>2024-11-03T06:29:43.277</time></trkpt><trkpt lat="56.8282317" lon="53.1309532"><time>2024-11-03T06:29:45.283</time></trkpt><trkpt lat="56.8281883" lon="53.1309844"><time>2024-11-03T06:29:46.283</time></trkpt><trkpt lat="56.8281142" lon="53.1310433"><time>2024-11-03T06:29:48.283</time></trkpt><trkpt lat="56.8280639" lon="53.1310974"><time>2024-11-03T06:29:50.287</time></trkpt><trkpt lat="56.8280201" lon="53.1311564"><time>2024-11-03T06:29:52.283</time></trkpt><trkpt lat="56.8279649" lon="53.1312104"><time>2024-11-03T06:29:54.283</time></trkpt><trkpt lat="56.8279186" lon="53.1312210"><time>2024-11-03T06:29:56.270</time></trkpt><trkpt lat="56.8278695" lon="53.1312505"><time>2024-11-03T06:30:00.280</time></trkpt><trkpt lat="56.8278365" lon="53.1313128"><time>2024-11-03T06:30:03.283</time></trkpt><trkpt lat="56.8278100" lon="53.1313799"><time>2024-11-03T06:30:07.273</time></trkpt><trkpt lat="56.8278028" lon="53.1314626"><time>2024-11-03T06:30:12.280</time></trkpt><trkpt lat="56.8277916" lon="53.1315421"><time>2024-11-03T06:30:17.290</time></trkpt><trkpt lat="56.8277503" lon="53.1316166"><time>2024-11-03T06:30:21.287</time></trkpt><trkpt lat="56.8277067" lon="53.1316567"><time>2024-11-03T06:30:24.280</time></trkpt><trkpt lat="56.8276687" lon="53.1317124"><time>2024-11-03T06:30:28.283</time></trkpt><trkpt lat="56.8276222" lon="53.1317296"><time>2024-11-03T06:30:33.283</time></trkpt><trkpt lat="56.8275679" lon="53.1317525"><time>2024-11-03T06:30:38.287</time></trkpt><trkpt lat="56.8275144" lon="53.1317640"><time>2024-11-03T06:30:41.283</time></trkpt><trkpt lat="56.8274528" lon="53.1317927"><time>2024-11-03T06:30:44.277</time></trkpt><trkpt lat="56.8274058" lon="53.1318148"><time>2024-11-03T06:30:47.287</time></trkpt><trkpt lat="56.8273486" lon="53.1318279"><time>2024-11-03T06:30:50.280</time></trkpt><trkpt lat="56.8272882" lon="53.1318319"><time>2024-11-03T06:30:54.283</time></trkpt><trkpt lat="56.8272326" lon="53.1318360"><time>2024-11-03T06:30:57.300</time></trkpt><trkpt lat="56.8271739" lon="53.1318237"><time>2024-11-03T06:31:00.303</time></trkpt><trkpt lat="56.8271223" lon="53.1318172"><time>2024-11-03T06:31:03.277</time></trkpt><trkpt lat="56.8270585" lon="53.1318246"><time>2024-11-03T06:31:06.280</time></trkpt><trkpt lat="56.8270056" lon="53.1318499"><time>2024-11-03T06:31:08.280</time></trkpt><trkpt lat="56.8269450" lon="53.1318811"><time>2024-11-03T06:31:10.297</time></trkpt><trkpt lat="56.8272648" lon="53.1318213"><time>2024-11-03T06:31:12.390</time></trkpt><trkpt lat="56.8272645" lon="53.1318230"><time>2024-11-03T06:31:14.477</time></trkpt><trkpt lat="56.8270088" lon="53.1319355"><time>2024-11-03T06:31:15.497</time></trkpt><trkpt lat="56.8267853" lon="53.1319078"><time>2024-11-03T06:31:16.527</time></trkpt><trkpt lat="56.8272629" lon="53.1318261"><time>2024-11-03T06:31:18.640</time></trkpt><trkpt lat="56.8272616" lon="53.1318276"><time>2024-11-03T06:31:20.713</time></trkpt><trkpt lat="56.8271332" lon="53.1316484"><time>2024-11-03T06:31:22.740</time></trkpt><trkpt lat="56.8269804" lon="53.1315389"><time>2024-11-03T06:31:23.740</time></trkpt><trkpt lat="56.8268729" lon="53.1315093"><time>2024-11-03T06:31:24.770</time></trkpt><trkpt lat="56.8272614" lon="53.1318276"><time>2024-11-03T06:31:26.863</time></trkpt><trkpt lat="56.8272602" lon="53.1318283"><time>2024-11-03T06:31:28.930</time></trkpt><trkpt lat="56.8271909" lon="53.1318680"><time>2024-11-03T06:31:29.953</time></trkpt><trkpt lat="56.8270228" lon="53.1319455"><time>2024-11-03T06:31:30.963</time></trkpt><trkpt lat="56.8268575" lon="53.1319535"><time>2024-11-03T06:31:31.983</time></trkpt><trkpt lat="56.8272571" lon="53.1318305"><time>2024-11-03T06:31:34.077</time></trkpt><trkpt lat="56.8272539" lon="53.1318327"><time>2024-11-03T06:31:36.173</time></trkpt><trkpt lat="56.8271923" lon="53.1318258"><time>2024-11-03T06:31:37.180</time></trkpt><trkpt lat="56.8271144" lon="53.1317866"><time>2024-11-03T06:31:39.187</time></trkpt><trkpt lat="56.8267966" lon="53.1316137"><time>2024-11-03T06:31:41.227</time></trkpt><trkpt lat="56.8272514" lon="53.1318437"><time>2024-11-03T06:31:43.330</time></trkpt><trkpt lat="56.8272443" lon="53.1318527"><time>2024-11-03T06:31:45.430</time></trkpt><trkpt lat="56.8270982" lon="53.1318465"><time>2024-11-03T06:31:46.437</time></trkpt><trkpt lat="56.8269711" lon="53.1317809"><time>2024-11-03T06:31:47.460</time></trkpt><trkpt lat="56.8272441" lon="53.1318524"><time>2024-11-03T06:31:49.567</time></trkpt><trkpt lat="56.8272434" lon="53.1318549"><time>2024-11-03T06:31:51.657</time></trkpt><trkpt lat="56.8265966" lon="53.1318253"><time>2024-11-03T06:31:52.693</time></trkpt><trkpt lat="56.8272404" lon="53.1318560"><time>2024-11-03T06:31:54.800</time></trkpt><trkpt lat="56.8272397" lon="53.1318569"><time>2024-11-03T06:31:56.897</time></trkpt><trkpt lat="56.8265640" lon="53.1314329"><time>2024-11-03T06:31:57.933</time></trkpt><trkpt lat="56.8272360" lon="53.1318605"><time>2024-11-03T06:32:00.037</time></trkpt><trkpt lat="56.8272353" lon="53.1318617"><time>2024-11-03T06:32:02.103</time></trkpt><trkpt lat="56.8268629" lon="53.1316054"><time>2024-11-03T06:32:03.153</time></trkpt><trkpt lat="56.8272330" lon="53.1318584"><time>2024-11-03T06:32:05.253</time></trkpt><trkpt lat="56.8272304" lon="53.1318606"><time>2024-11-03T06:32:07.357</time></trkpt><trkpt lat="56.8267863" lon="53.1316143"><time>2024-11-03T06:32:08.390</time></trkpt><trkpt lat="56.8272300" lon="53.1318608"><time>2024-11-03T06:32:10.497</time></trkpt><trkpt lat="56.8272289" lon="53.1318610"><time>2024-11-03T06:32:12.580</time></trkpt><trkpt lat="56.8261820" lon="53.1321483"><time>2024-11-03T06:32:13.617</time></trkpt><trkpt lat="56.8272284" lon="53.1318613"><time>2024-11-03T06:32:15.710</time></trkpt><trkpt lat="56.8272651" lon="53.1318354"><time>2024-11-03T06:32:18.703</time></trkpt><trkpt lat="56.8270651" lon="53.1317693"><time>2024-11-03T06:32:19.727</time></trkpt><trkpt lat="56.8266484" lon="53.1317803"><time>2024-11-03T06:32:20.747</time></trkpt><trkpt lat="56.8272635" lon="53.1318371"><time>2024-11-03T06:32:22.850</time></trkpt><trkpt lat="56.8272634" lon="53.1318377"><time>2024-11-03T06:32:24.930</time></trkpt><trkpt lat="56.8258745" lon="53.1318324"><time>2024-11-03T06:32:25.980</time></trkpt><trkpt lat="56.8251893" lon="53.1318804"><time>2024-11-03T06:32:29.907</time></trkpt><trkpt lat="56.8251893" lon="53.1318804"><time>2024-11-03T06:32:29.947</time></trkpt><trkpt lat="56.8251890" lon="53.1318891"><time>2024-11-03T06:32:32.003</time></trkpt><trkpt lat="56.8251919" lon="53.1318706"><time>2024-11-03T06:32:34.987</time></trkpt><trkpt lat="56.8251758" lon="53.1317820"><time>2024-11-03T06:32:36.250</time></trkpt><trkpt lat="56.8252250" lon="53.1318186"><time>2024-11-03T06:32:38.987</time></trkpt><trkpt lat="56.8252328" lon="53.1319187"><time>2024-11-03T06:32:43.983</time></trkpt><trkpt lat="56.8252593" lon="53.1320125"><time>2024-11-03T06:32:46.793</time></trkpt><trkpt lat="56.8253062" lon="53.1319850"><time>2024-11-03T06:34:09.283</time></trkpt><trkpt lat="56.8253508" lon="53.1320374"><time>2024-11-03T06:34:24.293</time></trkpt><trkpt lat="56.8253849" lon="53.1321144"><time>2024-11-03T06:34:27.280</time></trkpt><trkpt lat="56.8254095" lon="53.1321987"><time>2024-11-03T06:34:30.280</time></trkpt><trkpt lat="56.8254257" lon="53.1322929"><time>2024-11-03T06:34:34.277</time></trkpt><trkpt lat="56.8254365" lon="53.1323846"><time>2024-11-03T06:34:40.273</time></trkpt><trkpt lat="56.8254544" lon="53.1324829"><time>2024-11-03T06:34:47.280</time></trkpt><trkpt lat="56.8254644" lon="53.1325656"><time>2024-11-03T06:34:50.280</time></trkpt><trkpt lat="56.8254755" lon="53.1326516"><time>2024-11-03T06:34:54.280</time></trkpt><trkpt lat="56.8254896" lon="53.1327326"><time>2024-11-03T06:35:02.273</time></trkpt><trkpt lat="56.8255060" lon="53.1328203"><time>2024-11-03T06:35:06.280</time></trkpt><trkpt lat="56.8255158" lon="53.1329243"><time>2024-11-03T06:35:09.283</time></trkpt><trkpt lat="56.8255195" lon="53.1330176"><time>2024-11-03T06:35:12.290</time></trkpt><trkpt lat="56.8255221" lon="53.1331003"><time>2024-11-03T06:35:15.287</time></trkpt><trkpt lat="56.8255238" lon="53.1331880"><time>2024-11-03T06:35:19.283</time></trkpt><trkpt lat="56.8255318" lon="53.1332731"><time>2024-11-03T06:35:23.283</time></trkpt><trkpt lat="56.8255484" lon="53.1333616"><time>2024-11-03T06:35:27.293</time></trkpt><trkpt lat="56.8255540" lon="53.1334803"><time>2024-11-03T06:35:31.293</time></trkpt><trkpt lat="56.8255574" lon="53.1335720"><time>2024-11-03T06:35:33.293</time></trkpt><trkpt lat="56.8255698" lon="53.1336900"><time>2024-11-03T06:35:36.277</time></trkpt><trkpt lat="56.8255892" lon="53.1338005"><time>2024-11-03T06:35:39.277</time></trkpt><trkpt lat="56.8255969" lon="53.1338914"><time>2024-11-03T06:35:41.277</time></trkpt><trkpt lat="56.8256032" lon="53.1339987"><time>2024-11-03T06:35:43.287</time></trkpt><trkpt lat="56.8256128" lon="53.1340945"><time>2024-11-03T06:35:45.280</time></trkpt><trkpt lat="56.8256194" lon="53.1341952"><time>2024-11-03T06:35:47.283</time></trkpt><trkpt lat="56.8256198" lon="53.1342918"><time>2024-11-03T06:35:49.280</time></trkpt><trkpt lat="56.8256204" lon="53.1344024"><time>2024-11-03T06:35:52.280</time></trkpt><trkpt lat="56.8256285" lon="53.1345007"><time>2024-11-03T06:35:55.297</time></trkpt><trkpt lat="56.8256307" lon="53.1345891"><time>2024-11-03T06:35:58.293</time></trkpt><trkpt lat="56.8256412" lon="53.1346743"><time>2024-11-03T06:36:01.283</time></trkpt><trkpt lat="56.8256647" lon="53.1347627"><time>2024-11-03T06:36:05.297</time></trkpt><trkpt lat="56.8257125" lon="53.1348053"><time>2024-11-03T06:36:10.287</time></trkpt><trkpt lat="56.8257501" lon="53.1348667"><time>2024-11-03T06:36:14.293</time></trkpt><trkpt lat="56.8257796" lon="53.1349453"><time>2024-11-03T06:36:17.293</time></trkpt><trkpt lat="56.8258052" lon="53.1350191"><time>2024-11-03T06:36:20.283</time></trkpt><trkpt lat="56.8258366" lon="53.1350821"><time>2024-11-03T06:36:22.287</time></trkpt><trkpt lat="56.8258720" lon="53.1351427"><time>2024-11-03T06:36:24.293</time></trkpt><trkpt lat="56.8259032" lon="53.1352050"><time>2024-11-03T06:36:26.280</time></trkpt><trkpt lat="56.8259382" lon="53.1352713"><time>2024-11-03T06:36:28.277</time></trkpt><trkpt lat="56.8259813" lon="53.1353409"><time>2024-11-03T06:36:31.280</time></trkpt><trkpt lat="56.8260153" lon="53.1354048"><time>2024-11-03T06:36:33.287</time></trkpt><trkpt lat="56.8260567" lon="53.1354556"><time>2024-11-03T06:36:35.277</time></trkpt><trkpt lat="56.8260887" lon="53.1355268"><time>2024-11-03T06:36:37.287</time></trkpt><trkpt lat="56.8256391" lon="53.1343901"><time>2024-11-03T06:36:39.383</time></trkpt><trkpt lat="56.8256390" lon="53.1343882"><time>2024-11-03T06:36:41.457</time></trkpt><trkpt lat="56.8257935" lon="53.1344394"><time>2024-11-03T06:36:42.490</time></trkpt><trkpt lat="56.8258980" lon="53.1347086"><time>2024-11-03T06:36:43.487</time></trkpt><trkpt lat="56.8259801" lon="53.1350974"><time>2024-11-03T06:36:44.487</time></trkpt><trkpt lat="56.8260592" lon="53.1354780"><time>2024-11-03T06:36:45.490</time></trkpt><trkpt lat="56.8261154" lon="53.1359407"><time>2024-11-03T06:36:46.517</time></trkpt><trkpt lat="56.8256426" lon="53.1344029"><time>2024-11-03T06:36:48.607</time></trkpt><trkpt lat="56.8256446" lon="53.1344170"><time>2024-11-03T06:36:50.690</time></trkpt><trkpt lat="56.8261524" lon="53.1359942"><time>2024-11-03T06:36:51.723</time></trkpt><trkpt lat="56.8256473" lon="53.1344235"><time>2024-11-03T06:36:53.813</time></trkpt><trkpt lat="56.8256500" lon="53.1344290"><time>2024-11-03T06:36:55.897</time></trkpt><trkpt lat="56.8257765" lon="53.1354001"><time>2024-11-03T06:36:56.927</time></trkpt><trkpt lat="56.8259599" lon="53.1357604"><time>2024-11-03T06:36:57.923</time></trkpt><trkpt lat="56.8260849" lon="53.1360563"><time>2024-11-03T06:36:58.937</time></trkpt><trkpt lat="56.8256636" lon="53.1344499"><time>2024-11-03T06:37:01.037</time></trkpt><trkpt lat="56.8256677" lon="53.1344568"><time>2024-11-03T06:37:03.117</time></trkpt><trkpt lat="56.8257446" lon="53.1357431"><time>2024-11-03T06:37:04.140</time></trkpt><trkpt lat="56.8257622" lon="53.1359545"><time>2024-11-03T06:37:05.137</time></trkpt><trkpt lat="56.8258131" lon="53.1360677"><time>2024-11-03T06:37:06.137</time></trkpt><trkpt lat="56.8258788" lon="53.1361645"><time>2024-11-03T06:37:07.143</time></trkpt><trkpt lat="56.8259469" lon="53.1364066"><time>2024-11-03T06:37:08.150</time></trkpt><trkpt lat="56.8260096" lon="53.1365668"><time>2024-11-03T06:37:09.157</time></trkpt><trkpt lat="56.8260705" lon="53.1367087"><time>2024-11-03T06:37:10.163</time></trkpt><trkpt lat="56.8256965" lon="53.1345269"><time>2024-11-03T06:37:12.270</time></trkpt><trkpt lat="56.8257025" lon="53.1345333"><time>2024-11-03T06:37:14.357</time></trkpt><trkpt lat="56.8256889" lon="53.1349151"><time>2024-11-03T06:37:15.367</time></trkpt><trkpt lat="56.8256851" lon="53.1352896"><time>2024-11-03T06:37:16.363</time></trkpt><trkpt lat="56.8256871" lon="53.1356023"><time>2024-11-03T06:37:17.367</time></trkpt><trkpt lat="56.8256207" lon="53.1363676"><time>2024-11-03T06:37:18.373</time></trkpt><trkpt lat="56.8256740" lon="53.1366607"><time>2024-11-03T06:37:19.387</time></trkpt><trkpt lat="56.8257686" lon="53.1367381"><time>2024-11-03T06:37:20.387</time></trkpt><trkpt lat="56.8258532" lon="53.1368499"><time>2024-11-03T06:37:21.383</time></trkpt><trkpt lat="56.8259228" lon="53.1369479"><time>2024-11-03T06:37:22.397</time></trkpt><trkpt lat="56.8259812" lon="53.1370463"><time>2024-11-03T06:37:23.393</time></trkpt><trkpt lat="56.8260532" lon="53.1371428"><time>2024-11-03T06:37:24.397</time></trkpt><trkpt lat="56.8261137" lon="53.1372316"><time>2024-11-03T06:37:25.413</time></trkpt><trkpt lat="56.8257103" lon="53.1345472"><time>2024-11-03T06:37:27.500</time></trkpt><trkpt lat="56.8256237" lon="53.1343632"><time>2024-11-03T06:37:30.487</time></trkpt><trkpt lat="56.8258329" lon="53.1343353"><time>2024-11-03T06:37:31.507</time></trkpt><trkpt lat="56.8260774" lon="53.1348841"><time>2024-11-03T06:37:32.503</time></trkpt><trkpt lat="56.8262779" lon="53.1352568"><time>2024-11-03T06:37:33.520</time></trkpt><trkpt lat="56.8256251" lon="53.1343718"><time>2024-11-03T06:37:36.503</time></trkpt><trkpt lat="56.8256257" lon="53.1343762"><time>2024-11-03T06:37:38.577</time></trkpt><trkpt lat="56.8261665" lon="53.1356026"><time>2024-11-03T06:37:39.620</time></trkpt><trkpt lat="56.8256268" lon="53.1343689"><time>2024-11-03T06:37:42.617</time></trkpt><trkpt lat="56.8256285" lon="53.1343864"><time>2024-11-03T06:37:44.677</time></trkpt><trkpt lat="56.8266819" lon="53.1376442"><time>2024-11-03T06:37:45.727</time></trkpt><trkpt lat="56.8264792" lon="53.1386096"><time>2024-11-03T06:37:50.520</time></trkpt><trkpt lat="56.8264855" lon="53.1386161"><time>2024-11-03T06:37:52.587</time></trkpt><trkpt lat="56.8265383" lon="53.1386198"><time>2024-11-03T06:37:53.607</time></trkpt><trkpt lat="56.8268204" lon="53.1384045"><time>2024-11-03T06:37:54.623</time></trkpt><trkpt lat="56.8264883" lon="53.1386240"><time>2024-11-03T06:37:56.710</time></trkpt><trkpt lat="56.8265207" lon="53.1386438"><time>2024-11-03T06:37:58.783</time></trkpt><trkpt lat="56.8267079" lon="53.1385985"><time>2024-11-03T06:37:59.817</time></trkpt><trkpt lat="56.8265444" lon="53.1386360"><time>2024-11-03T06:38:01.900</time></trkpt><trkpt lat="56.8265426" lon="53.1386333"><time>2024-11-03T06:38:03.963</time></trkpt><trkpt lat="56.8266593" lon="53.1384198"><time>2024-11-03T06:38:04.997</time></trkpt><trkpt lat="56.8265514" lon="53.1386388"><time>2024-11-03T06:38:08.877</time></trkpt><trkpt lat="56.8265508" lon="53.1386358"><time>2024-11-03T06:38:11.850</time></trkpt><trkpt lat="56.8272899" lon="53.1380646"><time>2024-11-03T06:38:12.883</time></trkpt><trkpt lat="56.8272905" lon="53.1380660"><time>2024-11-03T06:38:15.863</time></trkpt><trkpt lat="56.8272017" lon="53.1381538"><time>2024-11-03T06:38:16.880</time></trkpt><trkpt lat="56.8271806" lon="53.1380770"><time>2024-11-03T06:38:17.873</time></trkpt><trkpt lat="56.8271250" lon="53.1380944"><time>2024-11-03T06:38:18.870</time></trkpt><trkpt lat="56.8270694" lon="53.1380909"><time>2024-11-03T06:38:19.880</time></trkpt><trkpt lat="56.8269857" lon="53.1380642"><time>2024-11-03T06:38:20.873</time></trkpt><trkpt lat="56.8269517" lon="53.1380028"><time>2024-11-03T06:38:21.877</time></trkpt><trkpt lat="56.8268819" lon="53.1379071"><time>2024-11-03T06:38:23.873</time></trkpt><trkpt lat="56.8268302" lon="53.1378721"><time>2024-11-03T06:38:24.877</time></trkpt><trkpt lat="56.8267959" lon="53.1378152"><time>2024-11-03T06:38:25.877</time></trkpt><trkpt lat="56.8268394" lon="53.1377730"><time>2024-11-03T06:38:33.897</time></trkpt><trkpt lat="56.8269054" lon="53.1377297"><time>2024-11-03T06:38:36.907</time></trkpt><trkpt lat="56.8269518" lon="53.1377772"><time>2024-11-03T06:38:38.897</time></trkpt><trkpt lat="56.8269918" lon="53.1378485"><time>2024-11-03T06:38:41.893</time></trkpt><trkpt lat="56.8270340" lon="53.1379124"><time>2024-11-03T06:38:43.950</time></trkpt><trkpt lat="56.8270775" lon="53.1379730"><time>2024-11-03T06:38:45.797</time></trkpt><trkpt lat="56.8271287" lon="53.1380277"><time>2024-11-03T06:38:53.270</time></trkpt><trkpt lat="56.8271767" lon="53.1381016"><time>2024-11-03T06:38:55.270</time></trkpt><trkpt lat="56.8272267" lon="53.1381958"><time>2024-11-03T06:38:57.277</time></trkpt><trkpt lat="56.8272773" lon="53.1382777"><time>2024-11-03T06:38:59.277</time></trkpt><trkpt lat="56.8273217" lon="53.1383559"><time>2024-11-03T06:39:01.287</time></trkpt><trkpt lat="56.8273587" lon="53.1384780"><time>2024-11-03T06:39:03.280</time></trkpt><trkpt lat="56.8273886" lon="53.1386012"><time>2024-11-03T06:39:05.287</time></trkpt><trkpt lat="56.8274350" lon="53.1387257"><time>2024-11-03T06:39:07.293</time></trkpt><trkpt lat="56.8274625" lon="53.1388625"><time>2024-11-03T06:39:09.283</time></trkpt><trkpt lat="56.8275000" lon="53.1389944"><time>2024-11-03T06:39:11.287</time></trkpt><trkpt lat="56.8275323" lon="53.1391099"><time>2024-11-03T06:39:13.273</time></trkpt><trkpt lat="56.8275502" lon="53.1392384"><time>2024-11-03T06:39:15.287</time></trkpt><trkpt lat="56.8275668" lon="53.1393417"><time>2024-11-03T06:39:17.283</time></trkpt><trkpt lat="56.8275851" lon="53.1394514"><time>2024-11-03T06:39:20.283</time></trkpt><trkpt lat="56.8275927" lon="53.1395366"><time>2024-11-03T06:39:22.280</time></trkpt><trkpt lat="56.8276073" lon="53.1396348"><time>2024-11-03T06:39:24.280</time></trkpt><trkpt lat="56.8276208" lon="53.1397429"><time>2024-11-03T06:39:26.283</time></trkpt><trkpt lat="56.8276330" lon="53.1398470"><time>2024-11-03T06:39:28.293</time></trkpt><trkpt lat="56.8274444" lon="53.1387383"><time>2024-11-03T06:39:30.390</time></trkpt><trkpt lat="56.8274415" lon="53.1387403"><time>2024-11-03T06:39:32.477</time></trkpt><trkpt lat="56.8274995" lon="53.1387909"><time>2024-11-03T06:39:33.490</time></trkpt><trkpt lat="56.8275557" lon="53.1395482"><time>2024-11-03T06:39:34.497</time></trkpt><trkpt lat="56.8275839" lon="53.1396286"><time>2024-11-03T06:39:35.493</time></trkpt><trkpt lat="56.8275686" lon="53.1400791"><time>2024-11-03T06:39:36.517</time></trkpt><trkpt lat="56.8274429" lon="53.1387435"><time>2024-11-03T06:39:38.607</time></trkpt><trkpt lat="56.8274501" lon="53.1387532"><time>2024-11-03T06:39:40.690</time></trkpt><trkpt lat="56.8275169" lon="53.1388100"><time>2024-11-03T06:39:41.700</time></trkpt><trkpt lat="56.8275821" lon="53.1393946"><time>2024-11-03T06:39:42.707</time></trkpt><trkpt lat="56.8276028" lon="53.1395246"><time>2024-11-03T06:39:43.700</time></trkpt><trkpt lat="56.8275973" lon="53.1403229"><time>2024-11-03T06:39:44.730</time></trkpt><trkpt lat="56.8274619" lon="53.1387720"><time>2024-11-03T06:39:46.840</time></trkpt><trkpt lat="56.8274616" lon="53.1387740"><time>2024-11-03T06:39:48.917</time></trkpt><trkpt lat="56.8279816" lon="53.1398508"><time>2024-11-03T06:39:49.957</time></trkpt><trkpt lat="56.8279825" lon="53.1399394"><time>2024-11-03T06:39:50.967</time></trkpt><trkpt lat="56.8274637" lon="53.1387830"><time>2024-11-03T06:39:53.063</time></trkpt><trkpt lat="56.8274644" lon="53.1387936"><time>2024-11-03T06:39:55.147</time></trkpt><trkpt lat="56.8277068" lon="53.1393518"><time>2024-11-03T06:39:56.180</time></trkpt><trkpt lat="56.8277429" lon="53.1394189"><time>2024-11-03T06:39:57.170</time></trkpt><trkpt lat="56.8278263" lon="53.1399994"><time>2024-11-03T06:39:58.197</time></trkpt><trkpt lat="56.8274674" lon="53.1388070"><time>2024-11-03T06:40:00.283</time></trkpt><trkpt lat="56.8274678" lon="53.1388071"><time>2024-11-03T06:40:02.357</time></trkpt><trkpt lat="56.8274048" lon="53.1391359"><time>2024-11-03T06:40:03.370</time></trkpt><trkpt lat="56.8274292" lon="53.1396387"><time>2024-11-03T06:40:04.373</time></trkpt><trkpt lat="56.8274997" lon="53.1402336"><time>2024-11-03T06:40:05.390</time></trkpt><trkpt lat="56.8274747" lon="53.1388242"><time>2024-11-03T06:40:07.490</time></trkpt><trkpt lat="56.8274744" lon="53.1388252"><time>2024-11-03T06:40:09.563</time></trkpt><trkpt lat="56.8281458" lon="53.1388809"><time>2024-11-03T06:40:10.597</time></trkpt><trkpt lat="56.8280949" lon="53.1390764"><time>2024-11-03T06:40:12.593</time></trkpt><trkpt lat="56.8280276" lon="53.1394483"><time>2024-11-03T06:40:13.597</time></trkpt><trkpt lat="56.8279355" lon="53.1398860"><time>2024-11-03T06:40:14.607</time></trkpt><trkpt lat="56.8278145" lon="53.1403931"><time>2024-11-03T06:40:15.620</time></trkpt><trkpt lat="56.8274774" lon="53.1388361"><time>2024-11-03T06:40:17.703</time></trkpt><trkpt lat="56.8274365" lon="53.1387266"><time>2024-11-03T06:40:21.590</time></trkpt><trkpt lat="56.8276877" lon="53.1381570"><time>2024-11-03T06:40:22.590</time></trkpt><trkpt lat="56.8279245" lon="53.1386259"><time>2024-11-03T06:40:23.597</time></trkpt><trkpt lat="56.8280777" lon="53.1392294"><time>2024-11-03T06:40:24.597</time></trkpt><trkpt lat="56.8280879" lon="53.1395345"><time>2024-11-03T06:40:25.640</time></trkpt><trkpt lat="56.8280726" lon="53.1397229"><time>2024-11-03T06:40:26.593</time></trkpt><trkpt lat="56.8280240" lon="53.1398699"><time>2024-11-03T06:40:27.587</time></trkpt><trkpt lat="56.8278472" lon="53.1404013"><time>2024-11-03T06:40:28.613</time></trkpt><trkpt lat="56.8278472" lon="53.1404013"><time>2024-11-03T06:40:29.510</time></trkpt><trkpt lat="56.8274361" lon="53.1387273"><time>2024-11-03T06:40:31.570</time></trkpt><trkpt lat="56.8274370" lon="53.1387291"><time>2024-11-03T06:40:34.527</time></trkpt><trkpt lat="56.8280424" lon="53.1396300"><time>2024-11-03T06:40:35.473</time></trkpt><trkpt lat="56.8274365" lon="53.1387312"><time>2024-11-03T06:40:38.467</time></trkpt><trkpt lat="56.8274368" lon="53.1387320"><time>2024-11-03T06:40:40.530</time></trkpt><trkpt lat="56.8275625" lon="53.1389962"><time>2024-11-03T06:40:41.557</time></trkpt><trkpt lat="56.8280384" lon="53.1390995"><time>2024-11-03T06:40:42.560</time></trkpt><trkpt lat="56.8282553" lon="53.1392325"><time>2024-11-03T06:40:43.570</time></trkpt><trkpt lat="56.8282294" lon="53.1393397"><time>2024-11-03T06:40:47.577</time></trkpt><trkpt lat="56.8282249" lon="53.1394340"><time>2024-11-03T06:40:49.580</time></trkpt><trkpt lat="56.8282261" lon="53.1395729"><time>2024-11-03T06:40:51.590</time></trkpt><trkpt lat="56.8274324" lon="53.1387301"><time>2024-11-03T06:40:54.570</time></trkpt><trkpt lat="56.8274352" lon="53.1387286"><time>2024-11-03T06:40:57.540</time></trkpt><trkpt lat="56.8284067" lon="53.1386818"><time>2024-11-03T06:40:58.570</time></trkpt><trkpt lat="56.8286130" lon="53.1387400"><time>2024-11-03T06:40:59.573</time></trkpt><trkpt lat="56.8285593" lon="53.1387818"><time>2024-11-03T06:41:00.570</time></trkpt><trkpt lat="56.8286206" lon="53.1390348"><time>2024-11-03T06:41:01.603</time></trkpt><trkpt lat="56.8284689" lon="53.1392386"><time>2024-11-03T06:41:03.597</time></trkpt><trkpt lat="56.8282841" lon="53.1394974"><time>2024-11-03T06:41:05.610</time></trkpt><trkpt lat="56.8274355" lon="53.1387308"><time>2024-11-03T06:41:08.597</time></trkpt><trkpt lat="56.8274355" lon="53.1387314"><time>2024-11-03T06:41:10.667</time></trkpt><trkpt lat="56.8275436" lon="53.1402400"><time>2024-11-03T06:41:11.700</time></trkpt><trkpt lat="56.8274217" lon="53.1387579"><time>2024-11-03T06:41:13.797</time></trkpt><trkpt lat="56.8274266" lon="53.1387622"><time>2024-11-03T06:41:15.873</time></trkpt><trkpt lat="56.8274867" lon="53.1387719"><time>2024-11-03T06:41:17.900</time></trkpt><trkpt lat="56.8274418" lon="53.1388269"><time>2024-11-03T06:41:18.903</time></trkpt><trkpt lat="56.8274749" lon="53.1388907"><time>2024-11-03T06:41:20.907</time></trkpt><trkpt lat="56.8275797" lon="53.1389930"><time>2024-11-03T06:41:24.907</time></trkpt><trkpt lat="56.8275675" lon="53.1390877"><time>2024-11-03T06:41:25.923</time></trkpt><trkpt lat="56.8275954" lon="53.1391543"><time>2024-11-03T06:41:26.933</time></trkpt><trkpt lat="56.8276415" lon="53.1392325"><time>2024-11-03T06:41:28.933</time></trkpt><trkpt lat="56.8276339" lon="53.1391427"><time>2024-11-03T06:41:41.933</time></trkpt><trkpt lat="56.8276340" lon="53.1390469"><time>2024-11-03T06:41:46.953</time></trkpt><trkpt lat="56.8276420" lon="53.1389494"><time>2024-11-03T06:41:51.940</time></trkpt><trkpt lat="56.8276570" lon="53.1388577"><time>2024-11-03T06:41:55.930</time></trkpt><trkpt lat="56.8276603" lon="53.1387520"><time>2024-11-03T06:41:59.937</time></trkpt><trkpt lat="56.8276663" lon="53.1386398"><time>2024-11-03T06:42:02.957</time></trkpt><trkpt lat="56.8276615" lon="53.1385506"><time>2024-11-03T06:42:04.953</time></trkpt><trkpt lat="56.8276647" lon="53.1384572"><time>2024-11-03T06:42:08.937</time></trkpt><trkpt lat="56.8276870" lon="53.1383860"><time>2024-11-03T06:42:11.920</time></trkpt><trkpt lat="56.8277103" lon="53.1383115"><time>2024-11-03T06:42:14.937</time></trkpt><trkpt lat="56.8277271" lon="53.1382321"><time>2024-11-03T06:42:17.920</time></trkpt><trkpt lat="56.8277194" lon="53.1381502"><time>2024-11-03T06:42:20.923</time></trkpt><trkpt lat="56.8277037" lon="53.1380584"><time>2024-11-03T06:42:23.940</time></trkpt><trkpt lat="56.8277248" lon="53.1379689"><time>2024-11-03T06:42:27.933</time></trkpt><trkpt lat="56.8277128" lon="53.1378841"><time>2024-11-03T06:42:35.947</time></trkpt><trkpt lat="56.8277186" lon="53.1381481"><time>2024-11-03T06:42:38.010</time></trkpt><trkpt lat="56.8277189" lon="53.1381475"><time>2024-11-03T06:42:40.080</time></trkpt><trkpt lat="56.8278784" lon="53.1379055"><time>2024-11-03T06:42:41.113</time></trkpt><trkpt lat="56.8277193" lon="53.1381461"><time>2024-11-03T06:42:43.187</time></trkpt><trkpt lat="56.8277199" lon="53.1381392"><time>2024-11-03T06:42:46.237</time></trkpt><trkpt lat="56.8276936" lon="53.1380297"><time>2024-11-03T06:42:50.270</time></trkpt><trkpt lat="56.8276693" lon="53.1379296"><time>2024-11-03T06:42:53.287</time></trkpt><trkpt lat="56.8277268" lon="53.1378046"><time>2024-11-03T06:42:54.283</time></trkpt><trkpt lat="56.8277197" lon="53.1381347"><time>2024-11-03T06:42:56.373</time></trkpt><trkpt lat="56.8277199" lon="53.1381353"><time>2024-11-03T06:42:58.437</time></trkpt><trkpt lat="56.8281186" lon="53.1373035"><time>2024-11-03T06:42:59.477</time></trkpt><trkpt lat="56.8277227" lon="53.1381131"><time>2024-11-03T06:43:01.597</time></trkpt><trkpt lat="56.8277233" lon="53.1381127"><time>2024-11-03T06:43:03.660</time></trkpt><trkpt lat="56.8279298" lon="53.1374749"><time>2024-11-03T06:43:04.600</time></trkpt><trkpt lat="56.8277237" lon="53.1381125"><time>2024-11-03T06:43:06.653</time></trkpt><trkpt lat="56.8277345" lon="53.1381122"><time>2024-11-03T06:43:08.733</time></trkpt><trkpt lat="56.8277788" lon="53.1372167"><time>2024-11-03T06:43:09.763</time></trkpt><trkpt lat="56.8277324" lon="53.1381069"><time>2024-11-03T06:43:11.853</time></trkpt><trkpt lat="56.8277345" lon="53.1381056"><time>2024-11-03T06:43:14.840</time></trkpt><trkpt lat="56.8277372" lon="53.1379033"><time>2024-11-03T06:43:15.863</time></trkpt><trkpt lat="56.8277331" lon="53.1380990"><time>2024-11-03T06:43:17.960</time></trkpt><trkpt lat="56.8277334" lon="53.1380979"><time>2024-11-03T06:43:20.033</time></trkpt><trkpt lat="56.8274095" lon="53.1378362"><time>2024-11-03T06:43:21.087</time></trkpt><trkpt lat="56.8274171" lon="53.1377271"><time>2024-11-03T06:43:22.060</time></trkpt><trkpt lat="56.8274171" lon="53.1377271"><time>2024-11-03T06:43:23.290</time></trkpt><trkpt lat="56.8277324" lon="53.1380965"><time>2024-11-03T06:43:24.110</time></trkpt><trkpt lat="56.8277318" lon="53.1380880"><time>2024-11-03T06:43:27.087</time></trkpt><trkpt lat="56.8277447" lon="53.1379834"><time>2024-11-03T06:43:29.113</time></trkpt><trkpt lat="56.8276913" lon="53.1378539"><time>2024-11-03T06:43:31.107</time></trkpt><trkpt lat="56.8276505" lon="53.1377153"><time>2024-11-03T06:43:32.113</time></trkpt><trkpt lat="56.8276601" lon="53.1375515"><time>2024-11-03T06:43:35.127</time></trkpt><trkpt lat="56.8276779" lon="53.1374657"><time>2024-11-03T06:43:36.027</time></trkpt><trkpt lat="56.8277239" lon="53.1374252"><time>2024-11-03T06:43:36.930</time></trkpt><trkpt lat="56.8277681" lon="53.1373634"><time>2024-11-03T06:43:37.847</time></trkpt><trkpt lat="56.8278160" lon="53.1372293"><time>2024-11-03T06:43:38.753</time></trkpt><trkpt lat="56.8278481" lon="53.1371244"><time>2024-11-03T06:43:39.653</time></trkpt><trkpt lat="56.8278755" lon="53.1370507"><time>2024-11-03T06:43:40.553</time></trkpt><trkpt lat="56.8279042" lon="53.1369549"><time>2024-11-03T06:43:42.353</time></trkpt><trkpt lat="56.8279115" lon="53.1370454"><time>2024-11-03T06:43:52.313</time></trkpt><trkpt lat="56.8279012" lon="53.1371379"><time>2024-11-03T06:43:58.317</time></trkpt><trkpt lat="56.8278805" lon="53.1372223"><time>2024-11-03T06:44:02.303</time></trkpt><trkpt lat="56.8278475" lon="53.1372993"><time>2024-11-03T06:44:05.313</time></trkpt><trkpt lat="56.8278188" lon="53.1373681"><time>2024-11-03T06:44:08.313</time></trkpt><trkpt lat="56.8277988" lon="53.1374557"><time>2024-11-03T06:44:14.307</time></trkpt><trkpt lat="56.8277848" lon="53.1375671"><time>2024-11-03T06:44:17.333</time></trkpt><trkpt lat="56.8277721" lon="53.1376473"><time>2024-11-03T06:44:21.317</time></trkpt><trkpt lat="56.8277364" lon="53.1377226"><time>2024-11-03T06:44:24.293</time></trkpt><trkpt lat="56.8277310" lon="53.1378250"><time>2024-11-03T06:44:30.303</time></trkpt><trkpt lat="56.8277266" lon="53.1379108"><time>2024-11-03T06:44:33.287</time></trkpt><trkpt lat="56.8277029" lon="53.1380117"><time>2024-11-03T06:44:36.297</time></trkpt><trkpt lat="56.8276848" lon="53.1381043"><time>2024-11-03T06:44:39.297</time></trkpt><trkpt lat="56.8276682" lon="53.1381870"><time>2024-11-03T06:44:41.300</time></trkpt><trkpt lat="56.8276584" lon="53.1382689"><time>2024-11-03T06:44:43.293</time></trkpt><trkpt lat="56.8276576" lon="53.1383696"><time>2024-11-03T06:44:45.310</time></trkpt><trkpt lat="56.8276607" lon="53.1384655"><time>2024-11-03T06:44:47.313</time></trkpt><trkpt lat="56.8276589" lon="53.1385580"><time>2024-11-03T06:44:49.297</time></trkpt><trkpt lat="56.8276575" lon="53.1386636"><time>2024-11-03T06:44:51.293</time></trkpt><trkpt lat="56.8276461" lon="53.1388143"><time>2024-11-03T06:44:53.287</time></trkpt><trkpt lat="56.8276367" lon="53.1389633"><time>2024-11-03T06:44:55.317</time></trkpt><trkpt lat="56.8276273" lon="53.1390993"><time>2024-11-03T06:44:57.317</time></trkpt><trkpt lat="56.8276247" lon="53.1392344"><time>2024-11-03T06:44:59.300</time></trkpt><trkpt lat="56.8276275" lon="53.1393310"><time>2024-11-03T06:45:01.297</time></trkpt><trkpt lat="56.8276370" lon="53.1394260"><time>2024-11-03T06:45:03.277</time></trkpt><trkpt lat="56.8276569" lon="53.1395243"><time>2024-11-03T06:45:06.287</time></trkpt><trkpt lat="56.8276599" lon="53.1396087"><time>2024-11-03T06:45:08.287</time></trkpt><trkpt lat="56.8276602" lon="53.1396922"><time>2024-11-03T06:45:10.290</time></trkpt><trkpt lat="56.8276583" lon="53.1398028"><time>2024-11-03T06:45:12.297</time></trkpt><trkpt lat="56.8276595" lon="53.1399010"><time>2024-11-03T06:45:14.287</time></trkpt><trkpt lat="56.8276662" lon="53.1399952"><time>2024-11-03T06:45:16.287</time></trkpt><trkpt lat="56.8276704" lon="53.1401090"><time>2024-11-03T06:45:19.297</time></trkpt><trkpt lat="56.8276715" lon="53.1402073"><time>2024-11-03T06:45:22.307</time></trkpt><trkpt lat="56.8276759" lon="53.1403146"><time>2024-11-03T06:45:25.320</time></trkpt><trkpt lat="56.8276752" lon="53.1404211"><time>2024-11-03T06:45:28.327</time></trkpt><trkpt lat="56.8276771" lon="53.1405284"><time>2024-11-03T06:45:31.297</time></trkpt><trkpt lat="56.8276735" lon="53.1406201"><time>2024-11-03T06:45:34.293</time></trkpt><trkpt lat="56.8276788" lon="53.1407372"><time>2024-11-03T06:45:38.293</time></trkpt><trkpt lat="56.8276871" lon="53.1408363"><time>2024-11-03T06:45:41.293</time></trkpt><trkpt lat="56.8276987" lon="53.1409247"><time>2024-11-03T06:45:43.300</time></trkpt><trkpt lat="56.8277039" lon="53.1410083"><time>2024-11-03T06:45:45.283</time></trkpt><trkpt lat="56.8277137" lon="53.1411385"><time>2024-11-03T06:45:48.297</time></trkpt><trkpt lat="56.8277209" lon="53.1412736"><time>2024-11-03T06:45:50.300</time></trkpt><trkpt lat="56.8277165" lon="53.1414300"><time>2024-11-03T06:45:52.300</time></trkpt><trkpt lat="56.8277192" lon="53.1415447"><time>2024-11-03T06:45:53.283</time></trkpt><trkpt lat="56.8277141" lon="53.1416593"><time>2024-11-03T06:45:54.280</time></trkpt><trkpt lat="56.8277094" lon="53.1417551"><time>2024-11-03T06:45:55.310</time></trkpt><trkpt lat="56.8277122" lon="53.1418870"><time>2024-11-03T06:45:57.287</time></trkpt><trkpt lat="56.8277202" lon="53.1419722"><time>2024-11-03T06:45:59.317</time></trkpt><trkpt lat="56.8277200" lon="53.1420606"><time>2024-11-03T06:46:01.297</time></trkpt><trkpt lat="56.8277253" lon="53.1421441"><time>2024-11-03T06:46:04.290</time></trkpt><trkpt lat="56.8277277" lon="53.1422334"><time>2024-11-03T06:46:09.287</time></trkpt><trkpt lat="56.8277040" lon="53.1423227"><time>2024-11-03T06:46:13.297</time></trkpt><trkpt lat="56.8276817" lon="53.1424021"><time>2024-11-03T06:46:16.290</time></trkpt><trkpt lat="56.8276622" lon="53.1424824"><time>2024-11-03T06:46:19.297</time></trkpt><trkpt lat="56.8276251" lon="53.1425667"><time>2024-11-03T06:46:22.310</time></trkpt><trkpt lat="56.8275899" lon="53.1426428"><time>2024-11-03T06:46:25.313</time></trkpt><trkpt lat="56.8275480" lon="53.1427222"><time>2024-11-03T06:46:28.303</time></trkpt><trkpt lat="56.8275173" lon="53.1428132"><time>2024-11-03T06:46:31.307</time></trkpt><trkpt lat="56.8274885" lon="53.1429016"><time>2024-11-03T06:46:34.293</time></trkpt><trkpt lat="56.8274578" lon="53.1429704"><time>2024-11-03T06:46:37.290</time></trkpt><trkpt lat="56.8274293" lon="53.1430531"><time>2024-11-03T06:46:41.297</time></trkpt><trkpt lat="56.8273982" lon="53.1431423"><time>2024-11-03T06:46:45.310</time></trkpt><trkpt lat="56.8273684" lon="53.1432283"><time>2024-11-03T06:46:50.303</time></trkpt><trkpt lat="56.8273767" lon="53.1433274"><time>2024-11-03T06:46:54.310</time></trkpt><trkpt lat="56.8273799" lon="53.1434461"><time>2024-11-03T06:46:57.303</time></trkpt><trkpt lat="56.8273823" lon="53.1435485"><time>2024-11-03T06:46:59.297</time></trkpt><trkpt lat="56.8273864" lon="53.1436624"><time>2024-11-03T06:47:01.337</time></trkpt><trkpt lat="56.8273916" lon="53.1437786"><time>2024-11-03T06:47:03.307</time></trkpt><trkpt lat="56.8273993" lon="53.1438753"><time>2024-11-03T06:47:05.313</time></trkpt><trkpt lat="56.8273959" lon="53.1439678"><time>2024-11-03T06:47:07.307</time></trkpt><trkpt lat="56.8273968" lon="53.1440726"><time>2024-11-03T06:47:09.307</time></trkpt><trkpt lat="56.8274006" lon="53.1441586"><time>2024-11-03T06:47:11.300</time></trkpt><trkpt lat="56.8274036" lon="53.1442561"><time>2024-11-03T06:47:13.300</time></trkpt><trkpt lat="56.8273986" lon="53.1443658"><time>2024-11-03T06:47:16.280</time></trkpt><trkpt lat="56.8274195" lon="53.1444592"><time>2024-11-03T06:47:20.310</time></trkpt><trkpt lat="56.8274346" lon="53.1445501"><time>2024-11-03T06:47:24.300</time></trkpt><trkpt lat="56.8274416" lon="53.1446451"><time>2024-11-03T06:47:26.297</time></trkpt><trkpt lat="56.8274436" lon="53.1447736"><time>2024-11-03T06:47:28.297</time></trkpt><trkpt lat="56.8274523" lon="53.1449342"><time>2024-11-03T06:47:30.303</time></trkpt><trkpt lat="56.8274551" lon="53.1450586"><time>2024-11-03T06:47:32.323</time></trkpt><trkpt lat="56.8274454" lon="53.1451897"><time>2024-11-03T06:47:35.293</time></trkpt><trkpt lat="56.8274397" lon="53.1452831"><time>2024-11-03T06:47:37.300</time></trkpt><trkpt lat="56.8274338" lon="53.1453830"><time>2024-11-03T06:47:40.307</time></trkpt><trkpt lat="56.8274486" lon="53.1451361"><time>2024-11-03T06:47:42.387</time></trkpt><trkpt lat="56.8274483" lon="53.1451364"><time>2024-11-03T06:47:45.353</time></trkpt><trkpt lat="56.8273254" lon="53.1455078"><time>2024-11-03T06:47:46.393</time></trkpt><trkpt lat="56.8272881" lon="53.1457452"><time>2024-11-03T06:47:47.397</time></trkpt><trkpt lat="56.8274479" lon="53.1451381"><time>2024-11-03T06:47:49.480</time></trkpt><trkpt lat="56.8274466" lon="53.1451430"><time>2024-11-03T06:47:51.570</time></trkpt><trkpt lat="56.8274055" lon="53.1453941"><time>2024-11-03T06:47:52.587</time></trkpt><trkpt lat="56.8273376" lon="53.1455547"><time>2024-11-03T06:47:53.597</time></trkpt><trkpt lat="56.8274472" lon="53.1451512"><time>2024-11-03T06:47:55.693</time></trkpt><trkpt lat="56.8274474" lon="53.1451531"><time>2024-11-03T06:47:57.773</time></trkpt><trkpt lat="56.8274266" lon="53.1455316"><time>2024-11-03T06:47:58.803</time></trkpt><trkpt lat="56.8274472" lon="53.1451556"><time>2024-11-03T06:48:00.890</time></trkpt><trkpt lat="56.8274493" lon="53.1451587"><time>2024-11-03T06:48:02.973</time></trkpt><trkpt lat="56.8274116" lon="53.1453810"><time>2024-11-03T06:48:03.997</time></trkpt><trkpt lat="56.8273857" lon="53.1455503"><time>2024-11-03T06:48:04.900</time></trkpt><trkpt lat="56.8274483" lon="53.1451588"><time>2024-11-03T06:48:06.997</time></trkpt><trkpt lat="56.8274479" lon="53.1451605"><time>2024-11-03T06:48:09.077</time></trkpt><trkpt lat="56.8274485" lon="53.1453536"><time>2024-11-03T06:48:10.117</time></trkpt><trkpt lat="56.8273722" lon="53.1458424"><time>2024-11-03T06:48:11.130</time></trkpt><trkpt lat="56.8274476" lon="53.1451617"><time>2024-11-03T06:48:13.220</time></trkpt><trkpt lat="56.8274488" lon="53.1451666"><time>2024-11-03T06:48:15.313</time></trkpt><trkpt lat="56.8273822" lon="53.1452787"><time>2024-11-03T06:48:16.323</time></trkpt><trkpt lat="56.8272502" lon="53.1454469"><time>2024-11-03T06:48:17.323</time></trkpt><trkpt lat="56.8272348" lon="53.1455532"><time>2024-11-03T06:48:18.333</time></trkpt><trkpt lat="56.8272924" lon="53.1456399"><time>2024-11-03T06:48:20.350</time></trkpt><trkpt lat="56.8274488" lon="53.1451386"><time>2024-11-03T06:48:23.320</time></trkpt><trkpt lat="56.8274487" lon="53.1451388"><time>2024-11-03T06:48:25.387</time></trkpt><trkpt lat="56.8274848" lon="53.1453475"><time>2024-11-03T06:48:27.423</time></trkpt><trkpt lat="56.8274511" lon="53.1451414"><time>2024-11-03T06:48:29.493</time></trkpt><trkpt lat="56.8274545" lon="53.1451438"><time>2024-11-03T06:48:32.477</time></trkpt><trkpt lat="56.8274595" lon="53.1452804"><time>2024-11-03T06:48:33.487</time></trkpt><trkpt lat="56.8275035" lon="53.1455991"><time>2024-11-03T06:48:34.497</time></trkpt><trkpt lat="56.8274562" lon="53.1451457"><time>2024-11-03T06:48:36.577</time></trkpt><trkpt lat="56.8274487" lon="53.1451363"><time>2024-11-03T06:48:40.457</time></trkpt><trkpt lat="56.8273832" lon="53.1454507"><time>2024-11-03T06:48:41.490</time></trkpt><trkpt lat="56.8274501" lon="53.1451394"><time>2024-11-03T06:48:43.577</time></trkpt><trkpt lat="56.8274504" lon="53.1451418"><time>2024-11-03T06:48:45.653</time></trkpt><trkpt lat="56.8278919" lon="53.1471200"><time>2024-11-03T06:48:46.707</time></trkpt><trkpt lat="56.8274505" lon="53.1451460"><time>2024-11-03T06:48:48.793</time></trkpt><trkpt lat="56.8274511" lon="53.1451418"><time>2024-11-03T06:48:51.780</time></trkpt><trkpt lat="56.8275498" lon="53.1453938"><time>2024-11-03T06:48:52.810</time></trkpt><trkpt lat="56.8274530" lon="53.1451465"><time>2024-11-03T06:48:54.903</time></trkpt><trkpt lat="56.8274545" lon="53.1451500"><time>2024-11-03T06:48:56.987</time></trkpt><trkpt lat="56.8275598" lon="53.1452529"><time>2024-11-03T06:48:58.037</time></trkpt><trkpt lat="56.8274545" lon="53.1451505"><time>2024-11-03T06:49:00.117</time></trkpt><trkpt lat="56.8274547" lon="53.1451530"><time>2024-11-03T06:49:02.187</time></trkpt><trkpt lat="56.8278647" lon="53.1456991"><time>2024-11-03T06:49:03.220</time></trkpt><trkpt lat="56.8274550" lon="53.1451541"><time>2024-11-03T06:49:05.307</time></trkpt><trkpt lat="56.8274554" lon="53.1451561"><time>2024-11-03T06:49:07.393</time></trkpt><trkpt lat="56.8276625" lon="53.1456508"><time>2024-11-03T06:49:08.420</time></trkpt><trkpt lat="56.8274503" lon="53.1451402"><time>2024-11-03T06:49:11.417</time></trkpt><trkpt lat="56.8274507" lon="53.1451420"><time>2024-11-03T06:49:13.490</time></trkpt><trkpt lat="56.8274155" lon="53.1455285"><time>2024-11-03T06:49:14.503</time></trkpt><trkpt lat="56.8274508" lon="53.1451422"><time>2024-11-03T06:49:16.587</time></trkpt><trkpt lat="56.8274516" lon="53.1451476"><time>2024-11-03T06:49:18.647</time></trkpt><trkpt lat="56.8280203" lon="53.1459345"><time>2024-11-03T06:49:19.690</time></trkpt><trkpt lat="56.8274489" lon="53.1451380"><time>2024-11-03T06:49:22.680</time></trkpt><trkpt lat="56.8274486" lon="53.1451377"><time>2024-11-03T06:49:25.660</time></trkpt><trkpt lat="56.8274175" lon="53.1461219"><time>2024-11-03T06:49:26.690</time></trkpt><trkpt lat="56.8274489" lon="53.1451394"><time>2024-11-03T06:49:28.767</time></trkpt><trkpt lat="56.8274500" lon="53.1451394"><time>2024-11-03T06:49:32.650</time></trkpt><trkpt lat="56.8275693" lon="53.1453352"><time>2024-11-03T06:49:33.673</time></trkpt><trkpt lat="56.8274490" lon="53.1451384"><time>2024-11-03T06:49:36.650</time></trkpt><trkpt lat="56.8274490" lon="53.1451402"><time>2024-11-03T06:49:38.717</time></trkpt><trkpt lat="56.8275035" lon="53.1450379"><time>2024-11-03T06:49:40.733</time></trkpt><trkpt lat="56.8275035" lon="53.1450379"><time>2024-11-03T06:49:41.707</time></trkpt><trkpt lat="56.8275511" lon="53.1449805"><time>2024-11-03T06:49:41.937</time></trkpt><trkpt lat="56.8275964" lon="53.1449222"><time>2024-11-03T06:49:42.740</time></trkpt><trkpt lat="56.8276311" lon="53.1446762"><time>2024-11-03T06:49:43.743</time></trkpt><trkpt lat="56.8275908" lon="53.1445650"><time>2024-11-03T06:49:44.743</time></trkpt><trkpt lat="56.8275520" lon="53.1445101"><time>2024-11-03T06:49:48.610</time></trkpt><trkpt lat="56.8275212" lon="53.1444203"><time>2024-11-03T06:49:51.323</time></trkpt><trkpt lat="56.8275931" lon="53.1445412"><time>2024-11-03T06:49:55.243</time></trkpt><trkpt lat="56.8275802" lon="53.1446302"><time>2024-11-03T06:49:58.273</time></trkpt><trkpt lat="56.8278182" lon="53.1453223"><time>2024-11-03T06:50:00.300</time></trkpt><trkpt lat="56.8278247" lon="53.1454658"><time>2024-11-03T06:50:01.277</time></trkpt><trkpt lat="56.8279228" lon="53.1459556"><time>2024-11-03T06:50:02.283</time></trkpt><trkpt lat="56.8279489" lon="53.1460351"><time>2024-11-03T06:50:04.283</time></trkpt><trkpt lat="56.8279563" lon="53.1461191"><time>2024-11-03T06:50:08.323</time></trkpt><trkpt lat="56.8279373" lon="53.1462164"><time>2024-11-03T06:50:16.287</time></trkpt><trkpt lat="56.8279159" lon="53.1463275"><time>2024-11-03T06:50:18.287</time></trkpt><trkpt lat="56.8278962" lon="53.1464390"><time>2024-11-03T06:50:21.283</time></trkpt><trkpt lat="56.8278868" lon="53.1465296"><time>2024-11-03T06:50:23.287</time></trkpt><trkpt lat="56.8278908" lon="53.1466392"><time>2024-11-03T06:50:26.277</time></trkpt><trkpt lat="56.8278769" lon="53.1467505"><time>2024-11-03T06:50:28.277</time></trkpt><trkpt lat="56.8278427" lon="53.1468312"><time>2024-11-03T06:50:30.273</time></trkpt><trkpt lat="56.8278225" lon="53.1469582"><time>2024-11-03T06:50:32.263</time></trkpt><trkpt lat="56.8278183" lon="53.1470496"><time>2024-11-03T06:50:33.273</time></trkpt><trkpt lat="56.8278210" lon="53.1471872"><time>2024-11-03T06:50:35.283</time></trkpt><trkpt lat="56.8278044" lon="53.1472773"><time>2024-11-03T06:50:38.333</time></trkpt><trkpt lat="56.8277631" lon="53.1473109"><time>2024-11-03T06:50:44.297</time></trkpt><trkpt lat="56.8277167" lon="53.1472953"><time>2024-11-03T06:50:48.337</time></trkpt><trkpt lat="56.8276709" lon="53.1472879"><time>2024-11-03T06:50:52.280</time></trkpt><trkpt lat="56.8276363" lon="53.1472252"><time>2024-11-03T06:51:02.463</time></trkpt><trkpt lat="56.8275822" lon="53.1471558"><time>2024-11-03T06:51:06.253</time></trkpt><trkpt lat="56.8275171" lon="53.1471275"><time>2024-11-03T06:51:09.297</time></trkpt><trkpt lat="56.8274724" lon="53.1471347"><time>2024-11-03T06:51:11.280</time></trkpt><trkpt lat="56.8274236" lon="53.1471035"><time>2024-11-03T06:51:14.290</time></trkpt><trkpt lat="56.8274007" lon="53.1470011"><time>2024-11-03T06:51:17.290</time></trkpt><trkpt lat="56.8273753" lon="53.1469107"><time>2024-11-03T06:51:21.293</time></trkpt><trkpt lat="56.8273371" lon="53.1468517"><time>2024-11-03T06:51:24.287</time></trkpt><trkpt lat="56.8272870" lon="53.1467980"><time>2024-11-03T06:51:27.287</time></trkpt><trkpt lat="56.8272368" lon="53.1467628"><time>2024-11-03T06:51:30.277</time></trkpt><trkpt lat="56.8272284" lon="53.1466772"><time>2024-11-03T06:51:33.267</time></trkpt><trkpt lat="56.8272070" lon="53.1465702"><time>2024-11-03T06:51:36.273</time></trkpt><trkpt lat="56.8271881" lon="53.1464690"><time>2024-11-03T06:51:39.277</time></trkpt><trkpt lat="56.8271863" lon="53.1463853"><time>2024-11-03T06:51:42.277</time></trkpt><trkpt lat="56.8271730" lon="53.1462859"><time>2024-11-03T06:51:45.280</time></trkpt><trkpt lat="56.8271626" lon="53.1461951"><time>2024-11-03T06:51:48.277</time></trkpt><trkpt lat="56.8271575" lon="53.1461058"><time>2024-11-03T06:51:51.277</time></trkpt><trkpt lat="56.8271480" lon="53.1460121"><time>2024-11-03T06:51:55.277</time></trkpt><trkpt lat="56.8271359" lon="53.1459304"><time>2024-11-03T06:51:59.283</time></trkpt><trkpt lat="56.8271013" lon="53.1458382"><time>2024-11-03T06:52:03.273</time></trkpt><trkpt lat="56.8270642" lon="53.1457800"><time>2024-11-03T06:52:06.277</time></trkpt><trkpt lat="56.8270403" lon="53.1456829"><time>2024-11-03T06:52:10.277</time></trkpt><trkpt lat="56.8270364" lon="53.1455766"><time>2024-11-03T06:52:15.277</time></trkpt><trkpt lat="56.8270045" lon="53.1454568"><time>2024-11-03T06:52:18.280</time></trkpt><trkpt lat="56.8269779" lon="53.1453395"><time>2024-11-03T06:52:20.273</time></trkpt><trkpt lat="56.8269376" lon="53.1452151"><time>2024-11-03T06:52:22.277</time></trkpt><trkpt lat="56.8269087" lon="53.1450818"><time>2024-11-03T06:52:24.273</time></trkpt><trkpt lat="56.8268844" lon="53.1449692"><time>2024-11-03T06:52:26.277</time></trkpt><trkpt lat="56.8268677" lon="53.1448776"><time>2024-11-03T06:52:28.273</time></trkpt><trkpt lat="56.8268579" lon="53.1447727"><time>2024-11-03T06:52:30.277</time></trkpt><trkpt lat="56.8268427" lon="53.1446605"><time>2024-11-03T06:52:32.277</time></trkpt><trkpt lat="56.8268256" lon="53.1445421"><time>2024-11-03T06:52:34.280</time></trkpt><trkpt lat="56.8267988" lon="53.1444155"><time>2024-11-03T06:52:36.283</time></trkpt><trkpt lat="56.8267654" lon="53.1442896"><time>2024-11-03T06:52:38.287</time></trkpt><trkpt lat="56.8267323" lon="53.1441510"><time>2024-11-03T06:52:40.273</time></trkpt><trkpt lat="56.8267092" lon="53.1440421"><time>2024-11-03T06:52:42.290</time></trkpt><trkpt lat="56.8266949" lon="53.1439602"><time>2024-11-03T06:52:44.273</time></trkpt><trkpt lat="56.8266955" lon="53.1438529"><time>2024-11-03T06:52:46.287</time></trkpt><trkpt lat="56.8267062" lon="53.1437620"><time>2024-11-03T06:52:48.277</time></trkpt><trkpt lat="56.8267200" lon="53.1436670"><time>2024-11-03T06:52:50.277</time></trkpt><trkpt lat="56.8267254" lon="53.1435745"><time>2024-11-03T06:52:52.280</time></trkpt><trkpt lat="56.8267269" lon="53.1434697"><time>2024-11-03T06:52:54.277</time></trkpt><trkpt lat="56.8267258" lon="53.1433845"><time>2024-11-03T06:52:56.293</time></trkpt><trkpt lat="56.8267193" lon="53.1432690"><time>2024-11-03T06:52:59.300</time></trkpt><trkpt lat="56.8266981" lon="53.1431593"><time>2024-11-03T06:53:02.297</time></trkpt><trkpt lat="56.8266801" lon="53.1430585"><time>2024-11-03T06:53:05.303</time></trkpt><trkpt lat="56.8266810" lon="53.1429660"><time>2024-11-03T06:53:09.300</time></trkpt><trkpt lat="56.8266810" lon="53.1428636"><time>2024-11-03T06:53:13.323</time></trkpt><trkpt lat="56.8266743" lon="53.1427826"><time>2024-11-03T06:53:16.313</time></trkpt><trkpt lat="56.8266720" lon="53.1426941"><time>2024-11-03T06:53:19.313</time></trkpt><trkpt lat="56.8266747" lon="53.1425795"><time>2024-11-03T06:53:22.310</time></trkpt><trkpt lat="56.8266744" lon="53.1424706"><time>2024-11-03T06:53:25.313</time></trkpt><trkpt lat="56.8266830" lon="53.1423739"><time>2024-11-03T06:53:28.313</time></trkpt><trkpt lat="56.8266807" lon="53.1422871"><time>2024-11-03T06:53:31.310</time></trkpt><trkpt lat="56.8266853" lon="53.1421930"><time>2024-11-03T06:53:34.303</time></trkpt><trkpt lat="56.8266909" lon="53.1420808"><time>2024-11-03T06:53:37.293</time></trkpt><trkpt lat="56.8266943" lon="53.1419956"><time>2024-11-03T06:53:39.293</time></trkpt><trkpt lat="56.8266869" lon="53.1418836"><time>2024-11-03T06:53:42.307</time></trkpt><trkpt lat="56.8266951" lon="53.1417898"><time>2024-11-03T06:53:45.307</time></trkpt><trkpt lat="56.8267054" lon="53.1416726"><time>2024-11-03T06:53:48.293</time></trkpt><trkpt lat="56.8267071" lon="53.1415662"><time>2024-11-03T06:53:50.303</time></trkpt><trkpt lat="56.8267155" lon="53.1414553"><time>2024-11-03T06:53:53.297</time></trkpt><trkpt lat="56.8267271" lon="53.1413519"><time>2024-11-03T06:53:56.307</time></trkpt><trkpt lat="56.8267288" lon="53.1412342"><time>2024-11-03T06:53:59.313</time></trkpt><trkpt lat="56.8267362" lon="53.1411060"><time>2024-11-03T06:54:02.290</time></trkpt><trkpt lat="56.8267487" lon="53.1410019"><time>2024-11-03T06:54:05.297</time></trkpt><trkpt lat="56.8267553" lon="53.1408964"><time>2024-11-03T06:54:08.297</time></trkpt><trkpt lat="56.8267553" lon="53.1407763"><time>2024-11-03T06:54:11.290</time></trkpt><trkpt lat="56.8267622" lon="53.1406903"><time>2024-11-03T06:54:14.290</time></trkpt><trkpt lat="56.8267532" lon="53.1405960"><time>2024-11-03T06:54:17.303</time></trkpt><trkpt lat="56.8267362" lon="53.1405011"><time>2024-11-03T06:54:20.300</time></trkpt><trkpt lat="56.8267167" lon="53.1404040"><time>2024-11-03T06:54:23.300</time></trkpt><trkpt lat="56.8266964" lon="53.1403228"><time>2024-11-03T06:54:26.297</time></trkpt><trkpt lat="56.8266743" lon="53.1402353"><time>2024-11-03T06:54:29.310</time></trkpt><trkpt lat="56.8266482" lon="53.1401386"><time>2024-11-03T06:54:32.310</time></trkpt><trkpt lat="56.8266222" lon="53.1400428"><time>2024-11-03T06:54:35.317</time></trkpt><trkpt lat="56.8265973" lon="53.1399529"><time>2024-11-03T06:54:38.337</time></trkpt><trkpt lat="56.8265855" lon="53.1398699"><time>2024-11-03T06:54:41.300</time></trkpt><trkpt lat="56.8265645" lon="53.1397849"><time>2024-11-03T06:54:44.307</time></trkpt><trkpt lat="56.8265543" lon="53.1396701"><time>2024-11-03T06:54:48.303</time></trkpt><trkpt lat="56.8265357" lon="53.1395741"><time>2024-11-03T06:54:51.300</time></trkpt><trkpt lat="56.8265242" lon="53.1394887"><time>2024-11-03T06:54:54.290</time></trkpt><trkpt lat="56.8265252" lon="53.1393704"><time>2024-11-03T06:54:57.270</time></trkpt><trkpt lat="56.8265216" lon="53.1392661"><time>2024-11-03T06:54:59.273</time></trkpt><trkpt lat="56.8265242" lon="53.1391591"><time>2024-11-03T06:55:01.287</time></trkpt><trkpt lat="56.8265274" lon="53.1390451"><time>2024-11-03T06:55:04.317</time></trkpt><trkpt lat="56.8265393" lon="53.1389539"><time>2024-11-03T06:55:06.287</time></trkpt><trkpt lat="56.8265339" lon="53.1388579"><time>2024-11-03T06:55:08.313</time></trkpt><trkpt lat="56.8265338" lon="53.1387481"><time>2024-11-03T06:55:10.293</time></trkpt><trkpt lat="56.8265249" lon="53.1386392"><time>2024-11-03T06:55:12.273</time></trkpt><trkpt lat="56.8265159" lon="53.1385281"><time>2024-11-03T06:55:14.290</time></trkpt><trkpt lat="56.8265078" lon="53.1384110"><time>2024-11-03T06:55:16.293</time></trkpt><trkpt lat="56.8265019" lon="53.1383102"><time>2024-11-03T06:55:18.297</time></trkpt><trkpt lat="56.8264960" lon="53.1382068"><time>2024-11-03T06:55:20.303</time></trkpt><trkpt lat="56.8264861" lon="53.1381071"><time>2024-11-03T06:55:22.287</time></trkpt><trkpt lat="56.8264767" lon="53.1380135"><time>2024-11-03T06:55:24.287</time></trkpt><trkpt lat="56.8264635" lon="53.1379165"><time>2024-11-03T06:55:26.283</time></trkpt><trkpt lat="56.8264502" lon="53.1378152"><time>2024-11-03T06:55:28.287</time></trkpt><trkpt lat="56.8264343" lon="53.1377207"><time>2024-11-03T06:55:30.290</time></trkpt><trkpt lat="56.8264222" lon="53.1376406"><time>2024-11-03T06:55:32.277</time></trkpt><trkpt lat="56.8264046" lon="53.1375389"><time>2024-11-03T06:55:34.297</time></trkpt><trkpt lat="56.8263946" lon="53.1374538"><time>2024-11-03T06:55:36.303</time></trkpt><trkpt lat="56.8263756" lon="53.1373637"><time>2024-11-03T06:55:38.317</time></trkpt><trkpt lat="56.8263603" lon="53.1372843"><time>2024-11-03T06:55:40.307</time></trkpt><trkpt lat="56.8263537" lon="53.1371893"><time>2024-11-03T06:55:43.307</time></trkpt><trkpt lat="56.8263368" lon="53.1370992"><time>2024-11-03T06:55:46.300</time></trkpt><trkpt lat="56.8263176" lon="53.1370099"><time>2024-11-03T06:55:49.307</time></trkpt><trkpt lat="56.8262937" lon="53.1369345"><time>2024-11-03T06:55:52.317</time></trkpt><trkpt lat="56.8262581" lon="53.1368805"><time>2024-11-03T06:55:55.307</time></trkpt><trkpt lat="56.8262242" lon="53.1368043"><time>2024-11-03T06:55:59.303</time></trkpt><trkpt lat="56.8261939" lon="53.1367184"><time>2024-11-03T06:56:03.323</time></trkpt><trkpt lat="56.8261794" lon="53.1366225"><time>2024-11-03T06:56:07.320</time></trkpt><trkpt lat="56.8261788" lon="53.1365398"><time>2024-11-03T06:56:10.313</time></trkpt><trkpt lat="56.8261762" lon="53.1364571"><time>2024-11-03T06:56:13.320</time></trkpt><trkpt lat="56.8261632" lon="53.1363719"><time>2024-11-03T06:56:16.317</time></trkpt><trkpt lat="56.8261367" lon="53.1362958"><time>2024-11-03T06:56:19.340</time></trkpt><trkpt lat="56.8261137" lon="53.1362024"><time>2024-11-03T06:56:22.317</time></trkpt><trkpt lat="56.8261013" lon="53.1361050"><time>2024-11-03T06:56:25.313</time></trkpt><trkpt lat="56.8260847" lon="53.1360165"><time>2024-11-03T06:56:27.307</time></trkpt><trkpt lat="56.8260580" lon="53.1359191"><time>2024-11-03T06:56:29.307</time></trkpt><trkpt lat="56.8260225" lon="53.1358372"><time>2024-11-03T06:56:31.303</time></trkpt><trkpt lat="56.8259911" lon="53.1357536"><time>2024-11-03T06:56:33.310</time></trkpt><trkpt lat="56.8259546" lon="53.1356619"><time>2024-11-03T06:56:35.300</time></trkpt><trkpt lat="56.8259017" lon="53.1355644"><time>2024-11-03T06:56:37.307</time></trkpt><trkpt lat="56.8258464" lon="53.1354875"><time>2024-11-03T06:56:39.307</time></trkpt><trkpt lat="56.8257961" lon="53.1354260"><time>2024-11-03T06:56:41.310</time></trkpt><trkpt lat="56.8257607" lon="53.1353523"><time>2024-11-03T06:56:43.313</time></trkpt><trkpt lat="56.8257166" lon="53.1352745"><time>2024-11-03T06:56:46.320</time></trkpt><trkpt lat="56.8256726" lon="53.1351894"><time>2024-11-03T06:56:49.317</time></trkpt><trkpt lat="56.8256415" lon="53.1351279"><time>2024-11-03T06:56:51.307</time></trkpt><trkpt lat="56.8256104" lon="53.1350460"><time>2024-11-03T06:56:54.327</time></trkpt><trkpt lat="56.8255932" lon="53.1349642"><time>2024-11-03T06:56:59.320</time></trkpt><trkpt lat="56.8255713" lon="53.1348684"><time>2024-11-03T06:57:03.327</time></trkpt><trkpt lat="56.8255461" lon="53.1347889"><time>2024-11-03T06:57:06.323</time></trkpt><trkpt lat="56.8255249" lon="53.1347144"><time>2024-11-03T06:57:09.323</time></trkpt><trkpt lat="56.8255145" lon="53.1346301"><time>2024-11-03T06:57:12.327</time></trkpt><trkpt lat="56.8255108" lon="53.1345441"><time>2024-11-03T06:57:15.337</time></trkpt><trkpt lat="56.8255085" lon="53.1344556"><time>2024-11-03T06:57:18.317</time></trkpt><trkpt lat="56.8254773" lon="53.1343934"><time>2024-11-03T06:57:22.340</time></trkpt><trkpt lat="56.8254238" lon="53.1343696"><time>2024-11-03T06:57:27.317</time></trkpt><trkpt lat="56.8253783" lon="53.1343541"><time>2024-11-03T06:57:31.320</time></trkpt><trkpt lat="56.8253294" lon="53.1343434"><time>2024-11-03T06:57:35.313</time></trkpt><trkpt lat="56.8252701" lon="53.1343303"><time>2024-11-03T06:57:39.303</time></trkpt><trkpt lat="56.8252210" lon="53.1343188"><time>2024-11-03T06:57:42.307</time></trkpt><trkpt lat="56.8251683" lon="53.1343246"><time>2024-11-03T06:57:45.310</time></trkpt><trkpt lat="56.8251173" lon="53.1343418"><time>2024-11-03T06:57:49.320</time></trkpt><trkpt lat="56.8250695" lon="53.1343475"><time>2024-11-03T06:57:52.330</time></trkpt><trkpt lat="56.8250166" lon="53.1343466"><time>2024-11-03T06:57:56.313</time></trkpt><trkpt lat="56.8249644" lon="53.1343381"><time>2024-11-03T06:58:00.313</time></trkpt><trkpt lat="56.8249147" lon="53.1343409"><time>2024-11-03T06:58:03.313</time></trkpt><trkpt lat="56.8248542" lon="53.1343237"><time>2024-11-03T06:58:07.307</time></trkpt><trkpt lat="56.8248030" lon="53.1343065"><time>2024-11-03T06:58:10.310</time></trkpt><trkpt lat="56.8247461" lon="53.1342803"><time>2024-11-03T06:58:14.317</time></trkpt><trkpt lat="56.8246926" lon="53.1342639"><time>2024-11-03T06:58:18.307</time></trkpt><trkpt lat="56.8246478" lon="53.1342516"><time>2024-11-03T06:58:21.307</time></trkpt><trkpt lat="56.8245993" lon="53.1342352"><time>2024-11-03T06:58:24.307</time></trkpt><trkpt lat="56.8245548" lon="53.1342172"><time>2024-11-03T06:58:27.310</time></trkpt><trkpt lat="56.8245006" lon="53.1341992"><time>2024-11-03T06:58:31.307</time></trkpt><trkpt lat="56.8244422" lon="53.1341754"><time>2024-11-03T06:58:35.307</time></trkpt><trkpt lat="56.8243863" lon="53.1341722"><time>2024-11-03T06:58:39.307</time></trkpt><trkpt lat="56.8243364" lon="53.1341926"><time>2024-11-03T06:58:42.307</time></trkpt><trkpt lat="56.8242915" lon="53.1342262"><time>2024-11-03T06:58:47.307</time></trkpt><trkpt lat="56.8242633" lon="53.1343081"><time>2024-11-03T06:58:58.320</time></trkpt><trkpt lat="56.8242259" lon="53.1343703"><time>2024-11-03T06:59:03.317</time></trkpt><trkpt lat="56.8241827" lon="53.1344227"><time>2024-11-03T06:59:08.327</time></trkpt><trkpt lat="56.8241428" lon="53.1344645"><time>2024-11-03T06:59:12.320</time></trkpt><trkpt lat="56.8241048" lon="53.1345390"><time>2024-11-03T06:59:18.317</time></trkpt><trkpt lat="56.8240634" lon="53.1345979"><time>2024-11-03T06:59:22.317</time></trkpt><trkpt lat="56.8240061" lon="53.1346184"><time>2024-11-03T06:59:26.310</time></trkpt><trkpt lat="56.8239584" lon="53.1346241"><time>2024-11-03T06:59:30.323</time></trkpt><trkpt lat="56.8239595" lon="53.1346243"><time>2024-11-03T06:59:32.420</time></trkpt><trkpt lat="56.8238791" lon="53.1346090"><time>2024-11-03T06:59:33.447</time></trkpt><trkpt lat="56.8238310" lon="53.1345580"><time>2024-11-03T06:59:35.463</time></trkpt><trkpt lat="56.8237783" lon="53.1345307"><time>2024-11-03T06:59:44.473</time></trkpt><trkpt lat="56.8237336" lon="53.1345106"><time>2024-11-03T06:59:47.367</time></trkpt><trkpt lat="56.8236813" lon="53.1344928"><time>2024-11-03T06:59:51.307</time></trkpt><trkpt lat="56.8236353" lon="53.1344554"><time>2024-11-03T06:59:55.310</time></trkpt><trkpt lat="56.8235980" lon="53.1343899"><time>2024-11-03T07:00:00.320</time></trkpt><trkpt lat="56.8235490" lon="53.1343735"><time>2024-11-03T07:00:05.303</time></trkpt><trkpt lat="56.8235003" lon="53.1343866"><time>2024-11-03T07:00:11.303</time></trkpt><trkpt lat="56.8234460" lon="53.1343702"><time>2024-11-03T07:00:17.307</time></trkpt><trkpt lat="56.8233964" lon="53.1343530"><time>2024-11-03T07:00:22.310</time></trkpt><trkpt lat="56.8233479" lon="53.1343113"><time>2024-11-03T07:00:28.310</time></trkpt><trkpt lat="56.8232889" lon="53.1343166"><time>2024-11-03T07:00:41.297</time></trkpt><trkpt lat="56.8232307" lon="53.1343254"><time>2024-11-03T07:00:44.290</time></trkpt><trkpt lat="56.8231853" lon="53.1343301"><time>2024-11-03T07:00:47.300</time></trkpt><trkpt lat="56.8231399" lon="53.1343431"><time>2024-11-03T07:00:50.317</time></trkpt><trkpt lat="56.8230877" lon="53.1343754"><time>2024-11-03T07:00:54.307</time></trkpt><trkpt lat="56.8230362" lon="53.1343939"><time>2024-11-03T07:00:57.330</time></trkpt><trkpt lat="56.8231667" lon="53.1343276"><time>2024-11-03T07:00:59.430</time></trkpt><trkpt lat="56.8231666" lon="53.1343260"><time>2024-11-03T07:01:01.527</time></trkpt><trkpt lat="56.8228934" lon="53.1345120"><time>2024-11-03T07:01:02.573</time></trkpt><trkpt lat="56.8231677" lon="53.1343310"><time>2024-11-03T07:01:05.580</time></trkpt><trkpt lat="56.8231678" lon="53.1343295"><time>2024-11-03T07:01:07.670</time></trkpt><trkpt lat="56.8231427" lon="53.1341538"><time>2024-11-03T07:01:09.707</time></trkpt><trkpt lat="56.8230872" lon="53.1341726"><time>2024-11-03T07:01:10.707</time></trkpt><trkpt lat="56.8230414" lon="53.1342044"><time>2024-11-03T07:01:11.707</time></trkpt><trkpt lat="56.8229698" lon="53.1342880"><time>2024-11-03T07:01:12.733</time></trkpt><trkpt lat="56.8231676" lon="53.1343302"><time>2024-11-03T07:01:14.830</time></trkpt><trkpt lat="56.8231676" lon="53.1343312"><time>2024-11-03T07:01:16.917</time></trkpt><trkpt lat="56.8229729" lon="53.1344348"><time>2024-11-03T07:01:17.953</time></trkpt><trkpt lat="56.8231664" lon="53.1343341"><time>2024-11-03T07:01:20.063</time></trkpt><trkpt lat="56.8231661" lon="53.1343345"><time>2024-11-03T07:01:22.140</time></trkpt><trkpt lat="56.8230054" lon="53.1343021"><time>2024-11-03T07:01:23.083</time></trkpt><trkpt lat="56.8231663" lon="53.1343360"><time>2024-11-03T07:01:26.077</time></trkpt><trkpt lat="56.8231652" lon="53.1343321"><time>2024-11-03T07:01:29.073</time></trkpt><trkpt lat="56.8230179" lon="53.1342782"><time>2024-11-03T07:01:30.107</time></trkpt><trkpt lat="56.8231653" lon="53.1343325"><time>2024-11-03T07:01:32.197</time></trkpt><trkpt lat="56.8231648" lon="53.1343451"><time>2024-11-03T07:01:35.253</time></trkpt><trkpt lat="56.8227502" lon="53.1345373"><time>2024-11-03T07:01:36.297</time></trkpt><trkpt lat="56.8231642" lon="53.1343509"><time>2024-11-03T07:01:38.403</time></trkpt><trkpt lat="56.8231636" lon="53.1343515"><time>2024-11-03T07:01:40.497</time></trkpt><trkpt lat="56.8229210" lon="53.1344056"><time>2024-11-03T07:01:41.543</time></trkpt><trkpt lat="56.8231634" lon="53.1343525"><time>2024-11-03T07:01:43.653</time></trkpt><trkpt lat="56.8231630" lon="53.1343539"><time>2024-11-03T07:01:45.740</time></trkpt><trkpt lat="56.8224203" lon="53.1343525"><time>2024-11-03T07:01:46.800</time></trkpt><trkpt lat="56.8231626" lon="53.1343539"><time>2024-11-03T07:01:48.903</time></trkpt><trkpt lat="56.8231625" lon="53.1343537"><time>2024-11-03T07:01:51.897</time></trkpt><trkpt lat="56.8231408" lon="53.1342775"><time>2024-11-03T07:01:52.910</time></trkpt><trkpt lat="56.8230641" lon="53.1341671"><time>2024-11-03T07:01:53.907</time></trkpt><trkpt lat="56.8226318" lon="53.1343293"><time>2024-11-03T07:01:54.927</time></trkpt><trkpt lat="56.8231618" lon="53.1343517"><time>2024-11-03T07:01:57.020</time></trkpt><trkpt lat="56.8231618" lon="53.1343517"><time>2024-11-03T07:01:59.320</time></trkpt><trkpt lat="56.8231681" lon="53.1343282"><time>2024-11-03T07:02:00.003</time></trkpt><trkpt lat="56.8231674" lon="53.1343232"><time>2024-11-03T07:02:02.990</time></trkpt><trkpt lat="56.8232509" lon="53.1342509"><time>2024-11-03T07:02:04.017</time></trkpt><trkpt lat="56.8229724" lon="53.1343607"><time>2024-11-03T07:02:05.017</time></trkpt><trkpt lat="56.8224666" lon="53.1345783"><time>2024-11-03T07:02:06.007</time></trkpt><trkpt lat="56.8221850" lon="53.1347301"><time>2024-11-03T07:02:07.030</time></trkpt><trkpt lat="56.8221502" lon="53.1346761"><time>2024-11-03T07:02:14.047</time></trkpt><trkpt lat="56.8221260" lon="53.1346069"><time>2024-11-03T07:02:17.060</time></trkpt><trkpt lat="56.8220932" lon="53.1345441"><time>2024-11-03T07:02:21.067</time></trkpt><trkpt lat="56.8220479" lon="53.1345076"><time>2024-11-03T07:02:27.063</time></trkpt><trkpt lat="56.8220176" lon="53.1345707"><time>2024-11-03T07:02:31.110</time></trkpt><trkpt lat="56.8219915" lon="53.1346378"><time>2024-11-03T07:02:36.063</time></trkpt><trkpt lat="56.8219372" lon="53.1346730"><time>2024-11-03T07:02:45.063</time></trkpt><trkpt lat="56.8218882" lon="53.1347107"><time>2024-11-03T07:02:49.963</time></trkpt><trkpt lat="56.8218413" lon="53.1347410"><time>2024-11-03T07:02:53.960</time></trkpt><trkpt lat="56.8217964" lon="53.1347565"><time>2024-11-03T07:03:08.310</time></trkpt><trkpt lat="56.8217416" lon="53.1347770"><time>2024-11-03T07:03:12.327</time></trkpt><trkpt lat="56.8216991" lon="53.1348048"><time>2024-11-03T07:03:14.307</time></trkpt><trkpt lat="56.8216447" lon="53.1348400"><time>2024-11-03T07:03:17.307</time></trkpt><trkpt lat="56.8215999" lon="53.1348687"><time>2024-11-03T07:03:20.307</time></trkpt><trkpt lat="56.8215519" lon="53.1348957"><time>2024-11-03T07:03:23.317</time></trkpt><trkpt lat="56.8214964" lon="53.1349202"><time>2024-11-03T07:03:26.317</time></trkpt><trkpt lat="56.8214425" lon="53.1349431"><time>2024-11-03T07:03:30.327</time></trkpt><trkpt lat="56.8213840" lon="53.1349726"><time>2024-11-03T07:03:33.317</time></trkpt><trkpt lat="56.8213358" lon="53.1350250"><time>2024-11-03T07:03:36.310</time></trkpt><trkpt lat="56.8212885" lon="53.1350790"><time>2024-11-03T07:03:41.303</time></trkpt><trkpt lat="56.8212514" lon="53.1351577"><time>2024-11-03T07:03:45.300</time></trkpt><trkpt lat="56.8212077" lon="53.1352158"><time>2024-11-03T07:03:51.317</time></trkpt><trkpt lat="56.8211607" lon="53.1352845"><time>2024-11-03T07:03:56.313</time></trkpt><trkpt lat="56.8211197" lon="53.1353509"><time>2024-11-03T07:03:59.317</time></trkpt><trkpt lat="56.8210824" lon="53.1354213"><time>2024-11-03T07:04:02.337</time></trkpt><trkpt lat="56.8210542" lon="53.1355105"><time>2024-11-03T07:04:06.337</time></trkpt><trkpt lat="56.8210251" lon="53.1355900"><time>2024-11-03T07:04:10.323</time></trkpt><trkpt lat="56.8209953" lon="53.1356685"><time>2024-11-03T07:04:15.317</time></trkpt><trkpt lat="56.8209558" lon="53.1357602"><time>2024-11-03T07:04:20.320</time></trkpt><trkpt lat="56.8209294" lon="53.1358413"><time>2024-11-03T07:04:23.327</time></trkpt><trkpt lat="56.8208939" lon="53.1359232"><time>2024-11-03T07:04:26.320</time></trkpt><trkpt lat="56.8208647" lon="53.1359969"><time>2024-11-03T07:04:29.317</time></trkpt><trkpt lat="56.8208364" lon="53.1360730"><time>2024-11-03T07:04:32.343</time></trkpt><trkpt lat="56.8208082" lon="53.1361418"><time>2024-11-03T07:04:35.310</time></trkpt><trkpt lat="56.8207683" lon="53.1362245"><time>2024-11-03T07:04:38.313</time></trkpt><trkpt lat="56.8207342" lon="53.1363186"><time>2024-11-03T07:04:42.340</time></trkpt><trkpt lat="56.8209942" lon="53.1356527"><time>2024-11-03T07:04:44.453</time></trkpt><trkpt lat="56.8209948" lon="53.1356581"><time>2024-11-03T07:04:46.540</time></trkpt><trkpt lat="56.8208527" lon="53.1366018"><time>2024-11-03T07:04:47.590</time></trkpt><trkpt lat="56.8209938" lon="53.1356610"><time>2024-11-03T07:04:49.703</time></trkpt><trkpt lat="56.8209965" lon="53.1356704"><time>2024-11-03T07:04:51.787</time></trkpt><trkpt lat="56.8209102" lon="53.1359177"><time>2024-11-03T07:04:52.810</time></trkpt><trkpt lat="56.8208355" lon="53.1361066"><time>2024-11-03T07:04:53.817</time></trkpt><trkpt lat="56.8207844" lon="53.1362725"><time>2024-11-03T07:04:54.813</time></trkpt><trkpt lat="56.8206877" lon="53.1366189"><time>2024-11-03T07:04:55.843</time></trkpt><trkpt lat="56.8209975" lon="53.1356566"><time>2024-11-03T07:04:58.857</time></trkpt><trkpt lat="56.8209975" lon="53.1356631"><time>2024-11-03T07:05:00.950</time></trkpt><trkpt lat="56.8209535" lon="53.1356931"><time>2024-11-03T07:05:01.973</time></trkpt><trkpt lat="56.8208469" lon="53.1361817"><time>2024-11-03T07:05:02.977</time></trkpt><trkpt lat="56.8207617" lon="53.1363654"><time>2024-11-03T07:05:03.987</time></trkpt><trkpt lat="56.8209978" lon="53.1356708"><time>2024-11-03T07:05:06.103</time></trkpt><trkpt lat="56.8209983" lon="53.1356770"><time>2024-11-03T07:05:08.193</time></trkpt><trkpt lat="56.8209840" lon="53.1357902"><time>2024-11-03T07:05:10.210</time></trkpt><trkpt lat="56.8209322" lon="53.1360060"><time>2024-11-03T07:05:12.227</time></trkpt><trkpt lat="56.8208393" lon="53.1363036"><time>2024-11-03T07:05:13.230</time></trkpt><trkpt lat="56.8207363" lon="53.1366238"><time>2024-11-03T07:05:14.257</time></trkpt><trkpt lat="56.8209997" lon="53.1356687"><time>2024-11-03T07:05:17.283</time></trkpt><trkpt lat="56.8209996" lon="53.1356696"><time>2024-11-03T07:05:19.353</time></trkpt><trkpt lat="56.8207745" lon="53.1374360"><time>2024-11-03T07:05:20.287</time></trkpt><trkpt lat="56.8209862" lon="53.1356646"><time>2024-11-03T07:05:23.283</time></trkpt><trkpt lat="56.8209847" lon="53.1356703"><time>2024-11-03T07:05:26.277</time></trkpt><trkpt lat="56.8207121" lon="53.1364494"><time>2024-11-03T07:05:27.313</time></trkpt><trkpt lat="56.8209851" lon="53.1356766"><time>2024-11-03T07:05:30.337</time></trkpt><trkpt lat="56.8209845" lon="53.1356788"><time>2024-11-03T07:05:32.410</time></trkpt><trkpt lat="56.8209663" lon="53.1359934"><time>2024-11-03T07:05:33.340</time></trkpt><trkpt lat="56.8207220" lon="53.1363989"><time>2024-11-03T07:05:35.390</time></trkpt><trkpt lat="56.8209845" lon="53.1356825"><time>2024-11-03T07:05:37.510</time></trkpt><trkpt lat="56.8209852" lon="53.1356853"><time>2024-11-03T07:05:39.600</time></trkpt><trkpt lat="56.8205359" lon="53.1362174"><time>2024-11-03T07:05:40.630</time></trkpt><trkpt lat="56.8204754" lon="53.1363648"><time>2024-11-03T07:05:41.647</time></trkpt><trkpt lat="56.8209861" lon="53.1356929"><time>2024-11-03T07:05:44.667</time></trkpt><trkpt lat="56.8209878" lon="53.1357028"><time>2024-11-03T07:05:46.773</time></trkpt><trkpt lat="56.8208582" lon="53.1358738"><time>2024-11-03T07:05:47.790</time></trkpt><trkpt lat="56.8208045" lon="53.1361933"><time>2024-11-03T07:05:48.793</time></trkpt><trkpt lat="56.8208101" lon="53.1363184"><time>2024-11-03T07:05:50.797</time></trkpt><trkpt lat="56.8208458" lon="53.1364042"><time>2024-11-03T07:05:52.807</time></trkpt><trkpt lat="56.8210039" lon="53.1356633"><time>2024-11-03T07:05:55.807</time></trkpt><trkpt lat="56.8210018" lon="53.1356594"><time>2024-11-03T07:05:58.810</time></trkpt><trkpt lat="56.8209868" lon="53.1358976"><time>2024-11-03T07:05:59.827</time></trkpt><trkpt lat="56.8209004" lon="53.1360600"><time>2024-11-03T07:06:00.827</time></trkpt><trkpt lat="56.8208007" lon="53.1361933"><time>2024-11-03T07:06:01.830</time></trkpt><trkpt lat="56.8207388" lon="53.1363273"><time>2024-11-03T07:06:02.850</time></trkpt><trkpt lat="56.8210020" lon="53.1356641"><time>2024-11-03T07:06:04.960</time></trkpt><trkpt lat="56.8209923" lon="53.1356618"><time>2024-11-03T07:06:07.057</time></trkpt><trkpt lat="56.8209945" lon="53.1360894"><time>2024-11-03T07:06:08.093</time></trkpt><trkpt lat="56.8208956" lon="53.1367833"><time>2024-11-03T07:06:10.113</time></trkpt><trkpt lat="56.8209914" lon="53.1356718"><time>2024-11-03T07:06:13.120</time></trkpt><trkpt lat="56.8210123" lon="53.1356701"><time>2024-11-03T07:06:16.130</time></trkpt><trkpt lat="56.8210590" lon="53.1357967"><time>2024-11-03T07:06:17.147</time></trkpt><trkpt lat="56.8209512" lon="53.1366965"><time>2024-11-03T07:06:18.163</time></trkpt><trkpt lat="56.8210083" lon="53.1356683"><time>2024-11-03T07:06:21.287</time></trkpt><trkpt lat="56.8210126" lon="53.1356895"><time>2024-11-03T07:06:23.367</time></trkpt><trkpt lat="56.8210190" lon="53.1357788"><time>2024-11-03T07:06:24.390</time></trkpt><trkpt lat="56.8208774" lon="53.1366597"><time>2024-11-03T07:06:25.417</time></trkpt><trkpt lat="56.8210095" lon="53.1357003"><time>2024-11-03T07:06:27.527</time></trkpt><trkpt lat="56.8210101" lon="53.1357079"><time>2024-11-03T07:06:29.623</time></trkpt><trkpt lat="56.8211305" lon="53.1363797"><time>2024-11-03T07:06:30.657</time></trkpt><trkpt lat="56.8209765" lon="53.1368429"><time>2024-11-03T07:06:32.680</time></trkpt><trkpt lat="56.8210007" lon="53.1356576"><time>2024-11-03T07:06:35.700</time></trkpt><trkpt lat="56.8210004" lon="53.1356623"><time>2024-11-03T07:06:37.793</time></trkpt><trkpt lat="56.8212788" lon="53.1361379"><time>2024-11-03T07:06:38.823</time></trkpt><trkpt lat="56.8212365" lon="53.1366000"><time>2024-11-03T07:06:40.830</time></trkpt><trkpt lat="56.8211656" lon="53.1369766"><time>2024-11-03T07:06:42.840</time></trkpt><trkpt lat="56.8210065" lon="53.1357201"><time>2024-11-03T07:06:46.777</time></trkpt><trkpt lat="56.8210082" lon="53.1356847"><time>2024-11-03T07:06:51.583</time></trkpt><trkpt lat="56.8210989" lon="53.1360706"><time>2024-11-03T07:06:53.613</time></trkpt><trkpt lat="56.8211192" lon="53.1363043"><time>2024-11-03T07:06:56.607</time></trkpt><trkpt lat="56.8211187" lon="53.1365152"><time>2024-11-03T07:06:58.523</time></trkpt><trkpt lat="56.8210102" lon="53.1356724"><time>2024-11-03T07:07:02.433</time></trkpt><trkpt lat="56.8210106" lon="53.1356726"><time>2024-11-03T07:07:04.507</time></trkpt><trkpt lat="56.8204935" lon="53.1372805"><time>2024-11-03T07:07:05.550</time></trkpt><trkpt lat="56.8210094" lon="53.1356757"><time>2024-11-03T07:07:09.427</time></trkpt><trkpt lat="56.8210094" lon="53.1356757"><time>2024-11-03T07:07:10.583</time></trkpt><trkpt lat="56.8209994" lon="53.1356516"><time>2024-11-03T07:07:18.253</time></trkpt><trkpt lat="56.8209879" lon="53.1360078"><time>2024-11-03T07:07:19.270</time></trkpt><trkpt lat="56.8209651" lon="53.1363851"><time>2024-11-03T07:07:20.270</time></trkpt><trkpt lat="56.8210031" lon="53.1365548"><time>2024-11-03T07:07:21.280</time></trkpt><trkpt lat="56.8210548" lon="53.1371889"><time>2024-11-03T07:07:22.287</time></trkpt><trkpt lat="56.8210391" lon="53.1375460"><time>2024-11-03T07:07:24.287</time></trkpt><trkpt lat="56.8209586" lon="53.1379510"><time>2024-11-03T07:07:27.283</time></trkpt><trkpt lat="56.8209184" lon="53.1380217"><time>2024-11-03T07:07:31.307</time></trkpt><trkpt lat="56.8208921" lon="53.1380902"><time>2024-11-03T07:07:36.270</time></trkpt><trkpt lat="56.8208510" lon="53.1381776"><time>2024-11-03T07:07:39.283</time></trkpt><trkpt lat="56.8208165" lon="53.1382682"><time>2024-11-03T07:07:42.273</time></trkpt><trkpt lat="56.8208051" lon="53.1383525"><time>2024-11-03T07:07:46.277</time></trkpt><trkpt lat="56.8207867" lon="53.1384410"><time>2024-11-03T07:07:49.270</time></trkpt><trkpt lat="56.8207971" lon="53.1385655"><time>2024-11-03T07:07:51.287</time></trkpt><trkpt lat="56.8208049" lon="53.1386472"><time>2024-11-03T07:07:53.287</time></trkpt><trkpt lat="56.8208160" lon="53.1387874"><time>2024-11-03T07:07:55.283</time></trkpt><trkpt lat="56.8208274" lon="53.1389265"><time>2024-11-03T07:07:57.283</time></trkpt><trkpt lat="56.8208241" lon="53.1390453"><time>2024-11-03T07:07:59.283</time></trkpt><trkpt lat="56.8208096" lon="53.1391468"><time>2024-11-03T07:08:01.277</time></trkpt><trkpt lat="56.8207994" lon="53.1392344"><time>2024-11-03T07:08:03.297</time></trkpt><trkpt lat="56.8207635" lon="53.1392983"><time>2024-11-03T07:08:06.287</time></trkpt><trkpt lat="56.8207374" lon="53.1394333"><time>2024-11-03T07:08:11.317</time></trkpt><trkpt lat="56.8207275" lon="53.1395228"><time>2024-11-03T07:08:13.290</time></trkpt><trkpt lat="56.8207101" lon="53.1396487"><time>2024-11-03T07:08:16.297</time></trkpt><trkpt lat="56.8206932" lon="53.1397606"><time>2024-11-03T07:08:18.293</time></trkpt><trkpt lat="56.8206791" lon="53.1398792"><time>2024-11-03T07:08:20.290</time></trkpt><trkpt lat="56.8206916" lon="53.1400048"><time>2024-11-03T07:08:22.293</time></trkpt><trkpt lat="56.8207021" lon="53.1401473"><time>2024-11-03T07:08:24.287</time></trkpt><trkpt lat="56.8207203" lon="53.1402243"><time>2024-11-03T07:08:26.283</time></trkpt><trkpt lat="56.8207661" lon="53.1402136"><time>2024-11-03T07:08:33.297</time></trkpt><trkpt lat="56.8208030" lon="53.1402718"><time>2024-11-03T07:08:36.320</time></trkpt><trkpt lat="56.8208320" lon="53.1403406"><time>2024-11-03T07:08:39.310</time></trkpt><trkpt lat="56.8208678" lon="53.1404421"><time>2024-11-03T07:08:42.307</time></trkpt><trkpt lat="56.8208968" lon="53.1405109"><time>2024-11-03T07:08:45.293</time></trkpt><trkpt lat="56.8209203" lon="53.1405895"><time>2024-11-03T07:08:51.310</time></trkpt><trkpt lat="56.8209712" lon="53.1405772"><time>2024-11-03T07:08:57.313</time></trkpt><trkpt lat="56.8210148" lon="53.1406067"><time>2024-11-03T07:09:02.303</time></trkpt><trkpt lat="56.8210618" lon="53.1406436"><time>2024-11-03T07:09:13.310</time></trkpt><trkpt lat="56.8211081" lon="53.1406681"><time>2024-11-03T07:09:19.300</time></trkpt><trkpt lat="56.8211509" lon="53.1407050"><time>2024-11-03T07:09:25.303</time></trkpt><trkpt lat="56.8212021" lon="53.1407173"><time>2024-11-03T07:09:30.310</time></trkpt><trkpt lat="56.8212518" lon="53.1407165"><time>2024-11-03T07:09:33.323</time></trkpt><trkpt lat="56.8213098" lon="53.1407198"><time>2024-11-03T07:09:37.320</time></trkpt><trkpt lat="56.8213564" lon="53.1407313"><time>2024-11-03T07:09:40.310</time></trkpt><trkpt lat="56.8214016" lon="53.1407247"><time>2024-11-03T07:09:43.320</time></trkpt><trkpt lat="56.8214549" lon="53.1407272"><time>2024-11-03T07:09:46.310</time></trkpt><trkpt lat="56.8215040" lon="53.1407387"><time>2024-11-03T07:09:50.307</time></trkpt><trkpt lat="56.8215492" lon="53.1407453"><time>2024-11-03T07:09:53.290</time></trkpt><trkpt lat="56.8215966" lon="53.1407584"><time>2024-11-03T07:09:57.297</time></trkpt><trkpt lat="56.8216583" lon="53.1407584"><time>2024-11-03T07:10:01.307</time></trkpt><trkpt lat="56.8217116" lon="53.1407609"><time>2024-11-03T07:10:05.327</time></trkpt><trkpt lat="56.8208551" lon="53.1404074"><time>2024-11-03T07:10:08.380</time></trkpt><trkpt lat="56.8208550" lon="53.1404107"><time>2024-11-03T07:10:11.387</time></trkpt><trkpt lat="56.8215377" lon="53.1403724"><time>2024-11-03T07:10:13.400</time></trkpt><trkpt lat="56.8217248" lon="53.1403264"><time>2024-11-03T07:10:14.417</time></trkpt><trkpt lat="56.8208569" lon="53.1404133"><time>2024-11-03T07:10:17.427</time></trkpt><trkpt lat="56.8208571" lon="53.1404138"><time>2024-11-03T07:10:19.527</time></trkpt><trkpt lat="56.8212976" lon="53.1406916"><time>2024-11-03T07:10:20.550</time></trkpt><trkpt lat="56.8216920" lon="53.1405658"><time>2024-11-03T07:10:21.570</time></trkpt><trkpt lat="56.8208574" lon="53.1404135"><time>2024-11-03T07:10:23.670</time></trkpt><trkpt lat="56.8208577" lon="53.1404137"><time>2024-11-03T07:10:25.757</time></trkpt><trkpt lat="56.8209489" lon="53.1403803"><time>2024-11-03T07:10:26.773</time></trkpt><trkpt lat="56.8217660" lon="53.1403053"><time>2024-11-03T07:10:27.807</time></trkpt><trkpt lat="56.8208626" lon="53.1404208"><time>2024-11-03T07:10:29.913</time></trkpt><trkpt lat="56.8208663" lon="53.1404410"><time>2024-11-03T07:10:32.913</time></trkpt><trkpt lat="56.8209589" lon="53.1405259"><time>2024-11-03T07:10:33.937</time></trkpt><trkpt lat="56.8210463" lon="53.1405398"><time>2024-11-03T07:10:34.947</time></trkpt><trkpt lat="56.8212394" lon="53.1406177"><time>2024-11-03T07:10:35.957</time></trkpt><trkpt lat="56.8213385" lon="53.1405943"><time>2024-11-03T07:10:36.960</time></trkpt><trkpt lat="56.8214841" lon="53.1405479"><time>2024-11-03T07:10:37.963</time></trkpt><trkpt lat="56.8215875" lon="53.1404826"><time>2024-11-03T07:10:38.960</time></trkpt><trkpt lat="56.8217099" lon="53.1403605"><time>2024-11-03T07:10:40.967</time></trkpt><trkpt lat="56.8208655" lon="53.1404395"><time>2024-11-03T07:10:43.057</time></trkpt><trkpt lat="56.8208656" lon="53.1404397"><time>2024-11-03T07:10:45.137</time></trkpt><trkpt lat="56.8219800" lon="53.1403595"><time>2024-11-03T07:10:46.077</time></trkpt><trkpt lat="56.8208656" lon="53.1404393"><time>2024-11-03T07:10:48.170</time></trkpt><trkpt lat="56.8208659" lon="53.1404397"><time>2024-11-03T07:10:51.250</time></trkpt><trkpt lat="56.8212843" lon="53.1405276"><time>2024-11-03T07:10:52.263</time></trkpt><trkpt lat="56.8219583" lon="53.1400959"><time>2024-11-03T07:10:53.297</time></trkpt><trkpt lat="56.8208684" lon="53.1404336"><time>2024-11-03T07:10:56.293</time></trkpt><trkpt lat="56.8208692" lon="53.1404351"><time>2024-11-03T07:10:59.290</time></trkpt><trkpt lat="56.8210656" lon="53.1403398"><time>2024-11-03T07:11:00.313</time></trkpt><trkpt lat="56.8215049" lon="53.1401607"><time>2024-11-03T07:11:01.317</time></trkpt><trkpt lat="56.8216303" lon="53.1400919"><time>2024-11-03T07:11:02.330</time></trkpt><trkpt lat="56.8208690" lon="53.1404351"><time>2024-11-03T07:11:04.427</time></trkpt><trkpt lat="56.8208693" lon="53.1404351"><time>2024-11-03T07:11:06.507</time></trkpt><trkpt lat="56.8214188" lon="53.1403950"><time>2024-11-03T07:11:07.530</time></trkpt><trkpt lat="56.8214874" lon="53.1403725"><time>2024-11-03T07:11:09.540</time></trkpt><trkpt lat="56.8217048" lon="53.1401746"><time>2024-11-03T07:11:10.573</time></trkpt><trkpt lat="56.8208698" lon="53.1404377"><time>2024-11-03T07:11:12.677</time></trkpt><trkpt lat="56.8208699" lon="53.1404376"><time>2024-11-03T07:11:14.757</time></trkpt><trkpt lat="56.8217615" lon="53.1399253"><time>2024-11-03T07:11:15.820</time></trkpt><trkpt lat="56.8208546" lon="53.1404108"><time>2024-11-03T07:11:18.840</time></trkpt><trkpt lat="56.8208559" lon="53.1404058"><time>2024-11-03T07:11:21.833</time></trkpt><trkpt lat="56.8210123" lon="53.1403107"><time>2024-11-03T07:11:22.847</time></trkpt><trkpt lat="56.8214087" lon="53.1401026"><time>2024-11-03T07:11:23.857</time></trkpt><trkpt lat="56.8215221" lon="53.1400617"><time>2024-11-03T07:11:24.850</time></trkpt><trkpt lat="56.8217298" lon="53.1399621"><time>2024-11-03T07:11:25.887</time></trkpt><trkpt lat="56.8208545" lon="53.1404057"><time>2024-11-03T07:11:28.880</time></trkpt><trkpt lat="56.8208550" lon="53.1404049"><time>2024-11-03T07:11:31.870</time></trkpt><trkpt lat="56.8213231" lon="53.1403608"><time>2024-11-03T07:11:32.897</time></trkpt><trkpt lat="56.8213767" lon="53.1403512"><time>2024-11-03T07:11:33.887</time></trkpt><trkpt lat="56.8214316" lon="53.1403454"><time>2024-11-03T07:11:34.897</time></trkpt><trkpt lat="56.8214837" lon="53.1403294"><time>2024-11-03T07:11:35.897</time></trkpt><trkpt lat="56.8215377" lon="53.1403099"><time>2024-11-03T07:11:36.897</time></trkpt><trkpt lat="56.8215899" lon="53.1402937"><time>2024-11-03T07:11:37.897</time></trkpt><trkpt lat="56.8216459" lon="53.1402777"><time>2024-11-03T07:11:38.913</time></trkpt><trkpt lat="56.8208556" lon="53.1404045"><time>2024-11-03T07:11:41.017</time></trkpt><trkpt lat="56.8208531" lon="53.1404064"><time>2024-11-03T07:11:44.027</time></trkpt><trkpt lat="56.8219431" lon="53.1396478"><time>2024-11-03T07:11:45.067</time></trkpt><trkpt lat="56.8208560" lon="53.1404014"><time>2024-11-03T07:11:48.977</time></trkpt><trkpt lat="56.8208587" lon="53.1404050"><time>2024-11-03T07:11:51.987</time></trkpt><trkpt lat="56.8210019" lon="53.1402728"><time>2024-11-03T07:11:53</time></trkpt><trkpt lat="56.8215952" lon="53.1397491"><time>2024-11-03T07:11:54.023</time></trkpt><trkpt lat="56.8229444" lon="53.1394908"><time>2024-11-03T07:11:57.040</time></trkpt><trkpt lat="56.8229492" lon="53.1394937"><time>2024-11-03T07:12:00.027</time></trkpt><trkpt lat="56.8229397" lon="53.1396867"><time>2024-11-03T07:12:01.060</time></trkpt><trkpt lat="56.8229197" lon="53.1395879"><time>2024-11-03T07:12:03.060</time></trkpt><trkpt lat="56.8229688" lon="53.1395447"><time>2024-11-03T07:12:07.960</time></trkpt><trkpt lat="56.8230230" lon="53.1395503"><time>2024-11-03T07:12:12.467</time></trkpt><trkpt lat="56.8230739" lon="53.1395584"><time>2024-11-03T07:12:16.300</time></trkpt><trkpt lat="56.8231174" lon="53.1395805"><time>2024-11-03T07:12:20.317</time></trkpt><trkpt lat="56.8231703" lon="53.1396018"><time>2024-11-03T07:12:24.320</time></trkpt><trkpt lat="56.8232303" lon="53.1395879"><time>2024-11-03T07:12:48.327</time></trkpt><trkpt lat="56.8232303" lon="53.1395879"><time>2024-11-03T07:12:48.483</time></trkpt><trkpt lat="56.8232690" lon="53.1395428"><time>2024-11-03T07:12:52.317</time></trkpt><trkpt lat="56.8232121" lon="53.1395721"><time>2024-11-03T07:12:55.277</time></trkpt><trkpt lat="56.8232466" lon="53.1394852"><time>2024-11-03T07:12:57.257</time></trkpt><trkpt lat="56.8233232" lon="53.1394205"><time>2024-11-03T07:12:58.270</time></trkpt><trkpt lat="56.8233887" lon="53.1394632"><time>2024-11-03T07:13:00.260</time></trkpt><trkpt lat="56.8233406" lon="53.1394756"><time>2024-11-03T07:13:07.250</time></trkpt><trkpt lat="56.8233577" lon="53.1393885"><time>2024-11-03T07:13:10.270</time></trkpt><trkpt lat="56.8233936" lon="53.1394749"><time>2024-11-03T07:13:17.270</time></trkpt><trkpt lat="56.8234376" lon="53.1395076"><time>2024-11-03T07:13:25.283</time></trkpt><trkpt lat="56.8234831" lon="53.1394954"><time>2024-11-03T07:13:28.297</time></trkpt><trkpt lat="56.8235287" lon="53.1394758"><time>2024-11-03T07:13:32.287</time></trkpt><trkpt lat="56.8235763" lon="53.1394135"><time>2024-11-03T07:13:36.307</time></trkpt><trkpt lat="56.8236255" lon="53.1393767"><time>2024-11-03T07:13:41.290</time></trkpt><trkpt lat="56.8236718" lon="53.1393456"><time>2024-11-03T07:13:44.300</time></trkpt><trkpt lat="56.8237215" lon="53.1392907"><time>2024-11-03T07:13:49.297</time></trkpt><trkpt lat="56.8237728" lon="53.1392269"><time>2024-11-03T07:13:52.297</time></trkpt><trkpt lat="56.8238151" lon="53.1391720"><time>2024-11-03T07:13:55.303</time></trkpt><trkpt lat="56.8238476" lon="53.1391024"><time>2024-11-03T07:13:59.307</time></trkpt><trkpt lat="56.8238457" lon="53.1390099"><time>2024-11-03T07:14:05.293</time></trkpt><trkpt lat="56.8238790" lon="53.1389493"><time>2024-11-03T07:14:08.290</time></trkpt><trkpt lat="56.8239170" lon="53.1388748"><time>2024-11-03T07:14:12.293</time></trkpt><trkpt lat="56.8239504" lon="53.1388093"><time>2024-11-03T07:14:17.297</time></trkpt><trkpt lat="56.8239893" lon="53.1387446"><time>2024-11-03T07:14:21.197</time></trkpt><trkpt lat="56.8240329" lon="53.1386939"><time>2024-11-03T07:14:25.037</time></trkpt><trkpt lat="56.8240795" lon="53.1386308"><time>2024-11-03T07:14:28.590</time></trkpt><trkpt lat="56.8241209" lon="53.1385793"><time>2024-11-03T07:14:32.300</time></trkpt><trkpt lat="56.8241638" lon="53.1385121"><time>2024-11-03T07:14:37.293</time></trkpt><trkpt lat="56.8242148" lon="53.1384466"><time>2024-11-03T07:14:41.283</time></trkpt><trkpt lat="56.8242569" lon="53.1383705"><time>2024-11-03T07:14:44.283</time></trkpt><trkpt lat="56.8243043" lon="53.1382960"><time>2024-11-03T07:14:47.297</time></trkpt><trkpt lat="56.8243296" lon="53.1382068"><time>2024-11-03T07:14:50.313</time></trkpt><trkpt lat="56.8243548" lon="53.1381314"><time>2024-11-03T07:14:53.293</time></trkpt><trkpt lat="56.8243980" lon="53.1380717"><time>2024-11-03T07:14:55.337</time></trkpt><trkpt lat="56.8244370" lon="53.1380127"><time>2024-11-03T07:14:57.307</time></trkpt><trkpt lat="56.8244940" lon="53.1379390"><time>2024-11-03T07:15:00.300</time></trkpt><trkpt lat="56.8245375" lon="53.1378547"><time>2024-11-03T07:15:03.307</time></trkpt><trkpt lat="56.8245740" lon="53.1377900"><time>2024-11-03T07:15:05.287</time></trkpt><trkpt lat="56.8246101" lon="53.1377311"><time>2024-11-03T07:15:07.287</time></trkpt><trkpt lat="56.8246476" lon="53.1376566"><time>2024-11-03T07:15:10.290</time></trkpt><trkpt lat="56.8246788" lon="53.1375771"><time>2024-11-03T07:15:13.300</time></trkpt><trkpt lat="56.8246959" lon="53.1374912"><time>2024-11-03T07:15:16.283</time></trkpt><trkpt lat="56.8247305" lon="53.1374199"><time>2024-11-03T07:15:18.293</time></trkpt><trkpt lat="56.8247809" lon="53.1373577"><time>2024-11-03T07:15:20.297</time></trkpt><trkpt lat="56.8248434" lon="53.1372961"><time>2024-11-03T07:15:22.307</time></trkpt><trkpt lat="56.8249176" lon="53.1372349"><time>2024-11-03T07:15:24.310</time></trkpt><trkpt lat="56.8249946" lon="53.1371792"><time>2024-11-03T07:15:26.340</time></trkpt><trkpt lat="56.8250715" lon="53.1371235"><time>2024-11-03T07:15:28.317</time></trkpt><trkpt lat="56.8251335" lon="53.1370744"><time>2024-11-03T07:15:30.300</time></trkpt><trkpt lat="56.8251750" lon="53.1370154"><time>2024-11-03T07:15:32.300</time></trkpt><trkpt lat="56.8252174" lon="53.1369589"><time>2024-11-03T07:15:34.313</time></trkpt><trkpt lat="56.8252595" lon="53.1368959"><time>2024-11-03T07:15:37.307</time></trkpt><trkpt lat="56.8252992" lon="53.1368533"><time>2024-11-03T07:15:39.317</time></trkpt><trkpt lat="56.8253517" lon="53.1367985"><time>2024-11-03T07:15:42.323</time></trkpt><trkpt lat="56.8254047" lon="53.1367584"><time>2024-11-03T07:15:45.313</time></trkpt><trkpt lat="56.8254512" lon="53.1367207"><time>2024-11-03T07:15:50.320</time></trkpt><trkpt lat="56.8254999" lon="53.1366765"><time>2024-11-03T07:15:56.357</time></trkpt><trkpt lat="56.8255549" lon="53.1366437"><time>2024-11-03T07:15:59.323</time></trkpt><trkpt lat="56.8256008" lon="53.1366257"><time>2024-11-03T07:16:01.307</time></trkpt><trkpt lat="56.8256459" lon="53.1365987"><time>2024-11-03T07:16:03.317</time></trkpt><trkpt lat="56.8256984" lon="53.1365791"><time>2024-11-03T07:16:05.333</time></trkpt><trkpt lat="56.8257508" lon="53.1365586"><time>2024-11-03T07:16:07.310</time></trkpt><trkpt lat="56.8258080" lon="53.1365381"><time>2024-11-03T07:16:09.307</time></trkpt><trkpt lat="56.8258690" lon="53.1365218"><time>2024-11-03T07:16:11.307</time></trkpt><trkpt lat="56.8259260" lon="53.1365005"><time>2024-11-03T07:16:14.317</time></trkpt><trkpt lat="56.8259756" lon="53.1364915"><time>2024-11-03T07:16:17.327</time></trkpt><trkpt lat="56.8260220" lon="53.1365275"><time>2024-11-03T07:16:20.303</time></trkpt><trkpt lat="56.8260644" lon="53.1365587"><time>2024-11-03T07:16:23.310</time></trkpt><trkpt lat="56.8261181" lon="53.1366020"><time>2024-11-03T07:16:27.330</time></trkpt><trkpt lat="56.8261563" lon="53.1366700"><time>2024-11-03T07:16:31.303</time></trkpt><trkpt lat="56.8261946" lon="53.1367380"><time>2024-11-03T07:16:34.320</time></trkpt><trkpt lat="56.8262439" lon="53.1367970"><time>2024-11-03T07:16:38.303</time></trkpt><trkpt lat="56.8262823" lon="53.1368453"><time>2024-11-03T07:16:41.320</time></trkpt><trkpt lat="56.8263239" lon="53.1369100"><time>2024-11-03T07:16:45.307</time></trkpt><trkpt lat="56.8263787" lon="53.1369305"><time>2024-11-03T07:16:48.320</time></trkpt><trkpt lat="56.8264227" lon="53.1369616"><time>2024-11-03T07:16:50.307</time></trkpt><trkpt lat="56.8264856" lon="53.1370058"><time>2024-11-03T07:16:53.307</time></trkpt><trkpt lat="56.8265360" lon="53.1370345"><time>2024-11-03T07:16:55.313</time></trkpt><trkpt lat="56.8266028" lon="53.1370353"><time>2024-11-03T07:16:58.343</time></trkpt><trkpt lat="56.8266536" lon="53.1370378"><time>2024-11-03T07:17:00.320</time></trkpt><trkpt lat="56.8267003" lon="53.1370288"><time>2024-11-03T07:17:02.317</time></trkpt><trkpt lat="56.8267519" lon="53.1370198"><time>2024-11-03T07:17:04.313</time></trkpt><trkpt lat="56.8268070" lon="53.1370067"><time>2024-11-03T07:17:06.313</time></trkpt><trkpt lat="56.8268630" lon="53.1370026"><time>2024-11-03T07:17:08.317</time></trkpt><trkpt lat="56.8269082" lon="53.1369887"><time>2024-11-03T07:17:10.317</time></trkpt><trkpt lat="56.8269598" lon="53.1369797"><time>2024-11-03T07:17:12.313</time></trkpt><trkpt lat="56.8270182" lon="53.1369756"><time>2024-11-03T07:17:14.317</time></trkpt><trkpt lat="56.8270780" lon="53.1369691"><time>2024-11-03T07:17:16.327</time></trkpt><trkpt lat="56.8271353" lon="53.1369617"><time>2024-11-03T07:17:18.327</time></trkpt><trkpt lat="56.8271941" lon="53.1369519"><time>2024-11-03T07:17:20.317</time></trkpt><trkpt lat="56.8272522" lon="53.1369413"><time>2024-11-03T07:17:22.303</time></trkpt><trkpt lat="56.8273098" lon="53.1369355"><time>2024-11-03T07:17:24.307</time></trkpt><trkpt lat="56.8273661" lon="53.1369331"><time>2024-11-03T07:17:26.327</time></trkpt><trkpt lat="56.8274213" lon="53.1369069"><time>2024-11-03T07:17:28.323</time></trkpt><trkpt lat="56.8274655" lon="53.1368905"><time>2024-11-03T07:17:30.310</time></trkpt><trkpt lat="56.8275192" lon="53.1368873"><time>2024-11-03T07:17:32.297</time></trkpt><trkpt lat="56.8275696" lon="53.1368750"><time>2024-11-03T07:17:34.303</time></trkpt><trkpt lat="56.8276229" lon="53.1368496"><time>2024-11-03T07:17:36.300</time></trkpt><trkpt lat="56.8276745" lon="53.1368128"><time>2024-11-03T07:17:38.307</time></trkpt><trkpt lat="56.8277198" lon="53.1367866"><time>2024-11-03T07:17:40.313</time></trkpt><trkpt lat="56.8277671" lon="53.1367653"><time>2024-11-03T07:17:42.310</time></trkpt><trkpt lat="56.8278153" lon="53.1367465"><time>2024-11-03T07:17:44.313</time></trkpt><trkpt lat="56.8278629" lon="53.1367399"><time>2024-11-03T07:17:46.323</time></trkpt><trkpt lat="56.8279332" lon="53.1367236"><time>2024-11-03T07:17:49.313</time></trkpt><trkpt lat="56.8279969" lon="53.1367211"><time>2024-11-03T07:17:51.317</time></trkpt><trkpt lat="56.8280500" lon="53.1367096"><time>2024-11-03T07:17:53.320</time></trkpt><trkpt lat="56.8281008" lon="53.1366990"><time>2024-11-03T07:17:55.323</time></trkpt><trkpt lat="56.8281519" lon="53.1367031"><time>2024-11-03T07:17:57.317</time></trkpt><trkpt lat="56.8282066" lon="53.1367048"><time>2024-11-03T07:18:00.330</time></trkpt><trkpt lat="56.8282620" lon="53.1367203"><time>2024-11-03T07:18:02.320</time></trkpt><trkpt lat="56.8283343" lon="53.1367294"><time>2024-11-03T07:18:05.320</time></trkpt><trkpt lat="56.8283974" lon="53.1367318"><time>2024-11-03T07:18:07.320</time></trkpt><trkpt lat="56.8284469" lon="53.1367302"><time>2024-11-03T07:18:09.323</time></trkpt><trkpt lat="56.8285090" lon="53.1367245"><time>2024-11-03T07:18:11.323</time></trkpt><trkpt lat="56.8285679" lon="53.1367302"><time>2024-11-03T07:18:13.303</time></trkpt><trkpt lat="56.8286215" lon="53.1367343"><time>2024-11-03T07:18:15.307</time></trkpt><trkpt lat="56.8286768" lon="53.1367250"><time>2024-11-03T07:18:17.317</time></trkpt><trkpt lat="56.8287319" lon="53.1367068"><time>2024-11-03T07:18:19.303</time></trkpt><trkpt lat="56.8287891" lon="53.1366830"><time>2024-11-03T07:18:21.317</time></trkpt><trkpt lat="56.8288566" lon="53.1366812"><time>2024-11-03T07:18:23.307</time></trkpt><trkpt lat="56.8289102" lon="53.1366693"><time>2024-11-03T07:18:25.313</time></trkpt><trkpt lat="56.8289652" lon="53.1366532"><time>2024-11-03T07:18:27.323</time></trkpt><trkpt lat="56.8290343" lon="53.1366453"><time>2024-11-03T07:18:29.310</time></trkpt><trkpt lat="56.8291053" lon="53.1366460"><time>2024-11-03T07:18:31.350</time></trkpt><trkpt lat="56.8291700" lon="53.1366413"><time>2024-11-03T07:18:33.310</time></trkpt><trkpt lat="56.8292333" lon="53.1366375"><time>2024-11-03T07:18:35.310</time></trkpt><trkpt lat="56.8292840" lon="53.1366255"><time>2024-11-03T07:18:37.300</time></trkpt><trkpt lat="56.8293506" lon="53.1366182"><time>2024-11-03T07:18:39.307</time></trkpt><trkpt lat="56.8294088" lon="53.1366075"><time>2024-11-03T07:18:41.327</time></trkpt><trkpt lat="56.8294623" lon="53.1365903"><time>2024-11-03T07:18:43.310</time></trkpt><trkpt lat="56.8295236" lon="53.1365887"><time>2024-11-03T07:18:45.313</time></trkpt><trkpt lat="56.8295805" lon="53.1365814"><time>2024-11-03T07:18:47.310</time></trkpt><trkpt lat="56.8296712" lon="53.1365814"><time>2024-11-03T07:18:49.323</time></trkpt><trkpt lat="56.8297234" lon="53.1365863"><time>2024-11-03T07:18:50.310</time></trkpt><trkpt lat="56.8297709" lon="53.1365847"><time>2024-11-03T07:18:51.317</time></trkpt><trkpt lat="56.8298352" lon="53.1365830"><time>2024-11-03T07:18:53.317</time></trkpt><trkpt lat="56.8298879" lon="53.1365904"><time>2024-11-03T07:18:56.337</time></trkpt><trkpt lat="56.8299378" lon="53.1365699"><time>2024-11-03T07:19:01.317</time></trkpt><trkpt lat="56.8299844" lon="53.1365404"><time>2024-11-03T07:19:05.320</time></trkpt><trkpt lat="56.8300369" lon="53.1365208"><time>2024-11-03T07:19:11.323</time></trkpt><trkpt lat="56.8300885" lon="53.1364987"><time>2024-11-03T07:19:16.320</time></trkpt><trkpt lat="56.8301292" lon="53.1364537"><time>2024-11-03T07:19:23.317</time></trkpt><trkpt lat="56.8301133" lon="53.1363628"><time>2024-11-03T07:19:29.317</time></trkpt><trkpt lat="56.8301232" lon="53.1362702"><time>2024-11-03T07:19:33.350</time></trkpt><trkpt lat="56.8301329" lon="53.1361769"><time>2024-11-03T07:19:37.320</time></trkpt><trkpt lat="56.8301457" lon="53.1360917"><time>2024-11-03T07:19:40.330</time></trkpt><trkpt lat="56.8301590" lon="53.1359811"><time>2024-11-03T07:19:43.323</time></trkpt><trkpt lat="56.8301638" lon="53.1358935"><time>2024-11-03T07:19:45.337</time></trkpt><trkpt lat="56.8301672" lon="53.1358010"><time>2024-11-03T07:19:47.330</time></trkpt><trkpt lat="56.8301659" lon="53.1357019"><time>2024-11-03T07:19:49.320</time></trkpt><trkpt lat="56.8301595" lon="53.1356056"><time>2024-11-03T07:19:51.327</time></trkpt><trkpt lat="56.8301559" lon="53.1355107"><time>2024-11-03T07:19:53.313</time></trkpt><trkpt lat="56.8301534" lon="53.1354214"><time>2024-11-03T07:19:55.320</time></trkpt><trkpt lat="56.8301584" lon="53.1353325"><time>2024-11-03T07:19:57.320</time></trkpt><trkpt lat="56.8301585" lon="53.1352375"><time>2024-11-03T07:19:59.323</time></trkpt><trkpt lat="56.8301458" lon="53.1351201"><time>2024-11-03T07:20:01.317</time></trkpt><trkpt lat="56.8301342" lon="53.1350038"><time>2024-11-03T07:20:03.313</time></trkpt><trkpt lat="56.8301250" lon="53.1348877"><time>2024-11-03T07:20:05.320</time></trkpt><trkpt lat="56.8301111" lon="53.1347780"><time>2024-11-03T07:20:07.323</time></trkpt><trkpt lat="56.8301118" lon="53.1346846"><time>2024-11-03T07:20:09.327</time></trkpt><trkpt lat="56.8300927" lon="53.1345806"><time>2024-11-03T07:20:12.337</time></trkpt><trkpt lat="56.8300769" lon="53.1344938"><time>2024-11-03T07:20:15.317</time></trkpt><trkpt lat="56.8300495" lon="53.1344078"><time>2024-11-03T07:20:18.317</time></trkpt><trkpt lat="56.8300227" lon="53.1343177"><time>2024-11-03T07:20:21.333</time></trkpt><trkpt lat="56.8300112" lon="53.1342375"><time>2024-11-03T07:20:24.330</time></trkpt><trkpt lat="56.8299964" lon="53.1341400"><time>2024-11-03T07:20:27.333</time></trkpt><trkpt lat="56.8299937" lon="53.1340573"><time>2024-11-03T07:20:30.330</time></trkpt><trkpt lat="56.8299837" lon="53.1339541"><time>2024-11-03T07:20:33.330</time></trkpt><trkpt lat="56.8299753" lon="53.1338542"><time>2024-11-03T07:20:36.330</time></trkpt><trkpt lat="56.8299683" lon="53.1337592"><time>2024-11-03T07:20:39.327</time></trkpt><trkpt lat="56.8299597" lon="53.1336527"><time>2024-11-03T07:20:43.327</time></trkpt><trkpt lat="56.8299529" lon="53.1335454"><time>2024-11-03T07:20:47.337</time></trkpt><trkpt lat="56.8299562" lon="53.1334471"><time>2024-11-03T07:20:52.327</time></trkpt><trkpt lat="56.8299547" lon="53.1333546"><time>2024-11-03T07:20:55.327</time></trkpt><trkpt lat="56.8299477" lon="53.1332670"><time>2024-11-03T07:20:57.320</time></trkpt><trkpt lat="56.8299418" lon="53.1331665"><time>2024-11-03T07:20:59.323</time></trkpt><trkpt lat="56.8299368" lon="53.1330647"><time>2024-11-03T07:21:01.330</time></trkpt><trkpt lat="56.8299328" lon="53.1329611"><time>2024-11-03T07:21:03.313</time></trkpt><trkpt lat="56.8299264" lon="53.1328642"><time>2024-11-03T07:21:05.330</time></trkpt><trkpt lat="56.8299214" lon="53.1327600"><time>2024-11-03T07:21:07.323</time></trkpt><trkpt lat="56.8299165" lon="53.1326531"><time>2024-11-03T07:21:09.343</time></trkpt><trkpt lat="56.8299089" lon="53.1325508"><time>2024-11-03T07:21:11.320</time></trkpt><trkpt lat="56.8299041" lon="53.1324504"><time>2024-11-03T07:21:13.330</time></trkpt><trkpt lat="56.8299041" lon="53.1323406"><time>2024-11-03T07:21:15.323</time></trkpt><trkpt lat="56.8299008" lon="53.1322489"><time>2024-11-03T07:21:17.307</time></trkpt><trkpt lat="56.8298998" lon="53.1321572"><time>2024-11-03T07:21:19.327</time></trkpt><trkpt lat="56.8298938" lon="53.1320721"><time>2024-11-03T07:21:21.323</time></trkpt><trkpt lat="56.8298910" lon="53.1319754"><time>2024-11-03T07:21:23.323</time></trkpt><trkpt lat="56.8298893" lon="53.1318820"><time>2024-11-03T07:21:25.317</time></trkpt><trkpt lat="56.8298789" lon="53.1317772"><time>2024-11-03T07:21:27.320</time></trkpt><trkpt lat="56.8298789" lon="53.1316879"><time>2024-11-03T07:21:29.310</time></trkpt><trkpt lat="56.8298761" lon="53.1316044"><time>2024-11-03T07:21:31.307</time></trkpt><trkpt lat="56.8298743" lon="53.1315028"><time>2024-11-03T07:21:34.327</time></trkpt><trkpt lat="56.8298766" lon="53.1314070"><time>2024-11-03T07:21:38.323</time></trkpt><trkpt lat="56.8299036" lon="53.1313349"><time>2024-11-03T07:21:44.330</time></trkpt><trkpt lat="56.8299548" lon="53.1313259"><time>2024-11-03T07:21:47.317</time></trkpt><trkpt lat="56.8300189" lon="53.1313202"><time>2024-11-03T07:21:50.310</time></trkpt><trkpt lat="56.8300808" lon="53.1312874"><time>2024-11-03T07:21:53.303</time></trkpt><trkpt lat="56.8301381" lon="53.1312416"><time>2024-11-03T07:21:56.300</time></trkpt><trkpt lat="56.8301969" lon="53.1312006"><time>2024-11-03T07:21:59.297</time></trkpt><trkpt lat="56.8302402" lon="53.1311761"><time>2024-11-03T07:22:01.287</time></trkpt><trkpt lat="56.8302867" lon="53.1311599"><time>2024-11-03T07:22:03.283</time></trkpt><trkpt lat="56.8303413" lon="53.1311505"><time>2024-11-03T07:22:06.290</time></trkpt><trkpt lat="56.8303922" lon="53.1311283"><time>2024-11-03T07:22:09.287</time></trkpt><trkpt lat="56.8304480" lon="53.1311302"><time>2024-11-03T07:22:12.293</time></trkpt><trkpt lat="56.8305015" lon="53.1311256"><time>2024-11-03T07:22:15.297</time></trkpt><trkpt lat="56.8305474" lon="53.1311065"><time>2024-11-03T07:22:18.310</time></trkpt><trkpt lat="56.8305853" lon="53.1310442"><time>2024-11-03T07:22:22.300</time></trkpt><trkpt lat="56.8306293" lon="53.1309935"><time>2024-11-03T07:22:26.333</time></trkpt><trkpt lat="56.8306458" lon="53.1308788"><time>2024-11-03T07:22:30.320</time></trkpt><trkpt lat="56.8306637" lon="53.1307986"><time>2024-11-03T07:22:32.303</time></trkpt><trkpt lat="56.8306855" lon="53.1307207"><time>2024-11-03T07:22:34.317</time></trkpt><trkpt lat="56.8307148" lon="53.1306552"><time>2024-11-03T07:22:36.320</time></trkpt><trkpt lat="56.8307509" lon="53.1305889"><time>2024-11-03T07:22:38.313</time></trkpt><trkpt lat="56.8307863" lon="53.1305266"><time>2024-11-03T07:22:40.303</time></trkpt><trkpt lat="56.8308075" lon="53.1304242"><time>2024-11-03T07:22:43.297</time></trkpt><trkpt lat="56.8308309" lon="53.1303452"><time>2024-11-03T07:22:46.300</time></trkpt><trkpt lat="56.8308811" lon="53.1303088"><time>2024-11-03T07:22:50.297</time></trkpt><trkpt lat="56.8309363" lon="53.1302883"><time>2024-11-03T07:22:53.310</time></trkpt><trkpt lat="56.8309955" lon="53.1302522"><time>2024-11-03T07:22:56.323</time></trkpt><trkpt lat="56.8310280" lon="53.1301708"><time>2024-11-03T07:22:59.287</time></trkpt><trkpt lat="56.8310652" lon="53.1300819"><time>2024-11-03T07:23:03.297</time></trkpt><trkpt lat="56.8310968" lon="53.1299981"><time>2024-11-03T07:23:06.287</time></trkpt><trkpt lat="56.8311151" lon="53.1299217"><time>2024-11-03T07:23:08.277</time></trkpt><trkpt lat="56.8311450" lon="53.1298375"><time>2024-11-03T07:23:11.283</time></trkpt><trkpt lat="56.8311779" lon="53.1297660"><time>2024-11-03T07:23:14.287</time></trkpt><trkpt lat="56.8312139" lon="53.1297032"><time>2024-11-03T07:23:17.290</time></trkpt><trkpt lat="56.8312732" lon="53.1296657"><time>2024-11-03T07:23:20.293</time></trkpt><trkpt lat="56.8313348" lon="53.1296347"><time>2024-11-03T07:23:23.290</time></trkpt><trkpt lat="56.8313851" lon="53.1296011"><time>2024-11-03T07:23:26.310</time></trkpt><trkpt lat="56.8314388" lon="53.1295552"><time>2024-11-03T07:23:29.307</time></trkpt><trkpt lat="56.8314971" lon="53.1295225"><time>2024-11-03T07:23:32.297</time></trkpt><trkpt lat="56.8315578" lon="53.1295028"><time>2024-11-03T07:23:34.300</time></trkpt><trkpt lat="56.8316171" lon="53.1294687"><time>2024-11-03T07:23:36.303</time></trkpt><trkpt lat="56.8316674" lon="53.1294359"><time>2024-11-03T07:23:39.307</time></trkpt><trkpt lat="56.8317047" lon="53.1293857"><time>2024-11-03T07:23:42.327</time></trkpt><trkpt lat="56.8317305" lon="53.1292817"><time>2024-11-03T07:23:45.313</time></trkpt><trkpt lat="56.8317586" lon="53.1292121"><time>2024-11-03T07:23:48.313</time></trkpt><trkpt lat="56.8317766" lon="53.1291212"><time>2024-11-03T07:23:51.317</time></trkpt><trkpt lat="56.8318076" lon="53.1290073"><time>2024-11-03T07:23:54.327</time></trkpt><trkpt lat="56.8318209" lon="53.1289172"><time>2024-11-03T07:23:56.330</time></trkpt><trkpt lat="56.8318278" lon="53.1288017"><time>2024-11-03T07:23:59.327</time></trkpt><trkpt lat="56.8318453" lon="53.1287157"><time>2024-11-03T07:24:01.300</time></trkpt><trkpt lat="56.8318750" lon="53.1286445"><time>2024-11-03T07:24:03.307</time></trkpt><trkpt lat="56.8319105" lon="53.1285830"><time>2024-11-03T07:24:06.320</time></trkpt><trkpt lat="56.8319645" lon="53.1285273"><time>2024-11-03T07:24:09.313</time></trkpt><trkpt lat="56.8320135" lon="53.1284970"><time>2024-11-03T07:24:11.313</time></trkpt><trkpt lat="56.8320731" lon="53.1284577"><time>2024-11-03T07:24:14.290</time></trkpt><trkpt lat="56.8321220" lon="53.1284348"><time>2024-11-03T07:24:16.297</time></trkpt><trkpt lat="56.8321669" lon="53.1284217"><time>2024-11-03T07:24:18.307</time></trkpt><trkpt lat="56.8322145" lon="53.1284094"><time>2024-11-03T07:24:20.300</time></trkpt><trkpt lat="56.8322658" lon="53.1283938"><time>2024-11-03T07:24:22.297</time></trkpt><trkpt lat="56.8323236" lon="53.1283889"><time>2024-11-03T07:24:24.297</time></trkpt><trkpt lat="56.8323803" lon="53.1283807"><time>2024-11-03T07:24:26.310</time></trkpt><trkpt lat="56.8324282" lon="53.1283684"><time>2024-11-03T07:24:28.303</time></trkpt><trkpt lat="56.8324751" lon="53.1283455"><time>2024-11-03T07:24:30.313</time></trkpt><trkpt lat="56.8325303" lon="53.1283119"><time>2024-11-03T07:24:33.300</time></trkpt><trkpt lat="56.8325783" lon="53.1282513"><time>2024-11-03T07:24:35.307</time></trkpt><trkpt lat="56.8326358" lon="53.1281891"><time>2024-11-03T07:24:37.320</time></trkpt><trkpt lat="56.8326866" lon="53.1281411"><time>2024-11-03T07:24:39.317</time></trkpt><trkpt lat="56.8327335" lon="53.1281030"><time>2024-11-03T07:24:41.320</time></trkpt><trkpt lat="56.8327801" lon="53.1280506"><time>2024-11-03T07:24:44.327</time></trkpt><trkpt lat="56.8327873" lon="53.1279646"><time>2024-11-03T07:24:50.300</time></trkpt><trkpt lat="56.8328345" lon="53.1279581"><time>2024-11-03T07:24:54.307</time></trkpt><trkpt lat="56.8328828" lon="53.1279474"><time>2024-11-03T07:24:58.307</time></trkpt><trkpt lat="56.8329517" lon="53.1279335"><time>2024-11-03T07:25:02.290</time></trkpt><trkpt lat="56.8330164" lon="53.1279081"><time>2024-11-03T07:25:05.290</time></trkpt><trkpt lat="56.8330831" lon="53.1278728"><time>2024-11-03T07:25:07.297</time></trkpt><trkpt lat="56.8331443" lon="53.1278221"><time>2024-11-03T07:25:09.287</time></trkpt><trkpt lat="56.8331912" lon="53.1277582"><time>2024-11-03T07:25:11.287</time></trkpt><trkpt lat="56.8332344" lon="53.1276828"><time>2024-11-03T07:25:13.310</time></trkpt><trkpt lat="56.8332664" lon="53.1276034"><time>2024-11-03T07:25:15.297</time></trkpt><trkpt lat="56.8333161" lon="53.1275264"><time>2024-11-03T07:25:17.303</time></trkpt><trkpt lat="56.8332348" lon="53.1276578"><time>2024-11-03T07:25:19.407</time></trkpt><trkpt lat="56.8332350" lon="53.1276582"><time>2024-11-03T07:25:21.497</time></trkpt><trkpt lat="56.8333316" lon="53.1275129"><time>2024-11-03T07:25:22.547</time></trkpt><trkpt lat="56.8332346" lon="53.1276402"><time>2024-11-03T07:25:24.640</time></trkpt><trkpt lat="56.8332362" lon="53.1276308"><time>2024-11-03T07:25:26.743</time></trkpt><trkpt lat="56.8333961" lon="53.1274842"><time>2024-11-03T07:25:27.773</time></trkpt><trkpt lat="56.8332398" lon="53.1276445"><time>2024-11-03T07:25:29.893</time></trkpt><trkpt lat="56.8332446" lon="53.1276302"><time>2024-11-03T07:25:31.993</time></trkpt><trkpt lat="56.8334568" lon="53.1274884"><time>2024-11-03T07:25:33.033</time></trkpt><trkpt lat="56.8332500" lon="53.1276217"><time>2024-11-03T07:25:35.123</time></trkpt><trkpt lat="56.8332539" lon="53.1276101"><time>2024-11-03T07:25:37.227</time></trkpt><trkpt lat="56.8334105" lon="53.1275240"><time>2024-11-03T07:25:38.257</time></trkpt><trkpt lat="56.8332535" lon="53.1276128"><time>2024-11-03T07:25:40.353</time></trkpt><trkpt lat="56.8332537" lon="53.1276121"><time>2024-11-03T07:25:42.443</time></trkpt><trkpt lat="56.8335106" lon="53.1274142"><time>2024-11-03T07:25:43.483</time></trkpt><trkpt lat="56.8332625" lon="53.1276157"><time>2024-11-03T07:25:45.593</time></trkpt><trkpt lat="56.8332643" lon="53.1276011"><time>2024-11-03T07:25:47.693</time></trkpt><trkpt lat="56.8335828" lon="53.1274735"><time>2024-11-03T07:25:48.727</time></trkpt><trkpt lat="56.8332675" lon="53.1276020"><time>2024-11-03T07:25:50.833</time></trkpt><trkpt lat="56.8332688" lon="53.1275921"><time>2024-11-03T07:25:52.943</time></trkpt><trkpt lat="56.8335550" lon="53.1274546"><time>2024-11-03T07:25:53.980</time></trkpt><trkpt lat="56.8332737" lon="53.1275858"><time>2024-11-03T07:25:56.090</time></trkpt><trkpt lat="56.8332789" lon="53.1275831"><time>2024-11-03T07:25:58.187</time></trkpt><trkpt lat="56.8333841" lon="53.1276294"><time>2024-11-03T07:25:59.220</time></trkpt><trkpt lat="56.8332890" lon="53.1275800"><time>2024-11-03T07:26:01.327</time></trkpt><trkpt lat="56.8332942" lon="53.1275782"><time>2024-11-03T07:26:03.417</time></trkpt><trkpt lat="56.8334828" lon="53.1275061"><time>2024-11-03T07:26:04.440</time></trkpt><trkpt lat="56.8332955" lon="53.1275808"><time>2024-11-03T07:26:06.543</time></trkpt><trkpt lat="56.8332955" lon="53.1275808"><time>2024-11-03T07:26:08.630</time></trkpt><trkpt lat="56.8335836" lon="53.1274890"><time>2024-11-03T07:26:09.663</time></trkpt><trkpt lat="56.8332965" lon="53.1275801"><time>2024-11-03T07:26:11.767</time></trkpt><trkpt lat="56.8332972" lon="53.1275762"><time>2024-11-03T07:26:13.850</time></trkpt><trkpt lat="56.8334980" lon="53.1274484"><time>2024-11-03T07:26:14.890</time></trkpt><trkpt lat="56.8332983" lon="53.1275816"><time>2024-11-03T07:26:16.997</time></trkpt><trkpt lat="56.8332995" lon="53.1275819"><time>2024-11-03T07:26:19.093</time></trkpt><trkpt lat="56.8334062" lon="53.1273975"><time>2024-11-03T07:26:20.120</time></trkpt><trkpt lat="56.8333006" lon="53.1275798"><time>2024-11-03T07:26:22.223</time></trkpt><trkpt lat="56.8333015" lon="53.1275807"><time>2024-11-03T07:26:24.327</time></trkpt><trkpt lat="56.8333020" lon="53.1275801"><time>2024-11-03T07:26:26.420</time></trkpt><trkpt lat="56.8335570" lon="53.1273006"><time>2024-11-03T07:26:27.447</time></trkpt><trkpt lat="56.8337053" lon="53.1272664"><time>2024-11-03T07:26:28.450</time></trkpt><trkpt lat="56.8337545" lon="53.1272719"><time>2024-11-03T07:26:29.450</time></trkpt><trkpt lat="56.8338075" lon="53.1272411"><time>2024-11-03T07:26:31.463</time></trkpt><trkpt lat="56.8338729" lon="53.1271974"><time>2024-11-03T07:26:34.473</time></trkpt><trkpt lat="56.8339147" lon="53.1271536"><time>2024-11-03T07:26:36.473</time></trkpt><trkpt lat="56.8339672" lon="53.1271067"><time>2024-11-03T07:26:39.470</time></trkpt><trkpt lat="56.8340161" lon="53.1270704"><time>2024-11-03T07:26:41.473</time></trkpt><trkpt lat="56.8340688" lon="53.1270451"><time>2024-11-03T07:26:43.467</time></trkpt><trkpt lat="56.8341395" lon="53.1270380"><time>2024-11-03T07:26:46.367</time></trkpt><trkpt lat="56.8341940" lon="53.1270341"><time>2024-11-03T07:26:48.320</time></trkpt><trkpt lat="56.8333022" lon="53.1275800"><time>2024-11-03T07:26:50.427</time></trkpt><trkpt lat="56.8333058" lon="53.1275828"><time>2024-11-03T07:26:52.527</time></trkpt><trkpt lat="56.8337500" lon="53.1276313"><time>2024-11-03T07:26:53.550</time></trkpt><trkpt lat="56.8338402" lon="53.1275412"><time>2024-11-03T07:26:54.550</time></trkpt><trkpt lat="56.8340849" lon="53.1273850"><time>2024-11-03T07:26:55.560</time></trkpt><trkpt lat="56.8342138" lon="53.1272724"><time>2024-11-03T07:26:56.567</time></trkpt><trkpt lat="56.8333060" lon="53.1275826"><time>2024-11-03T07:26:58.667</time></trkpt><trkpt lat="56.8333060" lon="53.1275822"><time>2024-11-03T07:27:00.750</time></trkpt><trkpt lat="56.8338443" lon="53.1271190"><time>2024-11-03T07:27:01.783</time></trkpt><trkpt lat="56.8341990" lon="53.1269653"><time>2024-11-03T07:27:02.793</time></trkpt><trkpt lat="56.8333062" lon="53.1275821"><time>2024-11-03T07:27:04.887</time></trkpt><trkpt lat="56.8333063" lon="53.1275822"><time>2024-11-03T07:27:06.963</time></trkpt><trkpt lat="56.8339128" lon="53.1270649"><time>2024-11-03T07:27:07.993</time></trkpt><trkpt lat="56.8340376" lon="53.1269885"><time>2024-11-03T07:27:08.977</time></trkpt><trkpt lat="56.8341528" lon="53.1270032"><time>2024-11-03T07:27:09.997</time></trkpt><trkpt lat="56.8343307" lon="53.1270549"><time>2024-11-03T07:27:10.910</time></trkpt><trkpt lat="56.8333072" lon="53.1275828"><time>2024-11-03T07:27:13.007</time></trkpt><trkpt lat="56.8333072" lon="53.1275828"><time>2024-11-03T07:27:15.090</time></trkpt><trkpt lat="56.8338797" lon="53.1274484"><time>2024-11-03T07:27:16.117</time></trkpt><trkpt lat="56.8341966" lon="53.1274207"><time>2024-11-03T07:27:17.123</time></trkpt><trkpt lat="56.8344215" lon="53.1273279"><time>2024-11-03T07:27:18.123</time></trkpt><trkpt lat="56.8333095" lon="53.1275765"><time>2024-11-03T07:27:21.120</time></trkpt><trkpt lat="56.8332345" lon="53.1276837"><time>2024-11-03T07:27:24.100</time></trkpt><trkpt lat="56.8332345" lon="53.1276821"><time>2024-11-03T07:27:26.150</time></trkpt><trkpt lat="56.8334995" lon="53.1275565"><time>2024-11-03T07:27:27.083</time></trkpt><trkpt lat="56.8332346" lon="53.1276815"><time>2024-11-03T07:27:30.060</time></trkpt><trkpt lat="56.8332345" lon="53.1276804"><time>2024-11-03T07:27:32.100</time></trkpt><trkpt lat="56.8341079" lon="53.1274655"><time>2024-11-03T07:27:33.040</time></trkpt><trkpt lat="56.8332346" lon="53.1276803"><time>2024-11-03T07:27:35.113</time></trkpt><trkpt lat="56.8332346" lon="53.1276801"><time>2024-11-03T07:27:37.163</time></trkpt><trkpt lat="56.8339996" lon="53.1275132"><time>2024-11-03T07:27:38.193</time></trkpt><trkpt lat="56.8332347" lon="53.1276788"><time>2024-11-03T07:27:40.267</time></trkpt><trkpt lat="56.8332344" lon="53.1276827"><time>2024-11-03T07:27:44.233</time></trkpt><trkpt lat="56.8333620" lon="53.1276572"><time>2024-11-03T07:27:45.270</time></trkpt><trkpt lat="56.8332345" lon="53.1276817"><time>2024-11-03T07:27:47.350</time></trkpt><trkpt lat="56.8332345" lon="53.1276721"><time>2024-11-03T07:27:50.330</time></trkpt><trkpt lat="56.8339960" lon="53.1274552"><time>2024-11-03T07:27:51.347</time></trkpt><trkpt lat="56.8332346" lon="53.1276717"><time>2024-11-03T07:27:53.407</time></trkpt><trkpt lat="56.8332344" lon="53.1276704"><time>2024-11-03T07:27:55.470</time></trkpt><trkpt lat="56.8339465" lon="53.1269813"><time>2024-11-03T07:27:56.483</time></trkpt><trkpt lat="56.8332352" lon="53.1276860"><time>2024-11-03T07:28:00.360</time></trkpt><trkpt lat="56.8332352" lon="53.1276859"><time>2024-11-03T07:28:03.313</time></trkpt><trkpt lat="56.8346203" lon="53.1271847"><time>2024-11-03T07:28:04.260</time></trkpt><trkpt lat="56.8332358" lon="53.1276834"><time>2024-11-03T07:28:07.247</time></trkpt><trkpt lat="56.8332348" lon="53.1276834"><time>2024-11-03T07:28:10.237</time></trkpt><trkpt lat="56.8333253" lon="53.1276544"><time>2024-11-03T07:28:11.270</time></trkpt><trkpt lat="56.8332349" lon="53.1276797"><time>2024-11-03T07:28:13.360</time></trkpt><trkpt lat="56.8332350" lon="53.1276753"><time>2024-11-03T07:28:15.460</time></trkpt><trkpt lat="56.8332923" lon="53.1276457"><time>2024-11-03T07:28:16.457</time></trkpt><trkpt lat="56.8334731" lon="53.1275652"><time>2024-11-03T07:28:17.500</time></trkpt><trkpt lat="56.8336968" lon="53.1274678"><time>2024-11-03T07:28:18.453</time></trkpt><trkpt lat="56.8344272" lon="53.1272562"><time>2024-11-03T07:28:19.467</time></trkpt><trkpt lat="56.8345954" lon="53.1271976"><time>2024-11-03T07:28:20.453</time></trkpt><trkpt lat="56.8348744" lon="53.1270599"><time>2024-11-03T07:28:21.473</time></trkpt><trkpt lat="56.8349144" lon="53.1270438"><time>2024-11-03T07:28:22.450</time></trkpt><trkpt lat="56.8350523" lon="53.1269280"><time>2024-11-03T07:28:23.357</time></trkpt><trkpt lat="56.8351169" lon="53.1268588"><time>2024-11-03T07:28:24.267</time></trkpt><trkpt lat="56.8351813" lon="53.1268158"><time>2024-11-03T07:28:26.277</time></trkpt><trkpt lat="56.8351827" lon="53.1269032"><time>2024-11-03T07:28:31.277</time></trkpt></trkseg></trk></gpx>